<?xml version="1.0" encoding="UTF-8" standalone="no" ?>
<gpx xmlns="http://www.topografix.com/GPX/1/1" xmlns:xsi="http://www.w3.org/2001/XMLSchema-instance" xsi:schemaLocation="http://www.topografix.com/GPX/1/1 http://www.topografix.com/GPX/1/1/gpx.xsd" version="1.1" creator="VisuGPX - https://www.visugpx.com">
  <metadata>
    <name>boucle haut agenais</name>
    <desc><![CDATA[111111111111111111111111111111111111111111111111111111111111111111111111111111111111111111111]]></desc>
  </metadata>
  <trk>
    <name><![CDATA[boucle haut agenais]]></name>
    <trkseg>
      <trkpt lat="44.41913" lon="0.75837">
        <ele>129.18699645996</ele>
        <time>2019-04-17T21:00:13.000Z</time>
      </trkpt>
      <trkpt lat="44.41933" lon="0.75808">
        <ele>133.13433837891</ele>
        <time>2019-04-17T21:00:13.006Z</time>
      </trkpt>
      <trkpt lat="44.41985" lon="0.75836">
        <ele>131.48411560059</ele>
        <time>2019-04-17T21:00:13.023Z</time>
      </trkpt>
      <trkpt lat="44.4203" lon="0.7585">
        <ele>127.40480041504</ele>
        <time>2019-04-17T21:00:13.049Z</time>
      </trkpt>
      <trkpt lat="44.42054" lon="0.75789">
        <ele>126.30868530273</ele>
        <time>2019-04-17T21:00:13.085Z</time>
      </trkpt>
      <trkpt lat="44.42105" lon="0.75779">
        <ele>117.56287384033</ele>
        <time>2019-04-17T21:00:13.131Z</time>
      </trkpt>
      <trkpt lat="44.42171" lon="0.75805">
        <ele>110.65227508545</ele>
        <time>2019-04-17T21:00:13.191Z</time>
      </trkpt>
      <trkpt lat="44.42196" lon="0.75829">
        <ele>107.96472167969</ele>
        <time>2019-04-17T21:00:13.257Z</time>
      </trkpt>
      <trkpt lat="44.4223" lon="0.75828">
        <ele>106.03234863281</ele>
        <time>2019-04-17T21:00:13.330Z</time>
      </trkpt>
      <trkpt lat="44.42271" lon="0.75825">
        <ele>103.04484558105</ele>
        <time>2019-04-17T21:00:13.411Z</time>
      </trkpt>
      <trkpt lat="44.4229" lon="0.75968">
        <ele>107.34377288818</ele>
        <time>2019-04-17T21:00:13.513Z</time>
      </trkpt>
      <trkpt lat="44.42312" lon="0.76093">
        <ele>114.41334533691</ele>
        <time>2019-04-17T21:00:13.634Z</time>
      </trkpt>
      <trkpt lat="44.42345" lon="0.76189">
        <ele>116.40744781494</ele>
        <time>2019-04-17T21:00:13.770Z</time>
      </trkpt>
      <trkpt lat="44.42395" lon="0.76247">
        <ele>115.44928741455</ele>
        <time>2019-04-17T21:00:13.919Z</time>
      </trkpt>
      <trkpt lat="44.42534" lon="0.76312">
        <ele>119.40914154053</ele>
        <time>2019-04-17T21:00:14.097Z</time>
      </trkpt>
      <trkpt lat="44.42733" lon="0.7641">
        <ele>151.13519287109</ele>
        <time>2019-04-17T21:00:14.317Z</time>
      </trkpt>
      <trkpt lat="44.42824" lon="0.7648">
        <ele>172.54888916016</ele>
        <time>2019-04-17T21:00:14.558Z</time>
      </trkpt>
      <trkpt lat="44.42803" lon="0.76572">
        <ele>168.16040039062</ele>
        <time>2019-04-17T21:00:14.813Z</time>
      </trkpt>
      <trkpt lat="44.42759" lon="0.76608">
        <ele>157.26316833496</ele>
        <time>2019-04-17T21:00:15.078Z</time>
      </trkpt>
      <trkpt lat="44.42765" lon="0.76755">
        <ele>151.12455749512</ele>
        <time>2019-04-17T21:00:15.364Z</time>
      </trkpt>
      <trkpt lat="44.42718" lon="0.76759">
        <ele>144.98176574707</ele>
        <time>2019-04-17T21:00:15.660Z</time>
      </trkpt>
      <trkpt lat="44.4269" lon="0.76845">
        <ele>144.29692077637</ele>
        <time>2019-04-17T21:00:15.969Z</time>
      </trkpt>
      <trkpt lat="44.42673" lon="0.7693">
        <ele>146.04148864746</ele>
        <time>2019-04-17T21:00:16.291Z</time>
      </trkpt>
      <trkpt lat="44.42665" lon="0.76999">
        <ele>144.94277954102</ele>
        <time>2019-04-17T21:00:16.623Z</time>
      </trkpt>
      <trkpt lat="44.42683" lon="0.77078">
        <ele>143.98248291016</ele>
        <time>2019-04-17T21:00:16.967Z</time>
      </trkpt>
      <trkpt lat="44.42678" lon="0.77111">
        <ele>141.18695068359</ele>
        <time>2019-04-17T21:00:17.316Z</time>
      </trkpt>
      <trkpt lat="44.42608" lon="0.77148">
        <ele>139.09158325195</ele>
        <time>2019-04-17T21:00:17.680Z</time>
      </trkpt>
      <trkpt lat="44.42626" lon="0.77198">
        <ele>136.05062866211</ele>
        <time>2019-04-17T21:00:18.052Z</time>
      </trkpt>
      <trkpt lat="44.42644" lon="0.77264">
        <ele>134.51484680176</ele>
        <time>2019-04-17T21:00:18.434Z</time>
      </trkpt>
      <trkpt lat="44.42675" lon="0.77337">
        <ele>138.78942871094</ele>
        <time>2019-04-17T21:00:18.828Z</time>
      </trkpt>
      <trkpt lat="44.42652" lon="0.77373">
        <ele>138.34237670898</ele>
        <time>2019-04-17T21:00:19.229Z</time>
      </trkpt>
      <trkpt lat="44.42624" lon="0.7742">
        <ele>134.33283996582</ele>
        <time>2019-04-17T21:00:19.639Z</time>
      </trkpt>
      <trkpt lat="44.42589" lon="0.77466">
        <ele>129.82379150391</ele>
        <time>2019-04-17T21:00:20.058Z</time>
      </trkpt>
      <trkpt lat="44.42557" lon="0.77509">
        <ele>124.67818450928</ele>
        <time>2019-04-17T21:00:20.486Z</time>
      </trkpt>
      <trkpt lat="44.42479" lon="0.77657">
        <ele>118.99684906006</ele>
        <time>2019-04-17T21:00:20.940Z</time>
      </trkpt>
      <trkpt lat="44.42404" lon="0.77797">
        <ele>112.66402435303</ele>
        <time>2019-04-17T21:00:21.419Z</time>
      </trkpt>
      <trkpt lat="44.42361" lon="0.77901">
        <ele>106.74354553223</ele>
        <time>2019-04-17T21:00:21.916Z</time>
      </trkpt>
      <trkpt lat="44.42326" lon="0.78046">
        <ele>102.94822692871</ele>
        <time>2019-04-17T21:00:22.435Z</time>
      </trkpt>
      <trkpt lat="44.42264" lon="0.78039">
        <ele>103.2681427002</ele>
        <time>2019-04-17T21:00:22.966Z</time>
      </trkpt>
      <trkpt lat="44.42204" lon="0.78088">
        <ele>104.81282043457</ele>
        <time>2019-04-17T21:00:23.511Z</time>
      </trkpt>
      <trkpt lat="44.42164" lon="0.78112">
        <ele>102.12370300293</ele>
        <time>2019-04-17T21:00:24.065Z</time>
      </trkpt>
      <trkpt lat="44.42089" lon="0.78134">
        <ele>102.14514923096</ele>
        <time>2019-04-17T21:00:24.634Z</time>
      </trkpt>
      <trkpt lat="44.42001" lon="0.78154">
        <ele>99.361625671387</ele>
        <time>2019-04-17T21:00:25.221Z</time>
      </trkpt>
      <trkpt lat="44.41937" lon="0.78146">
        <ele>97.152816772461</ele>
        <time>2019-04-17T21:00:25.821Z</time>
      </trkpt>
      <trkpt lat="44.41872" lon="0.78147">
        <ele>94.052467346191</ele>
        <time>2019-04-17T21:00:26.434Z</time>
      </trkpt>
      <trkpt lat="44.41791" lon="0.78162">
        <ele>91.037010192871</ele>
        <time>2019-04-17T21:00:27.063Z</time>
      </trkpt>
      <trkpt lat="44.41716" lon="0.78181">
        <ele>87.802322387695</ele>
        <time>2019-04-17T21:00:27.707Z</time>
      </trkpt>
      <trkpt lat="44.41626" lon="0.78188">
        <ele>85.128524780273</ele>
        <time>2019-04-17T21:00:28.369Z</time>
      </trkpt>
      <trkpt lat="44.41624" lon="0.7827">
        <ele>85.104522705078</ele>
        <time>2019-04-17T21:00:29.043Z</time>
      </trkpt>
      <trkpt lat="44.41589" lon="0.78362">
        <ele>83.684593200684</ele>
        <time>2019-04-17T21:00:29.732Z</time>
      </trkpt>
      <trkpt lat="44.41559" lon="0.78473">
        <ele>84.305717468262</ele>
        <time>2019-04-17T21:00:30.438Z</time>
      </trkpt>
      <trkpt lat="44.41538" lon="0.7859">
        <ele>83.22728729248</ele>
        <time>2019-04-17T21:00:31.161Z</time>
      </trkpt>
      <trkpt lat="44.41535" lon="0.78634">
        <ele>82.135467529297</ele>
        <time>2019-04-17T21:00:31.891Z</time>
      </trkpt>
      <trkpt lat="44.41544" lon="0.78684">
        <ele>82.839889526367</ele>
        <time>2019-04-17T21:00:32.628Z</time>
      </trkpt>
      <trkpt lat="44.4153" lon="0.78803">
        <ele>83.931709289551</ele>
        <time>2019-04-17T21:00:33.382Z</time>
      </trkpt>
      <trkpt lat="44.41524" lon="0.78839">
        <ele>84.629867553711</ele>
        <time>2019-04-17T21:00:34.142Z</time>
      </trkpt>
      <trkpt lat="44.41594" lon="0.78884">
        <ele>88.133987426758</ele>
        <time>2019-04-17T21:00:34.917Z</time>
      </trkpt>
      <trkpt lat="44.41639" lon="0.78933">
        <ele>91.183044433594</ele>
        <time>2019-04-17T21:00:35.703Z</time>
      </trkpt>
      <trkpt lat="44.41701" lon="0.79045">
        <ele>98.465721130371</ele>
        <time>2019-04-17T21:00:36.510Z</time>
      </trkpt>
      <trkpt lat="44.41729" lon="0.79033">
        <ele>98.417724609375</ele>
        <time>2019-04-17T21:00:37.323Z</time>
      </trkpt>
      <trkpt lat="44.41741" lon="0.79114">
        <ele>103.05657958984</ele>
        <time>2019-04-17T21:00:38.147Z</time>
      </trkpt>
      <trkpt lat="44.41764" lon="0.79252">
        <ele>110.97653198242</ele>
        <time>2019-04-17T21:00:38.992Z</time>
      </trkpt>
      <trkpt lat="44.4178" lon="0.79317">
        <ele>115.3168182373</ele>
        <time>2019-04-17T21:00:39.847Z</time>
      </trkpt>
      <trkpt lat="44.41777" lon="0.79405">
        <ele>118.52713012695</ele>
        <time>2019-04-17T21:00:40.714Z</time>
      </trkpt>
      <trkpt lat="44.41778" lon="0.79502">
        <ele>123.25193786621</ele>
        <time>2019-04-17T21:00:41.595Z</time>
      </trkpt>
      <trkpt lat="44.41779" lon="0.79571">
        <ele>124.60636901855</ele>
        <time>2019-04-17T21:00:42.486Z</time>
      </trkpt>
      <trkpt lat="44.41774" lon="0.797">
        <ele>123.11022186279</ele>
        <time>2019-04-17T21:00:43.396Z</time>
      </trkpt>
      <trkpt lat="44.41781" lon="0.7986">
        <ele>121.91340637207</ele>
        <time>2019-04-17T21:00:44.328Z</time>
      </trkpt>
      <trkpt lat="44.41822" lon="0.80018">
        <ele>123.28518676758</ele>
        <time>2019-04-17T21:00:45.285Z</time>
      </trkpt>
      <trkpt lat="44.4184" lon="0.80034">
        <ele>124.82093048096</ele>
        <time>2019-04-17T21:00:46.246Z</time>
      </trkpt>
      <trkpt lat="44.4186" lon="0.80042">
        <ele>126.55237579346</ele>
        <time>2019-04-17T21:00:47.211Z</time>
      </trkpt>
      <trkpt lat="44.41893" lon="0.80117">
        <ele>127.4249420166</ele>
        <time>2019-04-17T21:00:48.189Z</time>
      </trkpt>
      <trkpt lat="44.41919" lon="0.8015">
        <ele>128.45355224609</ele>
        <time>2019-04-17T21:00:49.174Z</time>
      </trkpt>
      <trkpt lat="44.4196" lon="0.80174">
        <ele>129.99816894531</ele>
        <time>2019-04-17T21:00:50.168Z</time>
      </trkpt>
      <trkpt lat="44.41971" lon="0.80244">
        <ele>125.39604949951</ele>
        <time>2019-04-17T21:00:51.172Z</time>
      </trkpt>
      <trkpt lat="44.41901" lon="0.80304">
        <ele>119.32208251953</ele>
        <time>2019-04-17T21:00:52.192Z</time>
      </trkpt>
      <trkpt lat="44.41856" lon="0.80357">
        <ele>114.94762420654</ele>
        <time>2019-04-17T21:00:53.224Z</time>
      </trkpt>
      <trkpt lat="44.41791" lon="0.80368">
        <ele>111.81427764893</ele>
        <time>2019-04-17T21:00:54.269Z</time>
      </trkpt>
      <trkpt lat="44.41728" lon="0.80426">
        <ele>108.45024871826</ele>
        <time>2019-04-17T21:00:55.329Z</time>
      </trkpt>
      <trkpt lat="44.41631" lon="0.80554">
        <ele>105</ele>
        <time>2019-04-17T21:00:56.416Z</time>
      </trkpt>
      <trkpt lat="44.41547" lon="0.80657">
        <ele>101.54203796387</ele>
        <time>2019-04-17T21:00:57.525Z</time>
      </trkpt>
      <trkpt lat="44.41507" lon="0.80705">
        <ele>100.19999694824</ele>
        <time>2019-04-17T21:00:58.645Z</time>
      </trkpt>
      <trkpt lat="44.41381" lon="0.80802">
        <ele>96.567031860352</ele>
        <time>2019-04-17T21:00:59.794Z</time>
      </trkpt>
      <trkpt lat="44.41308" lon="0.80886">
        <ele>93.059776306152</ele>
        <time>2019-04-17T21:01:00.962Z</time>
      </trkpt>
      <trkpt lat="44.41256" lon="0.80922">
        <ele>90.642219543457</ele>
        <time>2019-04-17T21:01:02.141Z</time>
      </trkpt>
      <trkpt lat="44.41176" lon="0.80953">
        <ele>84.64030456543</ele>
        <time>2019-04-17T21:01:03.337Z</time>
      </trkpt>
      <trkpt lat="44.41149" lon="0.8109">
        <ele>83.381011962891</ele>
        <time>2019-04-17T21:01:04.553Z</time>
      </trkpt>
      <trkpt lat="44.41057" lon="0.81113">
        <ele>79.211318969727</ele>
        <time>2019-04-17T21:01:05.788Z</time>
      </trkpt>
      <trkpt lat="44.41017" lon="0.81142">
        <ele>78.083206176758</ele>
        <time>2019-04-17T21:01:07.032Z</time>
      </trkpt>
      <trkpt lat="44.40791" lon="0.81276">
        <ele>78.240478515625</ele>
        <time>2019-04-17T21:01:08.325Z</time>
      </trkpt>
      <trkpt lat="44.40696" lon="0.81345">
        <ele>80.94312286377</ele>
        <time>2019-04-17T21:01:09.639Z</time>
      </trkpt>
      <trkpt lat="44.40585" lon="0.81461">
        <ele>74.554412841797</ele>
        <time>2019-04-17T21:01:10.981Z</time>
      </trkpt>
      <trkpt lat="44.4048" lon="0.81555">
        <ele>72.747955322266</ele>
        <time>2019-04-17T21:01:12.348Z</time>
      </trkpt>
      <trkpt lat="44.4036" lon="0.81643">
        <ele>68.833854675293</ele>
        <time>2019-04-17T21:01:13.742Z</time>
      </trkpt>
      <trkpt lat="44.40231" lon="0.81706">
        <ele>66</ele>
        <time>2019-04-17T21:01:15.164Z</time>
      </trkpt>
      <trkpt lat="44.39822" lon="0.81011">
        <ele>68.409591674805</ele>
        <time>2019-04-17T21:01:16.714Z</time>
      </trkpt>
      <trkpt lat="44.39793" lon="0.81011">
        <ele>67.408561706543</ele>
        <time>2019-04-17T21:01:18.270Z</time>
      </trkpt>
      <trkpt lat="44.39767" lon="0.80997">
        <ele>65.593910217285</ele>
        <time>2019-04-17T21:01:19.832Z</time>
      </trkpt>
      <trkpt lat="44.39719" lon="0.81011">
        <ele>60.765148162842</ele>
        <time>2019-04-17T21:01:21.404Z</time>
      </trkpt>
      <trkpt lat="44.39526" lon="0.81084">
        <ele>56.134559631348</ele>
        <time>2019-04-17T21:01:23.016Z</time>
      </trkpt>
      <trkpt lat="44.39499" lon="0.81079">
        <ele>56.782451629639</ele>
        <time>2019-04-17T21:01:24.633Z</time>
      </trkpt>
      <trkpt lat="44.39497" lon="0.81002">
        <ele>57.883781433105</ele>
        <time>2019-04-17T21:01:26.261Z</time>
      </trkpt>
      <trkpt lat="44.39484" lon="0.80991">
        <ele>58.483680725098</ele>
        <time>2019-04-17T21:01:27.892Z</time>
      </trkpt>
      <trkpt lat="44.39517" lon="0.80866">
        <ele>57.175262451172</ele>
        <time>2019-04-17T21:01:29.542Z</time>
      </trkpt>
      <trkpt lat="44.39536" lon="0.80798">
        <ele>56.828578948975</ele>
        <time>2019-04-17T21:01:31.203Z</time>
      </trkpt>
      <trkpt lat="44.39535" lon="0.80748">
        <ele>55.62878036499</ele>
        <time>2019-04-17T21:01:32.871Z</time>
      </trkpt>
      <trkpt lat="44.39548" lon="0.80738">
        <ele>55.395622253418</ele>
        <time>2019-04-17T21:01:34.542Z</time>
      </trkpt>
      <trkpt lat="44.39546" lon="0.8072">
        <ele>55.539596557617</ele>
        <time>2019-04-17T21:01:36.216Z</time>
      </trkpt>
      <trkpt lat="44.39395" lon="0.80715">
        <ele>59.03059387207</ele>
        <time>2019-04-17T21:01:37.920Z</time>
      </trkpt>
      <trkpt lat="44.39382" lon="0.80746">
        <ele>61.265350341797</ele>
        <time>2019-04-17T21:01:39.629Z</time>
      </trkpt>
      <trkpt lat="44.39333" lon="0.80752">
        <ele>63.893955230713</ele>
        <time>2019-04-17T21:01:41.348Z</time>
      </trkpt>
      <trkpt lat="44.39287" lon="0.80756">
        <ele>66.494750976562</ele>
        <time>2019-04-17T21:01:43.076Z</time>
      </trkpt>
      <trkpt lat="44.3925" lon="0.80769">
        <ele>71.677421569824</ele>
        <time>2019-04-17T21:01:44.812Z</time>
      </trkpt>
      <trkpt lat="44.39213" lon="0.80791">
        <ele>76.226531982422</ele>
        <time>2019-04-17T21:01:46.556Z</time>
      </trkpt>
      <trkpt lat="44.39198" lon="0.80816">
        <ele>77.622360229492</ele>
        <time>2019-04-17T21:01:48.304Z</time>
      </trkpt>
      <trkpt lat="44.39196" lon="0.80854">
        <ele>76.374565124512</ele>
        <time>2019-04-17T21:01:50.058Z</time>
      </trkpt>
      <trkpt lat="44.39206" lon="0.80919">
        <ele>76.262680053711</ele>
        <time>2019-04-17T21:01:51.821Z</time>
      </trkpt>
      <trkpt lat="44.39081" lon="0.80984">
        <ele>92.741653442383</ele>
        <time>2019-04-17T21:01:53.611Z</time>
      </trkpt>
      <trkpt lat="44.39048" lon="0.80988">
        <ele>96.137092590332</ele>
        <time>2019-04-17T21:01:55.408Z</time>
      </trkpt>
      <trkpt lat="44.38999" lon="0.80983">
        <ele>97.242034912109</ele>
        <time>2019-04-17T21:01:57.214Z</time>
      </trkpt>
      <trkpt lat="44.3897" lon="0.80992">
        <ele>99.149711608887</ele>
        <time>2019-04-17T21:01:59.026Z</time>
      </trkpt>
      <trkpt lat="44.38931" lon="0.81012">
        <ele>97.730140686035</ele>
        <time>2019-04-17T21:02:00.847Z</time>
      </trkpt>
      <trkpt lat="44.38937" lon="0.81066">
        <ele>103.74808502197</ele>
        <time>2019-04-17T21:02:02.676Z</time>
      </trkpt>
      <trkpt lat="44.38954" lon="0.81113">
        <ele>112.36689758301</ele>
        <time>2019-04-17T21:02:04.512Z</time>
      </trkpt>
      <trkpt lat="44.38956" lon="0.81166">
        <ele>122.30741119385</ele>
        <time>2019-04-17T21:02:06.356Z</time>
      </trkpt>
      <trkpt lat="44.38942" lon="0.81214">
        <ele>131.77946472168</ele>
        <time>2019-04-17T21:02:08.207Z</time>
      </trkpt>
      <trkpt lat="44.38902" lon="0.81263">
        <ele>134.73118591309</ele>
        <time>2019-04-17T21:02:10.069Z</time>
      </trkpt>
      <trkpt lat="44.38874" lon="0.81308">
        <ele>135.76301574707</ele>
        <time>2019-04-17T21:02:11.939Z</time>
      </trkpt>
      <trkpt lat="44.38864" lon="0.81355">
        <ele>139.77264404297</ele>
        <time>2019-04-17T21:02:13.816Z</time>
      </trkpt>
      <trkpt lat="44.38862" lon="0.81412">
        <ele>146.1994934082</ele>
        <time>2019-04-17T21:02:15.702Z</time>
      </trkpt>
      <trkpt lat="44.38861" lon="0.81454">
        <ele>151.02268981934</ele>
        <time>2019-04-17T21:02:17.594Z</time>
      </trkpt>
      <trkpt lat="44.38858" lon="0.81495">
        <ele>153.46871948242</ele>
        <time>2019-04-17T21:02:19.491Z</time>
      </trkpt>
      <trkpt lat="44.38858" lon="0.81528">
        <ele>155.05244445801</ele>
        <time>2019-04-17T21:02:21.393Z</time>
      </trkpt>
      <trkpt lat="44.3885" lon="0.81562">
        <ele>155.47621154785</ele>
        <time>2019-04-17T21:02:23.300Z</time>
      </trkpt>
      <trkpt lat="44.38842" lon="0.81608">
        <ele>156.14810180664</ele>
        <time>2019-04-17T21:02:25.214Z</time>
      </trkpt>
      <trkpt lat="44.38835" lon="0.81644">
        <ele>156.04493713379</ele>
        <time>2019-04-17T21:02:27.133Z</time>
      </trkpt>
      <trkpt lat="44.38832" lon="0.81688">
        <ele>156.48886108398</ele>
        <time>2019-04-17T21:02:29.059Z</time>
      </trkpt>
      <trkpt lat="44.38832" lon="0.81729">
        <ele>156.51606750488</ele>
        <time>2019-04-17T21:02:30.991Z</time>
      </trkpt>
      <trkpt lat="44.38832" lon="0.81782">
        <ele>156.40184020996</ele>
        <time>2019-04-17T21:02:32.930Z</time>
      </trkpt>
      <trkpt lat="44.38829" lon="0.81828">
        <ele>155.13006591797</ele>
        <time>2019-04-17T21:02:34.876Z</time>
      </trkpt>
      <trkpt lat="44.3883" lon="0.81861">
        <ele>155.14619445801</ele>
        <time>2019-04-17T21:02:36.827Z</time>
      </trkpt>
      <trkpt lat="44.38834" lon="0.81898">
        <ele>155.44515991211</ele>
        <time>2019-04-17T21:02:38.783Z</time>
      </trkpt>
      <trkpt lat="44.38849" lon="0.81923">
        <ele>156.2850189209</ele>
        <time>2019-04-17T21:02:40.744Z</time>
      </trkpt>
      <trkpt lat="44.3885" lon="0.81961">
        <ele>153.12893676758</ele>
        <time>2019-04-17T21:02:42.710Z</time>
      </trkpt>
      <trkpt lat="44.38858" lon="0.8198">
        <ele>153.05741882324</ele>
        <time>2019-04-17T21:02:44.679Z</time>
      </trkpt>
      <trkpt lat="44.38881" lon="0.82009">
        <ele>154.24751281738</ele>
        <time>2019-04-17T21:02:46.655Z</time>
      </trkpt>
      <trkpt lat="44.38874" lon="0.82059">
        <ele>147.17799377441</ele>
        <time>2019-04-17T21:02:48.638Z</time>
      </trkpt>
      <trkpt lat="44.38865" lon="0.82092">
        <ele>143.72991943359</ele>
        <time>2019-04-17T21:02:50.626Z</time>
      </trkpt>
      <trkpt lat="44.38847" lon="0.82127">
        <ele>140.06796264648</ele>
        <time>2019-04-17T21:02:52.620Z</time>
      </trkpt>
      <trkpt lat="44.38829" lon="0.82151">
        <ele>138.15676879883</ele>
        <time>2019-04-17T21:02:54.619Z</time>
      </trkpt>
      <trkpt lat="44.38795" lon="0.82182">
        <ele>134.82911682129</ele>
        <time>2019-04-17T21:02:56.626Z</time>
      </trkpt>
      <trkpt lat="44.38756" lon="0.82202">
        <ele>128.45182800293</ele>
        <time>2019-04-17T21:02:58.641Z</time>
      </trkpt>
      <trkpt lat="44.38734" lon="0.82246">
        <ele>126.31674957275</ele>
        <time>2019-04-17T21:03:00.664Z</time>
      </trkpt>
      <trkpt lat="44.38702" lon="0.82335">
        <ele>123.07782745361</ele>
        <time>2019-04-17T21:03:02.701Z</time>
      </trkpt>
      <trkpt lat="44.38693" lon="0.82384">
        <ele>119.72504425049</ele>
        <time>2019-04-17T21:03:04.746Z</time>
      </trkpt>
      <trkpt lat="44.38692" lon="0.82418">
        <ele>120.80175018311</ele>
        <time>2019-04-17T21:03:06.796Z</time>
      </trkpt>
      <trkpt lat="44.38689" lon="0.82462">
        <ele>121.77359008789</ele>
        <time>2019-04-17T21:03:08.852Z</time>
      </trkpt>
      <trkpt lat="44.38682" lon="0.82494">
        <ele>124.43016815186</ele>
        <time>2019-04-17T21:03:10.913Z</time>
      </trkpt>
      <trkpt lat="44.38663" lon="0.82505">
        <ele>123.33834838867</ele>
        <time>2019-04-17T21:03:12.978Z</time>
      </trkpt>
      <trkpt lat="44.38638" lon="0.82509">
        <ele>120.11328887939</ele>
        <time>2019-04-17T21:03:15.048Z</time>
      </trkpt>
      <trkpt lat="44.38609" lon="0.82522">
        <ele>115.95252990723</ele>
        <time>2019-04-17T21:03:17.124Z</time>
      </trkpt>
      <trkpt lat="44.38587" lon="0.82548">
        <ele>113.3087310791</ele>
        <time>2019-04-17T21:03:19.206Z</time>
      </trkpt>
      <trkpt lat="44.3836" lon="0.82824">
        <ele>80.436073303223</ele>
        <time>2019-04-17T21:03:21.348Z</time>
      </trkpt>
      <trkpt lat="44.38334" lon="0.82834">
        <ele>78.444404602051</ele>
        <time>2019-04-17T21:03:23.495Z</time>
      </trkpt>
      <trkpt lat="44.38291" lon="0.82837">
        <ele>75.575950622559</ele>
        <time>2019-04-17T21:03:25.651Z</time>
      </trkpt>
      <trkpt lat="44.38224" lon="0.82829">
        <ele>70.867942810059</ele>
        <time>2019-04-17T21:03:27.820Z</time>
      </trkpt>
      <trkpt lat="44.38153" lon="0.82944">
        <ele>68.797470092773</ele>
        <time>2019-04-17T21:03:30.011Z</time>
      </trkpt>
      <trkpt lat="44.38125" lon="0.82985">
        <ele>68.093124389648</ele>
        <time>2019-04-17T21:03:32.210Z</time>
      </trkpt>
      <trkpt lat="44.38086" lon="0.83">
        <ele>68.010513305664</ele>
        <time>2019-04-17T21:03:34.417Z</time>
      </trkpt>
      <trkpt lat="44.38028" lon="0.83016">
        <ele>68.554710388184</ele>
        <time>2019-04-17T21:03:36.636Z</time>
      </trkpt>
      <trkpt lat="44.37977" lon="0.83031">
        <ele>70.314552307129</ele>
        <time>2019-04-17T21:03:38.866Z</time>
      </trkpt>
      <trkpt lat="44.37933" lon="0.83039">
        <ele>72.882369995117</ele>
        <time>2019-04-17T21:03:41.105Z</time>
      </trkpt>
      <trkpt lat="44.37887" lon="0.83048">
        <ele>76.301803588867</ele>
        <time>2019-04-17T21:03:43.353Z</time>
      </trkpt>
      <trkpt lat="44.37847" lon="0.83046">
        <ele>78.635765075684</ele>
        <time>2019-04-17T21:03:45.609Z</time>
      </trkpt>
      <trkpt lat="44.37799" lon="0.83039">
        <ele>80.363479614258</ele>
        <time>2019-04-17T21:03:47.874Z</time>
      </trkpt>
      <trkpt lat="44.37758" lon="0.83037">
        <ele>81.617042541504</ele>
        <time>2019-04-17T21:03:50.148Z</time>
      </trkpt>
      <trkpt lat="44.37718" lon="0.83046">
        <ele>83.16478729248</ele>
        <time>2019-04-17T21:03:52.430Z</time>
      </trkpt>
      <trkpt lat="44.37681" lon="0.83082">
        <ele>85.132080078125</ele>
        <time>2019-04-17T21:03:54.721Z</time>
      </trkpt>
      <trkpt lat="44.37648" lon="0.8312">
        <ele>86.425399780273</ele>
        <time>2019-04-17T21:03:57.020Z</time>
      </trkpt>
      <trkpt lat="44.37624" lon="0.83154">
        <ele>86.66242980957</ele>
        <time>2019-04-17T21:03:59.326Z</time>
      </trkpt>
      <trkpt lat="44.3759" lon="0.83172">
        <ele>88.477043151855</ele>
        <time>2019-04-17T21:04:01.640Z</time>
      </trkpt>
      <trkpt lat="44.37571" lon="0.83177">
        <ele>89.616851806641</ele>
        <time>2019-04-17T21:04:03.957Z</time>
      </trkpt>
      <trkpt lat="44.37593" lon="0.83216">
        <ele>87.92733001709</ele>
        <time>2019-04-17T21:04:06.281Z</time>
      </trkpt>
      <trkpt lat="44.37598" lon="0.83248">
        <ele>87.598274230957</ele>
        <time>2019-04-17T21:04:08.610Z</time>
      </trkpt>
      <trkpt lat="44.37599" lon="0.83294">
        <ele>87.611000061035</ele>
        <time>2019-04-17T21:04:10.946Z</time>
      </trkpt>
      <trkpt lat="44.37617" lon="0.83359">
        <ele>87.498481750488</ele>
        <time>2019-04-17T21:04:13.292Z</time>
      </trkpt>
      <trkpt lat="44.3762" lon="0.83417">
        <ele>87.469352722168</ele>
        <time>2019-04-17T21:04:15.646Z</time>
      </trkpt>
      <trkpt lat="44.37617" lon="0.83486">
        <ele>86.58455657959</ele>
        <time>2019-04-17T21:04:18.010Z</time>
      </trkpt>
      <trkpt lat="44.37641" lon="0.83489">
        <ele>85.648712158203</ele>
        <time>2019-04-17T21:04:20.379Z</time>
      </trkpt>
      <trkpt lat="44.37671" lon="0.83482">
        <ele>84.736862182617</ele>
        <time>2019-04-17T21:04:22.754Z</time>
      </trkpt>
      <trkpt lat="44.37697" lon="0.83479">
        <ele>83.873008728027</ele>
        <time>2019-04-17T21:04:25.134Z</time>
      </trkpt>
      <trkpt lat="44.37736" lon="0.83481">
        <ele>82.421249389648</ele>
        <time>2019-04-17T21:04:27.522Z</time>
      </trkpt>
      <trkpt lat="44.37763" lon="0.83485">
        <ele>81.35343170166</ele>
        <time>2019-04-17T21:04:29.915Z</time>
      </trkpt>
      <trkpt lat="44.37795" lon="0.835">
        <ele>79.67749786377</ele>
        <time>2019-04-17T21:04:32.315Z</time>
      </trkpt>
      <trkpt lat="44.37791" lon="0.83558">
        <ele>78.448928833008</ele>
        <time>2019-04-17T21:04:34.724Z</time>
      </trkpt>
      <trkpt lat="44.37789" lon="0.83612">
        <ele>77.770172119141</ele>
        <time>2019-04-17T21:04:37.140Z</time>
      </trkpt>
      <trkpt lat="44.37788" lon="0.83646">
        <ele>77.438629150391</ele>
        <time>2019-04-17T21:04:39.561Z</time>
      </trkpt>
      <trkpt lat="44.37778" lon="0.83673">
        <ele>78.03978729248</ele>
        <time>2019-04-17T21:04:41.987Z</time>
      </trkpt>
      <trkpt lat="44.37789" lon="0.83731">
        <ele>77.237983703613</ele>
        <time>2019-04-17T21:04:44.421Z</time>
      </trkpt>
      <trkpt lat="44.37789" lon="0.83781">
        <ele>76.038185119629</ele>
        <time>2019-04-17T21:04:46.862Z</time>
      </trkpt>
      <trkpt lat="44.37788" lon="0.83837">
        <ele>75.463394165039</ele>
        <time>2019-04-17T21:04:49.311Z</time>
      </trkpt>
      <trkpt lat="44.37803" lon="0.83901">
        <ele>74.623748779297</ele>
        <time>2019-04-17T21:04:51.770Z</time>
      </trkpt>
      <trkpt lat="44.37838" lon="0.84026">
        <ele>73.995971679688</ele>
        <time>2019-04-17T21:04:54.248Z</time>
      </trkpt>
      <trkpt lat="44.37841" lon="0.84095">
        <ele>73.283912658691</ele>
        <time>2019-04-17T21:04:56.736Z</time>
      </trkpt>
      <trkpt lat="44.37849" lon="0.84164">
        <ele>73.375854492188</ele>
        <time>2019-04-17T21:04:59.234Z</time>
      </trkpt>
      <trkpt lat="44.3785" lon="0.84244">
        <ele>73.008987426758</ele>
        <time>2019-04-17T21:05:01.744Z</time>
      </trkpt>
      <trkpt lat="44.37852" lon="0.84312">
        <ele>71.303863525391</ele>
        <time>2019-04-17T21:05:04.263Z</time>
      </trkpt>
      <trkpt lat="44.37855" lon="0.84372">
        <ele>71.231872558594</ele>
        <time>2019-04-17T21:05:06.791Z</time>
      </trkpt>
      <trkpt lat="44.37857" lon="0.8443">
        <ele>72.349822998047</ele>
        <time>2019-04-17T21:05:09.327Z</time>
      </trkpt>
      <trkpt lat="44.37842" lon="0.84498">
        <ele>74.631469726562</ele>
        <time>2019-04-17T21:05:11.874Z</time>
      </trkpt>
      <trkpt lat="44.37825" lon="0.84583">
        <ele>74.100914001465</ele>
        <time>2019-04-17T21:05:14.433Z</time>
      </trkpt>
      <trkpt lat="44.37812" lon="0.84646">
        <ele>74.060745239258</ele>
        <time>2019-04-17T21:05:17.002Z</time>
      </trkpt>
      <trkpt lat="44.37793" lon="0.84728">
        <ele>77.572120666504</ele>
        <time>2019-04-17T21:05:19.583Z</time>
      </trkpt>
      <trkpt lat="44.37781" lon="0.84786">
        <ele>80.324844360352</ele>
        <time>2019-04-17T21:05:22.173Z</time>
      </trkpt>
      <trkpt lat="44.37791" lon="0.84797">
        <ele>80.101928710938</ele>
        <time>2019-04-17T21:05:24.765Z</time>
      </trkpt>
      <trkpt lat="44.37678" lon="0.85112">
        <ele>96.392417907715</ele>
        <time>2019-04-17T21:05:27.408Z</time>
      </trkpt>
      <trkpt lat="44.37621" lon="0.851">
        <ele>97.393783569336</ele>
        <time>2019-04-17T21:05:30.062Z</time>
      </trkpt>
      <trkpt lat="44.37556" lon="0.85098">
        <ele>99.604331970215</ele>
        <time>2019-04-17T21:05:32.729Z</time>
      </trkpt>
      <trkpt lat="44.37513" lon="0.85099">
        <ele>100.92082214355</ele>
        <time>2019-04-17T21:05:35.405Z</time>
      </trkpt>
      <trkpt lat="44.37464" lon="0.8511">
        <ele>101.50782012939</ele>
        <time>2019-04-17T21:05:38.091Z</time>
      </trkpt>
      <trkpt lat="44.37417" lon="0.85117">
        <ele>102.64588165283</ele>
        <time>2019-04-17T21:05:40.786Z</time>
      </trkpt>
      <trkpt lat="44.37357" lon="0.85122">
        <ele>104.59459686279</ele>
        <time>2019-04-17T21:05:43.493Z</time>
      </trkpt>
      <trkpt lat="44.37297" lon="0.85135">
        <ele>104.20153045654</ele>
        <time>2019-04-17T21:05:46.212Z</time>
      </trkpt>
      <trkpt lat="44.37301" lon="0.85189">
        <ele>102.44464111328</ele>
        <time>2019-04-17T21:05:48.939Z</time>
      </trkpt>
      <trkpt lat="44.37285" lon="0.85202">
        <ele>101.78475189209</ele>
        <time>2019-04-17T21:05:51.670Z</time>
      </trkpt>
      <trkpt lat="44.37236" lon="0.85188">
        <ele>103.23051452637</ele>
        <time>2019-04-17T21:05:54.411Z</time>
      </trkpt>
      <trkpt lat="44.372" lon="0.85176">
        <ele>103.51846313477</ele>
        <time>2019-04-17T21:05:57.159Z</time>
      </trkpt>
      <trkpt lat="44.37168" lon="0.8516">
        <ele>104.64489746094</ele>
        <time>2019-04-17T21:05:59.914Z</time>
      </trkpt>
      <trkpt lat="44.37123" lon="0.85137">
        <ele>106.44455718994</ele>
        <time>2019-04-17T21:06:02.679Z</time>
      </trkpt>
      <trkpt lat="44.37082" lon="0.8511">
        <ele>109.62350463867</ele>
        <time>2019-04-17T21:06:05.453Z</time>
      </trkpt>
      <trkpt lat="44.37037" lon="0.85056">
        <ele>116.18601989746</ele>
        <time>2019-04-17T21:06:08.239Z</time>
      </trkpt>
      <trkpt lat="44.36998" lon="0.85012">
        <ele>121.91542053223</ele>
        <time>2019-04-17T21:06:11.035Z</time>
      </trkpt>
      <trkpt lat="44.36927" lon="0.8497">
        <ele>128.77096557617</ele>
        <time>2019-04-17T21:06:13.846Z</time>
      </trkpt>
      <trkpt lat="44.36886" lon="0.84943">
        <ele>134.63800048828</ele>
        <time>2019-04-17T21:06:16.666Z</time>
      </trkpt>
      <trkpt lat="44.36853" lon="0.8492">
        <ele>137.56610107422</ele>
        <time>2019-04-17T21:06:19.494Z</time>
      </trkpt>
      <trkpt lat="44.3682" lon="0.84902">
        <ele>136.34230041504</ele>
        <time>2019-04-17T21:06:22.329Z</time>
      </trkpt>
      <trkpt lat="44.36791" lon="0.84934">
        <ele>135.98095703125</ele>
        <time>2019-04-17T21:06:25.171Z</time>
      </trkpt>
      <trkpt lat="44.36764" lon="0.84974">
        <ele>140.36854553223</ele>
        <time>2019-04-17T21:06:28.021Z</time>
      </trkpt>
      <trkpt lat="44.36727" lon="0.85013">
        <ele>142.95976257324</ele>
        <time>2019-04-17T21:06:30.880Z</time>
      </trkpt>
      <trkpt lat="44.36705" lon="0.85026">
        <ele>148.38285827637</ele>
        <time>2019-04-17T21:06:33.744Z</time>
      </trkpt>
      <trkpt lat="44.36679" lon="0.85038">
        <ele>157.24546813965</ele>
        <time>2019-04-17T21:06:36.613Z</time>
      </trkpt>
      <trkpt lat="44.36664" lon="0.85035">
        <ele>162.10466003418</ele>
        <time>2019-04-17T21:06:39.485Z</time>
      </trkpt>
      <trkpt lat="44.36663" lon="0.85003">
        <ele>160.30436706543</ele>
        <time>2019-04-17T21:06:42.362Z</time>
      </trkpt>
      <trkpt lat="44.36646" lon="0.8497">
        <ele>163.57328796387</ele>
        <time>2019-04-17T21:06:45.245Z</time>
      </trkpt>
      <trkpt lat="44.3662" lon="0.84937">
        <ele>166.68077087402</ele>
        <time>2019-04-17T21:06:48.135Z</time>
      </trkpt>
      <trkpt lat="44.36582" lon="0.84913">
        <ele>167.40605163574</ele>
        <time>2019-04-17T21:06:51.033Z</time>
      </trkpt>
      <trkpt lat="44.36548" lon="0.84899">
        <ele>168.14993286133</ele>
        <time>2019-04-17T21:06:53.938Z</time>
      </trkpt>
      <trkpt lat="44.36521" lon="0.84902">
        <ele>171.59954833984</ele>
        <time>2019-04-17T21:06:56.849Z</time>
      </trkpt>
      <trkpt lat="44.36494" lon="0.84936">
        <ele>181.08734130859</ele>
        <time>2019-04-17T21:06:59.767Z</time>
      </trkpt>
      <trkpt lat="44.36458" lon="0.84968">
        <ele>184.73474121094</ele>
        <time>2019-04-17T21:07:02.694Z</time>
      </trkpt>
      <trkpt lat="44.36424" lon="0.84999">
        <ele>195.6339263916</ele>
        <time>2019-04-17T21:07:05.629Z</time>
      </trkpt>
      <trkpt lat="44.36394" lon="0.85019">
        <ele>202.99211120605</ele>
        <time>2019-04-17T21:07:08.570Z</time>
      </trkpt>
      <trkpt lat="44.36355" lon="0.85031">
        <ele>205.45327758789</ele>
        <time>2019-04-17T21:07:11.519Z</time>
      </trkpt>
      <trkpt lat="44.36314" lon="0.85032">
        <ele>209.34295654297</ele>
        <time>2019-04-17T21:07:14.477Z</time>
      </trkpt>
      <trkpt lat="44.36278" lon="0.85011">
        <ele>211.7561340332</ele>
        <time>2019-04-17T21:07:17.442Z</time>
      </trkpt>
      <trkpt lat="44.36229" lon="0.8497">
        <ele>215.96743774414</ele>
        <time>2019-04-17T21:07:20.419Z</time>
      </trkpt>
      <trkpt lat="44.36177" lon="0.85002">
        <ele>219.35388183594</ele>
        <time>2019-04-17T21:07:23.407Z</time>
      </trkpt>
      <trkpt lat="44.36152" lon="0.85016">
        <ele>219.59223937988</ele>
        <time>2019-04-17T21:07:26.401Z</time>
      </trkpt>
      <trkpt lat="44.36128" lon="0.85022">
        <ele>220.02416992188</ele>
        <time>2019-04-17T21:07:29.399Z</time>
      </trkpt>
      <trkpt lat="44.36099" lon="0.8504">
        <ele>220.06632995605</ele>
        <time>2019-04-17T21:07:32.404Z</time>
      </trkpt>
      <trkpt lat="44.36042" lon="0.85081">
        <ele>217.82995605469</ele>
        <time>2019-04-17T21:07:35.422Z</time>
      </trkpt>
      <trkpt lat="44.35986" lon="0.85101">
        <ele>216.70545959473</ele>
        <time>2019-04-17T21:07:38.451Z</time>
      </trkpt>
      <trkpt lat="44.35957" lon="0.85108">
        <ele>217.65330505371</ele>
        <time>2019-04-17T21:07:41.486Z</time>
      </trkpt>
      <trkpt lat="44.35934" lon="0.85118">
        <ele>218.23695373535</ele>
        <time>2019-04-17T21:07:44.526Z</time>
      </trkpt>
      <trkpt lat="44.35912" lon="0.85136">
        <ele>218.88484191895</ele>
        <time>2019-04-17T21:07:47.571Z</time>
      </trkpt>
      <trkpt lat="44.35899" lon="0.85137">
        <ele>218.92083740234</ele>
        <time>2019-04-17T21:07:50.619Z</time>
      </trkpt>
      <trkpt lat="44.35879" lon="0.85111">
        <ele>217.98500061035</ele>
        <time>2019-04-17T21:07:53.672Z</time>
      </trkpt>
      <trkpt lat="44.35856" lon="0.85074">
        <ele>216.95303344727</ele>
        <time>2019-04-17T21:07:56.732Z</time>
      </trkpt>
      <trkpt lat="44.35828" lon="0.85038">
        <ele>216.4508972168</ele>
        <time>2019-04-17T21:07:59.800Z</time>
      </trkpt>
      <trkpt lat="44.35793" lon="0.8507">
        <ele>219</ele>
        <time>2019-04-17T21:08:02.876Z</time>
      </trkpt>
      <trkpt lat="44.35761" lon="0.85104">
        <ele>218.76025390625</ele>
        <time>2019-04-17T21:08:05.960Z</time>
      </trkpt>
      <trkpt lat="44.35731" lon="0.85149">
        <ele>218.64723205566</ele>
        <time>2019-04-17T21:08:09.053Z</time>
      </trkpt>
      <trkpt lat="44.357" lon="0.85198">
        <ele>218.23776245117</ele>
        <time>2019-04-17T21:08:12.155Z</time>
      </trkpt>
      <trkpt lat="44.35663" lon="0.85246">
        <ele>218.13415527344</ele>
        <time>2019-04-17T21:08:15.267Z</time>
      </trkpt>
      <trkpt lat="44.35636" lon="0.85314">
        <ele>219.12124633789</ele>
        <time>2019-04-17T21:08:18.391Z</time>
      </trkpt>
      <trkpt lat="44.35609" lon="0.85361">
        <ele>218.67767333984</ele>
        <time>2019-04-17T21:08:21.523Z</time>
      </trkpt>
      <trkpt lat="44.35582" lon="0.85391">
        <ele>218.34518432617</ele>
        <time>2019-04-17T21:08:24.662Z</time>
      </trkpt>
      <trkpt lat="44.35531" lon="0.85435">
        <ele>218.44956970215</ele>
        <time>2019-04-17T21:08:27.813Z</time>
      </trkpt>
      <trkpt lat="44.355" lon="0.85483">
        <ele>218</ele>
        <time>2019-04-17T21:08:30.973Z</time>
      </trkpt>
      <trkpt lat="44.35475" lon="0.85538">
        <ele>218.45599365234</ele>
        <time>2019-04-17T21:08:34.143Z</time>
      </trkpt>
      <trkpt lat="44.35443" lon="0.85594">
        <ele>219.40158081055</ele>
        <time>2019-04-17T21:08:37.323Z</time>
      </trkpt>
      <trkpt lat="44.35394" lon="0.85698">
        <ele>220.35697937012</ele>
        <time>2019-04-17T21:08:40.521Z</time>
      </trkpt>
      <trkpt lat="44.35357" lon="0.85793">
        <ele>219.06875610352</ele>
        <time>2019-04-17T21:08:43.734Z</time>
      </trkpt>
      <trkpt lat="44.3534" lon="0.85889">
        <ele>218.13116455078</ele>
        <time>2019-04-17T21:08:46.962Z</time>
      </trkpt>
      <trkpt lat="44.3534" lon="0.85919">
        <ele>217.4151763916</ele>
        <time>2019-04-17T21:08:50.194Z</time>
      </trkpt>
      <trkpt lat="44.35381" lon="0.85968">
        <ele>216.71008300781</ele>
        <time>2019-04-17T21:08:53.437Z</time>
      </trkpt>
      <trkpt lat="44.3542" lon="0.86042">
        <ele>214.32427978516</ele>
        <time>2019-04-17T21:08:56.693Z</time>
      </trkpt>
      <trkpt lat="44.35457" lon="0.86103">
        <ele>211.98489379883</ele>
        <time>2019-04-17T21:08:59.960Z</time>
      </trkpt>
      <trkpt lat="44.35491" lon="0.86173">
        <ele>209.91683959961</ele>
        <time>2019-04-17T21:09:03.239Z</time>
      </trkpt>
      <trkpt lat="44.35517" lon="0.86218">
        <ele>208.66905212402</ele>
        <time>2019-04-17T21:09:06.527Z</time>
      </trkpt>
      <trkpt lat="44.35535" lon="0.86245">
        <ele>208.26739501953</ele>
        <time>2019-04-17T21:09:09.820Z</time>
      </trkpt>
      <trkpt lat="44.35339" lon="0.86739">
        <ele>222.12571716309</ele>
        <time>2019-04-17T21:09:13.194Z</time>
      </trkpt>
      <trkpt lat="44.35307" lon="0.86799">
        <ele>223.20677185059</ele>
        <time>2019-04-17T21:09:16.579Z</time>
      </trkpt>
      <trkpt lat="44.3517" lon="0.8704">
        <ele>223.7106628418</ele>
        <time>2019-04-17T21:09:20.008Z</time>
      </trkpt>
      <trkpt lat="44.35206" lon="0.8706">
        <ele>221.60438537598</ele>
        <time>2019-04-17T21:09:23.445Z</time>
      </trkpt>
      <trkpt lat="44.35244" lon="0.87102">
        <ele>219.2287902832</ele>
        <time>2019-04-17T21:09:26.891Z</time>
      </trkpt>
      <trkpt lat="44.35283" lon="0.87147">
        <ele>216.49887084961</ele>
        <time>2019-04-17T21:09:30.347Z</time>
      </trkpt>
      <trkpt lat="44.35322" lon="0.872">
        <ele>214.38722229004</ele>
        <time>2019-04-17T21:09:33.814Z</time>
      </trkpt>
      <trkpt lat="44.35265" lon="0.87284">
        <ele>202.66680908203</ele>
        <time>2019-04-17T21:09:37.298Z</time>
      </trkpt>
      <trkpt lat="44.35239" lon="0.87295">
        <ele>204.29106140137</ele>
        <time>2019-04-17T21:09:40.787Z</time>
      </trkpt>
      <trkpt lat="44.35211" lon="0.87306">
        <ele>206.71466064453</ele>
        <time>2019-04-17T21:09:44.282Z</time>
      </trkpt>
      <trkpt lat="44.35194" lon="0.87342">
        <ele>207.91172790527</ele>
        <time>2019-04-17T21:09:47.783Z</time>
      </trkpt>
      <trkpt lat="44.35183" lon="0.87398">
        <ele>207.53285217285</ele>
        <time>2019-04-17T21:09:51.293Z</time>
      </trkpt>
      <trkpt lat="44.35174" lon="0.87432">
        <ele>203.71748352051</ele>
        <time>2019-04-17T21:09:54.808Z</time>
      </trkpt>
      <trkpt lat="44.35151" lon="0.87458">
        <ele>204.25166320801</ele>
        <time>2019-04-17T21:09:58.329Z</time>
      </trkpt>
      <trkpt lat="44.35111" lon="0.87492">
        <ele>207.89573669434</ele>
        <time>2019-04-17T21:10:01.859Z</time>
      </trkpt>
      <trkpt lat="44.35074" lon="0.87545">
        <ele>207.88220214844</ele>
        <time>2019-04-17T21:10:05.400Z</time>
      </trkpt>
      <trkpt lat="44.35056" lon="0.876">
        <ele>210.71473693848</ele>
        <time>2019-04-17T21:10:08.950Z</time>
      </trkpt>
      <trkpt lat="44.35053" lon="0.87634">
        <ele>211.33862304688</ele>
        <time>2019-04-17T21:10:12.504Z</time>
      </trkpt>
      <trkpt lat="44.35059" lon="0.87669">
        <ele>211.69407653809</ele>
        <time>2019-04-17T21:10:16.064Z</time>
      </trkpt>
      <trkpt lat="44.35079" lon="0.87703">
        <ele>211.23815917969</ele>
        <time>2019-04-17T21:10:19.630Z</time>
      </trkpt>
      <trkpt lat="44.35096" lon="0.87732">
        <ele>210.52894592285</ele>
        <time>2019-04-17T21:10:23.201Z</time>
      </trkpt>
      <trkpt lat="44.35097" lon="0.87768">
        <ele>210.44496154785</ele>
        <time>2019-04-17T21:10:26.777Z</time>
      </trkpt>
      <trkpt lat="44.35098" lon="0.87812">
        <ele>211.09114074707</ele>
        <time>2019-04-17T21:10:30.360Z</time>
      </trkpt>
      <trkpt lat="44.35107" lon="0.87854">
        <ele>212.63888549805</ele>
        <time>2019-04-17T21:10:33.949Z</time>
      </trkpt>
      <trkpt lat="44.35135" lon="0.87878">
        <ele>211.80364990234</ele>
        <time>2019-04-17T21:10:37.545Z</time>
      </trkpt>
      <trkpt lat="44.35172" lon="0.87925">
        <ele>210.68751525879</ele>
        <time>2019-04-17T21:10:41.151Z</time>
      </trkpt>
      <trkpt lat="44.35197" lon="0.87948">
        <ele>209.4397277832</ele>
        <time>2019-04-17T21:10:44.763Z</time>
      </trkpt>
      <trkpt lat="44.35206" lon="0.87974">
        <ele>208.44378662109</ele>
        <time>2019-04-17T21:10:48.379Z</time>
      </trkpt>
      <trkpt lat="44.3518" lon="0.88026">
        <ele>210.41304016113</ele>
        <time>2019-04-17T21:10:52.004Z</time>
      </trkpt>
      <trkpt lat="44.35161" lon="0.88066">
        <ele>212.93981933594</ele>
        <time>2019-04-17T21:10:55.636Z</time>
      </trkpt>
      <trkpt lat="44.35147" lon="0.88123">
        <ele>213.84674072266</ele>
        <time>2019-04-17T21:10:59.276Z</time>
      </trkpt>
      <trkpt lat="44.35167" lon="0.8817">
        <ele>213.38368225098</ele>
        <time>2019-04-17T21:11:02.924Z</time>
      </trkpt>
      <trkpt lat="44.35206" lon="0.88184">
        <ele>211.65759277344</ele>
        <time>2019-04-17T21:11:06.580Z</time>
      </trkpt>
      <trkpt lat="44.35233" lon="0.88186">
        <ele>211.77757263184</ele>
        <time>2019-04-17T21:11:10.242Z</time>
      </trkpt>
      <trkpt lat="44.35258" lon="0.88201">
        <ele>212.67742919922</ele>
        <time>2019-04-17T21:11:13.909Z</time>
      </trkpt>
      <trkpt lat="44.35273" lon="0.88213">
        <ele>213.29425048828</ele>
        <time>2019-04-17T21:11:17.580Z</time>
      </trkpt>
      <trkpt lat="44.35317" lon="0.88221">
        <ele>212.91273498535</ele>
        <time>2019-04-17T21:11:21.260Z</time>
      </trkpt>
      <trkpt lat="44.35328" lon="0.88227">
        <ele>212.91720581055</ele>
        <time>2019-04-17T21:11:24.942Z</time>
      </trkpt>
      <trkpt lat="44.35363" lon="0.88243">
        <ele>212.26931762695</ele>
        <time>2019-04-17T21:11:28.631Z</time>
      </trkpt>
      <trkpt lat="44.35386" lon="0.88261">
        <ele>211.67236328125</ele>
        <time>2019-04-17T21:11:32.326Z</time>
      </trkpt>
      <trkpt lat="44.35403" lon="0.88272">
        <ele>211.19244384766</ele>
        <time>2019-04-17T21:11:36.024Z</time>
      </trkpt>
      <trkpt lat="44.35428" lon="0.88266">
        <ele>210.22061157227</ele>
        <time>2019-04-17T21:11:39.727Z</time>
      </trkpt>
      <trkpt lat="44.35442" lon="0.88282">
        <ele>209.90866088867</ele>
        <time>2019-04-17T21:11:43.434Z</time>
      </trkpt>
      <trkpt lat="44.35454" lon="0.88303">
        <ele>208.96005249023</ele>
        <time>2019-04-17T21:11:47.145Z</time>
      </trkpt>
      <trkpt lat="44.35448" lon="0.88322">
        <ele>208.5869140625</ele>
        <time>2019-04-17T21:11:50.859Z</time>
      </trkpt>
      <trkpt lat="44.35422" lon="0.88328">
        <ele>209.10659790039</ele>
        <time>2019-04-17T21:11:54.578Z</time>
      </trkpt>
      <trkpt lat="44.35389" lon="0.8835">
        <ele>209.12528991699</ele>
        <time>2019-04-17T21:11:58.304Z</time>
      </trkpt>
      <trkpt lat="44.35362" lon="0.8839">
        <ele>209.13787841797</ele>
        <time>2019-04-17T21:12:02.038Z</time>
      </trkpt>
      <trkpt lat="44.35338" lon="0.88418">
        <ele>210.91357421875</ele>
        <time>2019-04-17T21:12:05.779Z</time>
      </trkpt>
      <trkpt lat="44.35322" lon="0.88435">
        <ele>211.92770385742</ele>
        <time>2019-04-17T21:12:09.524Z</time>
      </trkpt>
      <trkpt lat="44.35327" lon="0.88478">
        <ele>210.89376831055</ele>
        <time>2019-04-17T21:12:13.275Z</time>
      </trkpt>
      <trkpt lat="44.35335" lon="0.88512">
        <ele>210.70179748535</ele>
        <time>2019-04-17T21:12:17.031Z</time>
      </trkpt>
      <trkpt lat="44.35308" lon="0.88559">
        <ele>211.0419921875</ele>
        <time>2019-04-17T21:12:20.796Z</time>
      </trkpt>
      <trkpt lat="44.35297" lon="0.88564">
        <ele>210.70603942871</ele>
        <time>2019-04-17T21:12:24.563Z</time>
      </trkpt>
      <trkpt lat="44.35286" lon="0.88564">
        <ele>211.11779785156</ele>
        <time>2019-04-17T21:12:28.332Z</time>
      </trkpt>
      <trkpt lat="44.35261" lon="0.88546">
        <ele>212.9666595459</ele>
        <time>2019-04-17T21:12:32.107Z</time>
      </trkpt>
      <trkpt lat="44.35231" lon="0.88518">
        <ele>214.71836853027</ele>
        <time>2019-04-17T21:12:35.889Z</time>
      </trkpt>
      <trkpt lat="44.35195" lon="0.88497">
        <ele>216.60992431641</ele>
        <time>2019-04-17T21:12:39.679Z</time>
      </trkpt>
      <trkpt lat="44.35143" lon="0.88461">
        <ele>221.0721282959</ele>
        <time>2019-04-17T21:12:43.480Z</time>
      </trkpt>
      <trkpt lat="44.35091" lon="0.88422">
        <ele>225.00500488281</ele>
        <time>2019-04-17T21:12:47.293Z</time>
      </trkpt>
      <trkpt lat="44.35023" lon="0.8838">
        <ele>228.88313293457</ele>
        <time>2019-04-17T21:12:51.121Z</time>
      </trkpt>
      <trkpt lat="44.34964" lon="0.8835">
        <ele>228.84852600098</ele>
        <time>2019-04-17T21:12:54.962Z</time>
      </trkpt>
      <trkpt lat="44.34882" lon="0.88314">
        <ele>225.82453918457</ele>
        <time>2019-04-17T21:12:58.820Z</time>
      </trkpt>
      <trkpt lat="44.34837" lon="0.88441">
        <ele>228.86730957031</ele>
        <time>2019-04-17T21:13:02.698Z</time>
      </trkpt>
      <trkpt lat="44.34809" lon="0.88535">
        <ele>227.27163696289</ele>
        <time>2019-04-17T21:13:06.591Z</time>
      </trkpt>
      <trkpt lat="44.34899" lon="0.88727">
        <ele>226.23223876953</ele>
        <time>2019-04-17T21:13:10.517Z</time>
      </trkpt>
      <trkpt lat="44.34888" lon="0.88772">
        <ele>225.44236755371</ele>
        <time>2019-04-17T21:13:14.449Z</time>
      </trkpt>
      <trkpt lat="44.34871" lon="0.88781">
        <ele>226.3662109375</ele>
        <time>2019-04-17T21:13:18.385Z</time>
      </trkpt>
      <trkpt lat="44.34848" lon="0.88811">
        <ele>226.66641235352</ele>
        <time>2019-04-17T21:13:22.327Z</time>
      </trkpt>
      <trkpt lat="44.34678" lon="0.88746">
        <ele>222.54879760742</ele>
        <time>2019-04-17T21:13:26.305Z</time>
      </trkpt>
      <trkpt lat="44.34676" lon="0.88805">
        <ele>224.20442199707</ele>
        <time>2019-04-17T21:13:30.291Z</time>
      </trkpt>
      <trkpt lat="44.34662" lon="0.88921">
        <ele>227.77284240723</ele>
        <time>2019-04-17T21:13:34.294Z</time>
      </trkpt>
      <trkpt lat="44.34643" lon="0.88994">
        <ele>229.65351867676</ele>
        <time>2019-04-17T21:13:38.308Z</time>
      </trkpt>
      <trkpt lat="44.34638" lon="0.8906">
        <ele>231.18228149414</ele>
        <time>2019-04-17T21:13:42.332Z</time>
      </trkpt>
      <trkpt lat="44.34641" lon="0.89124">
        <ele>232.32933044434</ele>
        <time>2019-04-17T21:13:46.365Z</time>
      </trkpt>
      <trkpt lat="44.34636" lon="0.89193">
        <ele>232.27500915527</ele>
        <time>2019-04-17T21:13:50.408Z</time>
      </trkpt>
      <trkpt lat="44.3462" lon="0.89272">
        <ele>232.46812438965</ele>
        <time>2019-04-17T21:13:54.463Z</time>
      </trkpt>
      <trkpt lat="44.34603" lon="0.89346">
        <ele>230.2406463623</ele>
        <time>2019-04-17T21:13:58.529Z</time>
      </trkpt>
      <trkpt lat="44.34606" lon="0.8941">
        <ele>226.55358886719</ele>
        <time>2019-04-17T21:14:02.604Z</time>
      </trkpt>
      <trkpt lat="44.34608" lon="0.89448">
        <ele>223.81803894043</ele>
        <time>2019-04-17T21:14:06.684Z</time>
      </trkpt>
      <trkpt lat="44.34616" lon="0.89541">
        <ele>219.47142028809</ele>
        <time>2019-04-17T21:14:10.778Z</time>
      </trkpt>
      <trkpt lat="44.3463" lon="0.89599">
        <ele>217.28341674805</ele>
        <time>2019-04-17T21:14:14.881Z</time>
      </trkpt>
      <trkpt lat="44.34639" lon="0.89666">
        <ele>215.9296875</ele>
        <time>2019-04-17T21:14:18.993Z</time>
      </trkpt>
      <trkpt lat="44.34637" lon="0.89712">
        <ele>213.05015563965</ele>
        <time>2019-04-17T21:14:23.112Z</time>
      </trkpt>
      <trkpt lat="44.34639" lon="0.89747">
        <ele>211.35488891602</ele>
        <time>2019-04-17T21:14:27.236Z</time>
      </trkpt>
      <trkpt lat="44.34636" lon="0.89799">
        <ele>206.74195861816</ele>
        <time>2019-04-17T21:14:31.368Z</time>
      </trkpt>
      <trkpt lat="44.34643" lon="0.89828">
        <ele>206.77188110352</ele>
        <time>2019-04-17T21:14:35.504Z</time>
      </trkpt>
      <trkpt lat="44.34644" lon="0.89847">
        <ele>206.11360168457</ele>
        <time>2019-04-17T21:14:39.643Z</time>
      </trkpt>
      <trkpt lat="44.34647" lon="0.89888">
        <ele>203.66600036621</ele>
        <time>2019-04-17T21:14:43.788Z</time>
      </trkpt>
      <trkpt lat="44.3465" lon="0.89933">
        <ele>203.42501831055</ele>
        <time>2019-04-17T21:14:47.939Z</time>
      </trkpt>
      <trkpt lat="44.34659" lon="0.8999">
        <ele>204.27670288086</ele>
        <time>2019-04-17T21:14:52.099Z</time>
      </trkpt>
      <trkpt lat="44.34677" lon="0.90058">
        <ele>208.36357116699</ele>
        <time>2019-04-17T21:14:56.269Z</time>
      </trkpt>
      <trkpt lat="44.34704" lon="0.90125">
        <ele>214.77236938477</ele>
        <time>2019-04-17T21:15:00.450Z</time>
      </trkpt>
      <trkpt lat="44.34713" lon="0.9017">
        <ele>216.65081787109</ele>
        <time>2019-04-17T21:15:04.638Z</time>
      </trkpt>
      <trkpt lat="44.34704" lon="0.90203">
        <ele>216.90278625488</ele>
        <time>2019-04-17T21:15:08.831Z</time>
      </trkpt>
      <trkpt lat="44.34709" lon="0.90242">
        <ele>218.00022888184</ele>
        <time>2019-04-17T21:15:13.029Z</time>
      </trkpt>
      <trkpt lat="44.34741" lon="0.90271">
        <ele>220.2318572998</ele>
        <time>2019-04-17T21:15:17.235Z</time>
      </trkpt>
      <trkpt lat="44.34783" lon="0.90299">
        <ele>222.93350219727</ele>
        <time>2019-04-17T21:15:21.450Z</time>
      </trkpt>
      <trkpt lat="44.34827" lon="0.9033">
        <ele>224.1125793457</ele>
        <time>2019-04-17T21:15:25.675Z</time>
      </trkpt>
      <trkpt lat="44.34852" lon="0.90371">
        <ele>225.39636230469</ele>
        <time>2019-04-17T21:15:29.908Z</time>
      </trkpt>
      <trkpt lat="44.34865" lon="0.90424">
        <ele>225.97991943359</ele>
        <time>2019-04-17T21:15:34.149Z</time>
      </trkpt>
      <trkpt lat="44.34871" lon="0.90506">
        <ele>225.30027770996</ele>
        <time>2019-04-17T21:15:38.402Z</time>
      </trkpt>
      <trkpt lat="44.34876" lon="0.90545">
        <ele>224.42442321777</ele>
        <time>2019-04-17T21:15:42.661Z</time>
      </trkpt>
      <trkpt lat="44.34896" lon="0.90617">
        <ele>224.80526733398</ele>
        <time>2019-04-17T21:15:46.931Z</time>
      </trkpt>
      <trkpt lat="44.34921" lon="0.90693">
        <ele>225.09321594238</ele>
        <time>2019-04-17T21:15:51.213Z</time>
      </trkpt>
      <trkpt lat="44.34934" lon="0.90737">
        <ele>225.18856811523</ele>
        <time>2019-04-17T21:15:55.501Z</time>
      </trkpt>
      <trkpt lat="44.34937" lon="0.9078">
        <ele>223.71281433105</ele>
        <time>2019-04-17T21:15:59.796Z</time>
      </trkpt>
      <trkpt lat="44.34942" lon="0.90824">
        <ele>222.59541320801</ele>
        <time>2019-04-17T21:16:04.097Z</time>
      </trkpt>
      <trkpt lat="44.3495" lon="0.90872">
        <ele>222.18798828125</ele>
        <time>2019-04-17T21:16:08.405Z</time>
      </trkpt>
      <trkpt lat="44.34952" lon="0.90934">
        <ele>221.42010498047</ele>
        <time>2019-04-17T21:16:12.722Z</time>
      </trkpt>
      <trkpt lat="44.34946" lon="0.91028">
        <ele>221.56323242188</ele>
        <time>2019-04-17T21:16:17.053Z</time>
      </trkpt>
      <trkpt lat="44.34932" lon="0.91108">
        <ele>220.64195251465</ele>
        <time>2019-04-17T21:16:21.395Z</time>
      </trkpt>
      <trkpt lat="44.34923" lon="0.91177">
        <ele>222.17799377441</ele>
        <time>2019-04-17T21:16:25.747Z</time>
      </trkpt>
      <trkpt lat="44.34911" lon="0.91278">
        <ele>225.42308044434</ele>
        <time>2019-04-17T21:16:30.114Z</time>
      </trkpt>
      <trkpt lat="44.34901" lon="0.91377">
        <ele>227.84931945801</ele>
        <time>2019-04-17T21:16:34.495Z</time>
      </trkpt>
      <trkpt lat="44.34896" lon="0.91443">
        <ele>226.74897766113</ele>
        <time>2019-04-17T21:16:38.886Z</time>
      </trkpt>
      <trkpt lat="44.3489" lon="0.9149">
        <ele>225.91616821289</ele>
        <time>2019-04-17T21:16:43.284Z</time>
      </trkpt>
      <trkpt lat="44.34893" lon="0.91534">
        <ele>224.51750183105</ele>
        <time>2019-04-17T21:16:47.688Z</time>
      </trkpt>
      <trkpt lat="44.34903" lon="0.91584">
        <ele>223.60720825195</ele>
        <time>2019-04-17T21:16:52.100Z</time>
      </trkpt>
      <trkpt lat="44.34924" lon="0.91652">
        <ele>223.15376281738</ele>
        <time>2019-04-17T21:16:56.522Z</time>
      </trkpt>
      <trkpt lat="44.34925" lon="0.91699">
        <ele>223.18975830078</ele>
        <time>2019-04-17T21:17:00.951Z</time>
      </trkpt>
      <trkpt lat="44.34911" lon="0.91749">
        <ele>222.38145446777</ele>
        <time>2019-04-17T21:17:05.388Z</time>
      </trkpt>
      <trkpt lat="44.34906" lon="0.91811">
        <ele>222.35716247559</ele>
        <time>2019-04-17T21:17:09.834Z</time>
      </trkpt>
      <trkpt lat="44.34908" lon="0.91915">
        <ele>220.65202331543</ele>
        <time>2019-04-17T21:17:14.295Z</time>
      </trkpt>
      <trkpt lat="44.34903" lon="0.92024">
        <ele>220.60383605957</ele>
        <time>2019-04-17T21:17:18.771Z</time>
      </trkpt>
      <trkpt lat="44.34884" lon="0.9218">
        <ele>225.42611694336</ele>
        <time>2019-04-17T21:17:23.270Z</time>
      </trkpt>
      <trkpt lat="44.34878" lon="0.92215">
        <ele>227.24980163574</ele>
        <time>2019-04-17T21:17:27.774Z</time>
      </trkpt>
      <trkpt lat="44.34915" lon="0.92236">
        <ele>227.07495117188</ele>
        <time>2019-04-17T21:17:32.286Z</time>
      </trkpt>
      <trkpt lat="44.34951" lon="0.92228">
        <ele>225.80978393555</ele>
        <time>2019-04-17T21:17:36.805Z</time>
      </trkpt>
      <trkpt lat="44.34982" lon="0.92218">
        <ele>224.55293273926</ele>
        <time>2019-04-17T21:17:41.331Z</time>
      </trkpt>
      <trkpt lat="44.34998" lon="0.92241">
        <ele>223.7678527832</ele>
        <time>2019-04-17T21:17:45.861Z</time>
      </trkpt>
      <trkpt lat="44.34998" lon="0.9231">
        <ele>223.65376281738</ele>
        <time>2019-04-17T21:17:50.401Z</time>
      </trkpt>
      <trkpt lat="44.35002" lon="0.92367">
        <ele>221.26615905762</ele>
        <time>2019-04-17T21:17:54.950Z</time>
      </trkpt>
      <trkpt lat="44.35002" lon="0.9244">
        <ele>218.63859558105</ele>
        <time>2019-04-17T21:17:59.509Z</time>
      </trkpt>
      <trkpt lat="44.35004" lon="0.92483">
        <ele>217.79974365234</ele>
        <time>2019-04-17T21:18:04.074Z</time>
      </trkpt>
      <trkpt lat="44.35018" lon="0.92513">
        <ele>217.17584228516</ele>
        <time>2019-04-17T21:18:08.644Z</time>
      </trkpt>
      <trkpt lat="44.3504" lon="0.92538">
        <ele>216.54162597656</ele>
        <time>2019-04-17T21:18:13.220Z</time>
      </trkpt>
      <trkpt lat="44.35037" lon="0.92573">
        <ele>217.73262023926</ele>
        <time>2019-04-17T21:18:17.801Z</time>
      </trkpt>
      <trkpt lat="44.35037" lon="0.92601">
        <ele>219.41233825684</ele>
        <time>2019-04-17T21:18:22.386Z</time>
      </trkpt>
      <trkpt lat="44.35051" lon="0.92633">
        <ele>220.82810974121</ele>
        <time>2019-04-17T21:18:26.976Z</time>
      </trkpt>
      <trkpt lat="44.35055" lon="0.92677">
        <ele>222.14888000488</ele>
        <time>2019-04-17T21:18:31.573Z</time>
      </trkpt>
      <trkpt lat="44.35056" lon="0.92752">
        <ele>223.71350097656</ele>
        <time>2019-04-17T21:18:36.181Z</time>
      </trkpt>
      <trkpt lat="44.35059" lon="0.92791">
        <ele>225.08126831055</ele>
        <time>2019-04-17T21:18:40.794Z</time>
      </trkpt>
      <trkpt lat="44.35069" lon="0.92837">
        <ele>227.69166564941</ele>
        <time>2019-04-17T21:18:45.414Z</time>
      </trkpt>
      <trkpt lat="44.35084" lon="0.92965">
        <ele>232.55041503906</ele>
        <time>2019-04-17T21:18:50.053Z</time>
      </trkpt>
      <trkpt lat="44.35109" lon="0.93152">
        <ele>229.6750793457</ele>
        <time>2019-04-17T21:18:54.719Z</time>
      </trkpt>
      <trkpt lat="44.35303" lon="0.92897">
        <ele>237.03715515137</ele>
        <time>2019-04-17T21:18:59.438Z</time>
      </trkpt>
      <trkpt lat="44.35303" lon="0.92897">
        <ele>237.03088378906</ele>
        <time>2019-04-17T21:19:04.157Z</time>
      </trkpt>
      <trkpt lat="44.35322" lon="0.92888">
        <ele>237.37358093262</ele>
        <time>2019-04-17T21:19:08.880Z</time>
      </trkpt>
      <trkpt lat="44.35364" lon="0.92952">
        <ele>235.78308105469</ele>
        <time>2019-04-17T21:19:13.616Z</time>
      </trkpt>
      <trkpt lat="44.35403" lon="0.93022">
        <ele>231.1674041748</ele>
        <time>2019-04-17T21:19:18.365Z</time>
      </trkpt>
      <trkpt lat="44.35446" lon="0.93086">
        <ele>227.13385009766</ele>
        <time>2019-04-17T21:19:23.126Z</time>
      </trkpt>
      <trkpt lat="44.35495" lon="0.93146">
        <ele>225.05285644531</ele>
        <time>2019-04-17T21:19:27.900Z</time>
      </trkpt>
      <trkpt lat="44.35542" lon="0.93173">
        <ele>224.54965209961</ele>
        <time>2019-04-17T21:19:32.684Z</time>
      </trkpt>
      <trkpt lat="44.35586" lon="0.93197">
        <ele>224.4056854248</ele>
        <time>2019-04-17T21:19:37.478Z</time>
      </trkpt>
      <trkpt lat="44.35637" lon="0.93245">
        <ele>225.46859741211</ele>
        <time>2019-04-17T21:19:42.284Z</time>
      </trkpt>
      <trkpt lat="44.35667" lon="0.93278">
        <ele>226.29866027832</ele>
        <time>2019-04-17T21:19:47.098Z</time>
      </trkpt>
      <trkpt lat="44.35708" lon="0.9332">
        <ele>227.97727966309</ele>
        <time>2019-04-17T21:19:51.922Z</time>
      </trkpt>
      <trkpt lat="44.35743" lon="0.93329">
        <ele>229.69960021973</ele>
        <time>2019-04-17T21:19:56.753Z</time>
      </trkpt>
      <trkpt lat="44.35764" lon="0.9335">
        <ele>231.2113494873</ele>
        <time>2019-04-17T21:20:01.589Z</time>
      </trkpt>
      <trkpt lat="44.35806" lon="0.93378">
        <ele>231.19746398926</ele>
        <time>2019-04-17T21:20:06.435Z</time>
      </trkpt>
      <trkpt lat="44.3585" lon="0.93424">
        <ele>227.6565246582</ele>
        <time>2019-04-17T21:20:11.292Z</time>
      </trkpt>
      <trkpt lat="44.35875" lon="0.93494">
        <ele>225.72270202637</ele>
        <time>2019-04-17T21:20:16.160Z</time>
      </trkpt>
      <trkpt lat="44.35888" lon="0.93529">
        <ele>226.98249816895</ele>
        <time>2019-04-17T21:20:21.033Z</time>
      </trkpt>
      <trkpt lat="44.35924" lon="0.93564">
        <ele>228.56533813477</ele>
        <time>2019-04-17T21:20:25.915Z</time>
      </trkpt>
      <trkpt lat="44.35964" lon="0.936">
        <ele>231.19714355469</ele>
        <time>2019-04-17T21:20:30.807Z</time>
      </trkpt>
      <trkpt lat="44.35992" lon="0.93609">
        <ele>231.28112792969</ele>
        <time>2019-04-17T21:20:35.704Z</time>
      </trkpt>
      <trkpt lat="44.36048" lon="0.93611">
        <ele>229.94926452637</ele>
        <time>2019-04-17T21:20:40.613Z</time>
      </trkpt>
      <trkpt lat="44.36107" lon="0.93611">
        <ele>224.81999206543</ele>
        <time>2019-04-17T21:20:45.533Z</time>
      </trkpt>
      <trkpt lat="44.36135" lon="0.93654">
        <ele>224.65232849121</ele>
        <time>2019-04-17T21:20:50.462Z</time>
      </trkpt>
      <trkpt lat="44.36185" lon="0.9365">
        <ele>222.06076049805</ele>
        <time>2019-04-17T21:20:55.401Z</time>
      </trkpt>
      <trkpt lat="44.36214" lon="0.93661">
        <ele>220.41552734375</ele>
        <time>2019-04-17T21:21:00.346Z</time>
      </trkpt>
      <trkpt lat="44.36241" lon="0.93684">
        <ele>218.92776489258</ele>
        <time>2019-04-17T21:21:05.297Z</time>
      </trkpt>
      <trkpt lat="44.36264" lon="0.93716">
        <ele>218.25588989258</ele>
        <time>2019-04-17T21:21:10.255Z</time>
      </trkpt>
      <trkpt lat="44.36274" lon="0.93762">
        <ele>219.04730224609</ele>
        <time>2019-04-17T21:21:15.220Z</time>
      </trkpt>
      <trkpt lat="44.36307" lon="0.93768">
        <ele>216.09579467773</ele>
        <time>2019-04-17T21:21:20.191Z</time>
      </trkpt>
      <trkpt lat="44.36363" lon="0.93751">
        <ele>200.2289276123</ele>
        <time>2019-04-17T21:21:25.174Z</time>
      </trkpt>
      <trkpt lat="44.36407" lon="0.93748">
        <ele>193.21632385254</ele>
        <time>2019-04-17T21:21:30.166Z</time>
      </trkpt>
      <trkpt lat="44.36442" lon="0.93741">
        <ele>187.7572479248</ele>
        <time>2019-04-17T21:21:35.165Z</time>
      </trkpt>
      <trkpt lat="44.36514" lon="0.93767">
        <ele>176.52850341797</ele>
        <time>2019-04-17T21:21:40.178Z</time>
      </trkpt>
      <trkpt lat="44.36553" lon="0.9376">
        <ele>169.52682495117</ele>
        <time>2019-04-17T21:21:45.199Z</time>
      </trkpt>
      <trkpt lat="44.36581" lon="0.93763">
        <ele>165.07717895508</ele>
        <time>2019-04-17T21:21:50.226Z</time>
      </trkpt>
      <trkpt lat="44.36599" lon="0.93766">
        <ele>162.84555053711</ele>
        <time>2019-04-17T21:21:55.257Z</time>
      </trkpt>
      <trkpt lat="44.3664" lon="0.93774">
        <ele>158.3473815918</ele>
        <time>2019-04-17T21:22:00.296Z</time>
      </trkpt>
      <trkpt lat="44.36665" lon="0.93803">
        <ele>155.25189208984</ele>
        <time>2019-04-17T21:22:05.341Z</time>
      </trkpt>
      <trkpt lat="44.36674" lon="0.93841">
        <ele>151.45515441895</ele>
        <time>2019-04-17T21:22:10.392Z</time>
      </trkpt>
      <trkpt lat="44.36675" lon="0.93875">
        <ele>148.58937072754</ele>
        <time>2019-04-17T21:22:15.448Z</time>
      </trkpt>
      <trkpt lat="44.3668" lon="0.93921">
        <ele>145.46611022949</ele>
        <time>2019-04-17T21:22:20.511Z</time>
      </trkpt>
      <trkpt lat="44.36694" lon="0.93947">
        <ele>142.70655822754</ele>
        <time>2019-04-17T21:22:25.578Z</time>
      </trkpt>
      <trkpt lat="44.36713" lon="0.93997">
        <ele>139.81712341309</ele>
        <time>2019-04-17T21:22:30.653Z</time>
      </trkpt>
      <trkpt lat="44.36742" lon="0.94056">
        <ele>137.74147033691</ele>
        <time>2019-04-17T21:22:35.739Z</time>
      </trkpt>
      <trkpt lat="44.3676" lon="0.94096">
        <ele>136.49368286133</ele>
        <time>2019-04-17T21:22:40.831Z</time>
      </trkpt>
      <trkpt lat="44.36775" lon="0.94133">
        <ele>135.49784851074</ele>
        <time>2019-04-17T21:22:45.930Z</time>
      </trkpt>
      <trkpt lat="44.36788" lon="0.9417">
        <ele>135.70309448242</ele>
        <time>2019-04-17T21:22:51.034Z</time>
      </trkpt>
      <trkpt lat="44.36792" lon="0.94203">
        <ele>136.49496459961</ele>
        <time>2019-04-17T21:22:56.143Z</time>
      </trkpt>
      <trkpt lat="44.36795" lon="0.9426">
        <ele>137.96174621582</ele>
        <time>2019-04-17T21:23:01.260Z</time>
      </trkpt>
      <trkpt lat="44.36796" lon="0.94302">
        <ele>139.4494934082</ele>
        <time>2019-04-17T21:23:06.384Z</time>
      </trkpt>
      <trkpt lat="44.36796" lon="0.94341">
        <ele>141.39701843262</ele>
        <time>2019-04-17T21:23:11.513Z</time>
      </trkpt>
      <trkpt lat="44.36803" lon="0.94373">
        <ele>143.41268920898</ele>
        <time>2019-04-17T21:23:16.647Z</time>
      </trkpt>
      <trkpt lat="44.36806" lon="0.94395">
        <ele>144.61471557617</ele>
        <time>2019-04-17T21:23:21.784Z</time>
      </trkpt>
      <trkpt lat="44.36822" lon="0.94405">
        <ele>143.07897949219</ele>
        <time>2019-04-17T21:23:26.925Z</time>
      </trkpt>
      <trkpt lat="44.36841" lon="0.94407">
        <ele>141.25527954102</ele>
        <time>2019-04-17T21:23:32.069Z</time>
      </trkpt>
      <trkpt lat="44.36855" lon="0.94418">
        <ele>139.91149902344</ele>
        <time>2019-04-17T21:23:37.217Z</time>
      </trkpt>
      <trkpt lat="44.3686" lon="0.94435">
        <ele>139.43157958984</ele>
        <time>2019-04-17T21:23:42.367Z</time>
      </trkpt>
      <trkpt lat="44.36861" lon="0.94462">
        <ele>139.33560180664</ele>
        <time>2019-04-17T21:23:47.521Z</time>
      </trkpt>
      <trkpt lat="44.36857" lon="0.94497">
        <ele>138.07522583008</ele>
        <time>2019-04-17T21:23:52.680Z</time>
      </trkpt>
      <trkpt lat="44.36862" lon="0.94517">
        <ele>136.57548522949</ele>
        <time>2019-04-17T21:23:57.842Z</time>
      </trkpt>
      <trkpt lat="44.36904" lon="0.94526">
        <ele>133.9899597168</ele>
        <time>2019-04-17T21:24:03.013Z</time>
      </trkpt>
      <trkpt lat="44.36945" lon="0.94543">
        <ele>130.16798400879</ele>
        <time>2019-04-17T21:24:08.192Z</time>
      </trkpt>
      <trkpt lat="44.36973" lon="0.94565">
        <ele>129.48710632324</ele>
        <time>2019-04-17T21:24:13.378Z</time>
      </trkpt>
      <trkpt lat="44.36979" lon="0.94593">
        <ele>129.67907714844</ele>
        <time>2019-04-17T21:24:18.568Z</time>
      </trkpt>
      <trkpt lat="44.3699" lon="0.94626">
        <ele>129.81105041504</ele>
        <time>2019-04-17T21:24:23.763Z</time>
      </trkpt>
      <trkpt lat="44.37017" lon="0.94637">
        <ele>129.29513549805</ele>
        <time>2019-04-17T21:24:28.964Z</time>
      </trkpt>
      <trkpt lat="44.37049" lon="0.94637">
        <ele>130.23666381836</ele>
        <time>2019-04-17T21:24:34.171Z</time>
      </trkpt>
      <trkpt lat="44.3705" lon="0.9468">
        <ele>130.12835693359</ele>
        <time>2019-04-17T21:24:39.384Z</time>
      </trkpt>
      <trkpt lat="44.37066" lon="0.94722">
        <ele>131.08819580078</ele>
        <time>2019-04-17T21:24:44.604Z</time>
      </trkpt>
      <trkpt lat="44.37093" lon="0.94784">
        <ele>131.27128601074</ele>
        <time>2019-04-17T21:24:49.835Z</time>
      </trkpt>
      <trkpt lat="44.37112" lon="0.94829">
        <ele>132.5164642334</ele>
        <time>2019-04-17T21:24:55.073Z</time>
      </trkpt>
      <trkpt lat="44.37128" lon="0.94867">
        <ele>135.52801513672</ele>
        <time>2019-04-17T21:25:00.317Z</time>
      </trkpt>
      <trkpt lat="44.37133" lon="0.94916">
        <ele>138.38986206055</ele>
        <time>2019-04-17T21:25:05.569Z</time>
      </trkpt>
      <trkpt lat="44.37134" lon="0.94966">
        <ele>141.54534912109</ele>
        <time>2019-04-17T21:25:10.828Z</time>
      </trkpt>
      <trkpt lat="44.37141" lon="0.95021">
        <ele>142.41925048828</ele>
        <time>2019-04-17T21:25:16.095Z</time>
      </trkpt>
      <trkpt lat="44.37155" lon="0.95064">
        <ele>143.98034667969</ele>
        <time>2019-04-17T21:25:21.369Z</time>
      </trkpt>
      <trkpt lat="44.37165" lon="0.95134">
        <ele>141.48522949219</ele>
        <time>2019-04-17T21:25:26.653Z</time>
      </trkpt>
      <trkpt lat="44.37168" lon="0.9518">
        <ele>141.95957946777</ele>
        <time>2019-04-17T21:25:31.943Z</time>
      </trkpt>
      <trkpt lat="44.37157" lon="0.95232">
        <ele>140.74856567383</ele>
        <time>2019-04-17T21:25:37.241Z</time>
      </trkpt>
      <trkpt lat="44.37146" lon="0.95273">
        <ele>141.83288574219</ele>
        <time>2019-04-17T21:25:42.545Z</time>
      </trkpt>
      <trkpt lat="44.3713" lon="0.95334">
        <ele>140.04609680176</ele>
        <time>2019-04-17T21:25:47.859Z</time>
      </trkpt>
      <trkpt lat="44.3712" lon="0.95378">
        <ele>139.54219055176</ele>
        <time>2019-04-17T21:25:53.179Z</time>
      </trkpt>
      <trkpt lat="44.37125" lon="0.95421">
        <ele>140.25521850586</ele>
        <time>2019-04-17T21:25:58.506Z</time>
      </trkpt>
      <trkpt lat="44.37126" lon="0.95466">
        <ele>140.37519836426</ele>
        <time>2019-04-17T21:26:03.839Z</time>
      </trkpt>
      <trkpt lat="44.37131" lon="0.95506">
        <ele>141.11604309082</ele>
        <time>2019-04-17T21:26:09.178Z</time>
      </trkpt>
      <trkpt lat="44.37134" lon="0.95543">
        <ele>142.9997253418</ele>
        <time>2019-04-17T21:26:14.522Z</time>
      </trkpt>
      <trkpt lat="44.3714" lon="0.9559">
        <ele>144.47161865234</ele>
        <time>2019-04-17T21:26:19.873Z</time>
      </trkpt>
      <trkpt lat="44.37146" lon="0.95636">
        <ele>146.19934082031</ele>
        <time>2019-04-17T21:26:25.231Z</time>
      </trkpt>
      <trkpt lat="44.37158" lon="0.95677">
        <ele>146.08891296387</ele>
        <time>2019-04-17T21:26:30.595Z</time>
      </trkpt>
      <trkpt lat="44.37177" lon="0.95701">
        <ele>146.02893066406</ele>
        <time>2019-04-17T21:26:35.964Z</time>
      </trkpt>
      <trkpt lat="44.37199" lon="0.9572">
        <ele>146.22540283203</ele>
        <time>2019-04-17T21:26:41.338Z</time>
      </trkpt>
      <trkpt lat="44.3721" lon="0.95745">
        <ele>148.30177307129</ele>
        <time>2019-04-17T21:26:46.717Z</time>
      </trkpt>
      <trkpt lat="44.37212" lon="0.95768">
        <ele>149.62155151367</ele>
        <time>2019-04-17T21:26:52.099Z</time>
      </trkpt>
      <trkpt lat="44.37208" lon="0.95796">
        <ele>150.53340148926</ele>
        <time>2019-04-17T21:26:57.485Z</time>
      </trkpt>
      <trkpt lat="44.37201" lon="0.95836">
        <ele>152.52711486816</ele>
        <time>2019-04-17T21:27:02.877Z</time>
      </trkpt>
      <trkpt lat="44.37186" lon="0.9586">
        <ele>153.34121704102</ele>
        <time>2019-04-17T21:27:08.274Z</time>
      </trkpt>
      <trkpt lat="44.37173" lon="0.95879">
        <ele>153.46754455566</ele>
        <time>2019-04-17T21:27:13.674Z</time>
      </trkpt>
      <trkpt lat="44.37155" lon="0.95915">
        <ele>154.18818664551</ele>
        <time>2019-04-17T21:27:19.081Z</time>
      </trkpt>
      <trkpt lat="44.37145" lon="0.95947">
        <ele>154.76725769043</ele>
        <time>2019-04-17T21:27:24.493Z</time>
      </trkpt>
      <trkpt lat="44.37145" lon="0.95975">
        <ele>155.7592010498</ele>
        <time>2019-04-17T21:27:29.909Z</time>
      </trkpt>
      <trkpt lat="44.37151" lon="0.96016">
        <ele>157.12457275391</ele>
        <time>2019-04-17T21:27:35.331Z</time>
      </trkpt>
      <trkpt lat="44.37158" lon="0.96053">
        <ele>158.30038452148</ele>
        <time>2019-04-17T21:27:40.758Z</time>
      </trkpt>
      <trkpt lat="44.37177" lon="0.96059">
        <ele>161.42875671387</ele>
        <time>2019-04-17T21:27:46.189Z</time>
      </trkpt>
      <trkpt lat="44.37194" lon="0.96058">
        <ele>164.33227539062</ele>
        <time>2019-04-17T21:27:51.623Z</time>
      </trkpt>
      <trkpt lat="44.37206" lon="0.96054">
        <ele>167.3897857666</ele>
        <time>2019-04-17T21:27:57.060Z</time>
      </trkpt>
      <trkpt lat="44.37215" lon="0.96043">
        <ele>169.95735168457</ele>
        <time>2019-04-17T21:28:02.499Z</time>
      </trkpt>
      <trkpt lat="44.37226" lon="0.96018">
        <ele>172.95684814453</ele>
        <time>2019-04-17T21:28:07.943Z</time>
      </trkpt>
      <trkpt lat="44.37241" lon="0.96026">
        <ele>177.55209350586</ele>
        <time>2019-04-17T21:28:13.390Z</time>
      </trkpt>
      <trkpt lat="44.37254" lon="0.96032">
        <ele>181.52342224121</ele>
        <time>2019-04-17T21:28:18.839Z</time>
      </trkpt>
      <trkpt lat="44.37272" lon="0.96011">
        <ele>183.52505493164</ele>
        <time>2019-04-17T21:28:24.293Z</time>
      </trkpt>
      <trkpt lat="44.37297" lon="0.95984">
        <ele>189.22500610352</ele>
        <time>2019-04-17T21:28:29.753Z</time>
      </trkpt>
      <trkpt lat="44.37326" lon="0.95961">
        <ele>195.49606323242</ele>
        <time>2019-04-17T21:28:35.220Z</time>
      </trkpt>
      <trkpt lat="44.37363" lon="0.95954">
        <ele>205.25253295898</ele>
        <time>2019-04-17T21:28:40.695Z</time>
      </trkpt>
      <trkpt lat="44.37401" lon="0.95944">
        <ele>211.73146057129</ele>
        <time>2019-04-17T21:28:46.177Z</time>
      </trkpt>
      <trkpt lat="44.37427" lon="0.95927">
        <ele>213.48316955566</ele>
        <time>2019-04-17T21:28:51.665Z</time>
      </trkpt>
      <trkpt lat="44.37438" lon="0.95908">
        <ele>211.1075592041</ele>
        <time>2019-04-17T21:28:57.157Z</time>
      </trkpt>
      <trkpt lat="44.37439" lon="0.95866">
        <ele>203.02409362793</ele>
        <time>2019-04-17T21:29:02.655Z</time>
      </trkpt>
      <trkpt lat="44.3744" lon="0.95828">
        <ele>198.30888366699</ele>
        <time>2019-04-17T21:29:08.158Z</time>
      </trkpt>
      <trkpt lat="44.37437" lon="0.95786">
        <ele>196.67132568359</ele>
        <time>2019-04-17T21:29:13.667Z</time>
      </trkpt>
      <trkpt lat="44.37427" lon="0.95763">
        <ele>195.72348022461</ele>
        <time>2019-04-17T21:29:19.180Z</time>
      </trkpt>
      <trkpt lat="44.37421" lon="0.95728">
        <ele>196.9352722168</ele>
        <time>2019-04-17T21:29:24.698Z</time>
      </trkpt>
      <trkpt lat="44.37415" lon="0.95689">
        <ele>200.88179016113</ele>
        <time>2019-04-17T21:29:30.222Z</time>
      </trkpt>
      <trkpt lat="44.37239" lon="0.96024">
        <ele>176.92819213867</ele>
        <time>2019-04-17T21:29:35.805Z</time>
      </trkpt>
      <trkpt lat="44.37254" lon="0.96025">
        <ele>180.98147583008</ele>
        <time>2019-04-17T21:29:41.391Z</time>
      </trkpt>
      <trkpt lat="44.37288" lon="0.9598">
        <ele>185.37364196777</ele>
        <time>2019-04-17T21:29:46.987Z</time>
      </trkpt>
      <trkpt lat="44.37342" lon="0.95947">
        <ele>198.36567687988</ele>
        <time>2019-04-17T21:29:52.595Z</time>
      </trkpt>
      <trkpt lat="44.37391" lon="0.95935">
        <ele>206.95625305176</ele>
        <time>2019-04-17T21:29:58.213Z</time>
      </trkpt>
      <trkpt lat="44.37434" lon="0.95916">
        <ele>212.25936889648</ele>
        <time>2019-04-17T21:30:03.840Z</time>
      </trkpt>
      <trkpt lat="44.37433" lon="0.95876">
        <ele>202.54417419434</ele>
        <time>2019-04-17T21:30:09.472Z</time>
      </trkpt>
      <trkpt lat="44.37431" lon="0.95793">
        <ele>194.32830810547</ele>
        <time>2019-04-17T21:30:15.116Z</time>
      </trkpt>
      <trkpt lat="44.3742" lon="0.95757">
        <ele>194.21173095703</ele>
        <time>2019-04-17T21:30:20.766Z</time>
      </trkpt>
      <trkpt lat="44.37407" lon="0.95679">
        <ele>200.01794433594</ele>
        <time>2019-04-17T21:30:26.427Z</time>
      </trkpt>
      <trkpt lat="44.37444" lon="0.95749">
        <ele>201.79446411133</ele>
        <time>2019-04-17T21:30:32.101Z</time>
      </trkpt>
      <trkpt lat="44.37468" lon="0.95812">
        <ele>204.65937805176</ele>
        <time>2019-04-17T21:30:37.785Z</time>
      </trkpt>
      <trkpt lat="44.37481" lon="0.95887">
        <ele>216.01266479492</ele>
        <time>2019-04-17T21:30:43.480Z</time>
      </trkpt>
      <trkpt lat="44.37488" lon="0.95949">
        <ele>225.75422668457</ele>
        <time>2019-04-17T21:30:49.184Z</time>
      </trkpt>
      <trkpt lat="44.37475" lon="0.95987">
        <ele>231.9744720459</ele>
        <time>2019-04-17T21:30:54.894Z</time>
      </trkpt>
      <trkpt lat="44.37453" lon="0.96022">
        <ele>236.80339050293</ele>
        <time>2019-04-17T21:31:00.611Z</time>
      </trkpt>
      <trkpt lat="44.37433" lon="0.96057">
        <ele>239.01113891602</ele>
        <time>2019-04-17T21:31:06.334Z</time>
      </trkpt>
      <trkpt lat="44.37418" lon="0.96111">
        <ele>233.69630432129</ele>
        <time>2019-04-17T21:31:12.066Z</time>
      </trkpt>
      <trkpt lat="44.3738" lon="0.96146">
        <ele>229.85011291504</ele>
        <time>2019-04-17T21:31:17.807Z</time>
      </trkpt>
      <trkpt lat="44.37371" lon="0.96227">
        <ele>228.80174255371</ele>
        <time>2019-04-17T21:31:23.559Z</time>
      </trkpt>
      <trkpt lat="44.3738" lon="0.96331">
        <ele>228.68096923828</ele>
        <time>2019-04-17T21:31:29.326Z</time>
      </trkpt>
      <trkpt lat="44.37393" lon="0.96405">
        <ele>230.4557800293</ele>
        <time>2019-04-17T21:31:35.104Z</time>
      </trkpt>
      <trkpt lat="44.37407" lon="0.96458">
        <ele>230.49717712402</ele>
        <time>2019-04-17T21:31:40.891Z</time>
      </trkpt>
      <trkpt lat="44.37419" lon="0.96538">
        <ele>229.15585327148</ele>
        <time>2019-04-17T21:31:46.689Z</time>
      </trkpt>
      <trkpt lat="44.37442" lon="0.96587">
        <ele>233.54899597168</ele>
        <time>2019-04-17T21:31:52.496Z</time>
      </trkpt>
      <trkpt lat="44.37481" lon="0.96633">
        <ele>237.3459777832</ele>
        <time>2019-04-17T21:31:58.313Z</time>
      </trkpt>
      <trkpt lat="44.37544" lon="0.96682">
        <ele>244.12020874023</ele>
        <time>2019-04-17T21:32:04.144Z</time>
      </trkpt>
      <trkpt lat="44.37579" lon="0.96737">
        <ele>245.44087219238</ele>
        <time>2019-04-17T21:32:09.986Z</time>
      </trkpt>
      <trkpt lat="44.37602" lon="0.96777">
        <ele>247.02461242676</ele>
        <time>2019-04-17T21:32:15.835Z</time>
      </trkpt>
      <trkpt lat="44.37616" lon="0.96859">
        <ele>246.8543548584</ele>
        <time>2019-04-17T21:32:21.696Z</time>
      </trkpt>
      <trkpt lat="44.37697" lon="0.97032">
        <ele>251.6665802002</ele>
        <time>2019-04-17T21:32:27.587Z</time>
      </trkpt>
      <trkpt lat="44.37769" lon="0.97159">
        <ele>248.01820373535</ele>
        <time>2019-04-17T21:32:33.501Z</time>
      </trkpt>
      <trkpt lat="44.3781" lon="0.97258">
        <ele>249.22970581055</ele>
        <time>2019-04-17T21:32:39.432Z</time>
      </trkpt>
      <trkpt lat="44.3784" lon="0.97311">
        <ele>249.07501220703</ele>
        <time>2019-04-17T21:32:45.372Z</time>
      </trkpt>
      <trkpt lat="44.37873" lon="0.97426">
        <ele>249</ele>
        <time>2019-04-17T21:32:51.330Z</time>
      </trkpt>
      <trkpt lat="44.37901" lon="0.97523">
        <ele>249.72706604004</ele>
        <time>2019-04-17T21:32:57.303Z</time>
      </trkpt>
      <trkpt lat="44.37936" lon="0.97581">
        <ele>250.29096984863</ele>
        <time>2019-04-17T21:33:03.287Z</time>
      </trkpt>
      <trkpt lat="44.3795" lon="0.97631">
        <ele>250.21885681152</ele>
        <time>2019-04-17T21:33:09.279Z</time>
      </trkpt>
      <trkpt lat="44.37986" lon="0.97687">
        <ele>250.63345336914</ele>
        <time>2019-04-17T21:33:15.281Z</time>
      </trkpt>
      <trkpt lat="44.38023" lon="0.97758">
        <ele>253.10012817383</ele>
        <time>2019-04-17T21:33:21.296Z</time>
      </trkpt>
      <trkpt lat="44.38024" lon="0.97827">
        <ele>255.61030578613</ele>
        <time>2019-04-17T21:33:27.321Z</time>
      </trkpt>
      <trkpt lat="44.38021" lon="0.97899">
        <ele>256.34646606445</ele>
        <time>2019-04-17T21:33:33.356Z</time>
      </trkpt>
      <trkpt lat="44.3802" lon="0.97947">
        <ele>256.85040283203</ele>
        <time>2019-04-17T21:33:39.398Z</time>
      </trkpt>
      <trkpt lat="44.38058" lon="0.97946">
        <ele>257.33633422852</ele>
        <time>2019-04-17T21:33:45.448Z</time>
      </trkpt>
      <trkpt lat="44.38104" lon="0.97953">
        <ele>256.73684692383</ele>
        <time>2019-04-17T21:33:51.507Z</time>
      </trkpt>
      <trkpt lat="44.38136" lon="0.97969">
        <ele>255.58641052246</ele>
        <time>2019-04-17T21:33:57.573Z</time>
      </trkpt>
      <trkpt lat="44.3817" lon="0.97973">
        <ele>253.64273071289</ele>
        <time>2019-04-17T21:34:03.646Z</time>
      </trkpt>
      <trkpt lat="44.38205" lon="0.97977">
        <ele>250.86087036133</ele>
        <time>2019-04-17T21:34:09.726Z</time>
      </trkpt>
      <trkpt lat="44.38262" lon="0.98001">
        <ele>241.57441711426</ele>
        <time>2019-04-17T21:34:15.817Z</time>
      </trkpt>
      <trkpt lat="44.38319" lon="0.98039">
        <ele>240.12521362305</ele>
        <time>2019-04-17T21:34:21.921Z</time>
      </trkpt>
      <trkpt lat="44.38338" lon="0.98009">
        <ele>240.7163848877</ele>
        <time>2019-04-17T21:34:28.031Z</time>
      </trkpt>
      <trkpt lat="44.38452" lon="0.98088">
        <ele>244.23306274414</ele>
        <time>2019-04-17T21:34:34.166Z</time>
      </trkpt>
      <trkpt lat="44.38474" lon="0.98115">
        <ele>241.08958435059</ele>
        <time>2019-04-17T21:34:40.307Z</time>
      </trkpt>
      <trkpt lat="44.38507" lon="0.98146">
        <ele>236.94149780273</ele>
        <time>2019-04-17T21:34:46.456Z</time>
      </trkpt>
      <trkpt lat="44.38517" lon="0.98171">
        <ele>235.50173950195</ele>
        <time>2019-04-17T21:34:52.609Z</time>
      </trkpt>
      <trkpt lat="44.38518" lon="0.98196">
        <ele>234.81784057617</ele>
        <time>2019-04-17T21:34:58.766Z</time>
      </trkpt>
      <trkpt lat="44.38515" lon="0.98237">
        <ele>234.13580322266</ele>
        <time>2019-04-17T21:35:04.929Z</time>
      </trkpt>
      <trkpt lat="44.38505" lon="0.98312">
        <ele>233.84048461914</ele>
        <time>2019-04-17T21:35:11.103Z</time>
      </trkpt>
      <trkpt lat="44.38498" lon="0.98389">
        <ele>231.99559020996</ele>
        <time>2019-04-17T21:35:17.288Z</time>
      </trkpt>
      <trkpt lat="44.38501" lon="0.98444">
        <ele>224.9945526123</ele>
        <time>2019-04-17T21:35:23.481Z</time>
      </trkpt>
      <trkpt lat="44.3852" lon="0.98491">
        <ele>217.04187011719</ele>
        <time>2019-04-17T21:35:29.681Z</time>
      </trkpt>
      <trkpt lat="44.38564" lon="0.98516">
        <ele>202.07223510742</ele>
        <time>2019-04-17T21:35:35.891Z</time>
      </trkpt>
      <trkpt lat="44.38629" lon="0.98524">
        <ele>180.69209289551</ele>
        <time>2019-04-17T21:35:42.114Z</time>
      </trkpt>
      <trkpt lat="44.38676" lon="0.98542">
        <ele>171.32165527344</ele>
        <time>2019-04-17T21:35:48.347Z</time>
      </trkpt>
      <trkpt lat="44.38704" lon="0.98532">
        <ele>163.75231933594</ele>
        <time>2019-04-17T21:35:54.586Z</time>
      </trkpt>
      <trkpt lat="44.38764" lon="0.9852">
        <ele>152.93586730957</ele>
        <time>2019-04-17T21:36:00.837Z</time>
      </trkpt>
      <trkpt lat="44.38825" lon="0.98526">
        <ele>146.14541625977</ele>
        <time>2019-04-17T21:36:07.100Z</time>
      </trkpt>
      <trkpt lat="44.3885" lon="0.98588">
        <ele>145.3187713623</ele>
        <time>2019-04-17T21:36:13.373Z</time>
      </trkpt>
      <trkpt lat="44.38888" lon="0.98614">
        <ele>143.22933959961</ele>
        <time>2019-04-17T21:36:19.655Z</time>
      </trkpt>
      <trkpt lat="44.38845" lon="0.98729">
        <ele>150.00210571289</ele>
        <time>2019-04-17T21:36:25.955Z</time>
      </trkpt>
      <trkpt lat="44.38837" lon="0.98744">
        <ele>150.56600952148</ele>
        <time>2019-04-17T21:36:32.258Z</time>
      </trkpt>
      <trkpt lat="44.38797" lon="0.98849">
        <ele>155.00076293945</ele>
        <time>2019-04-17T21:36:38.578Z</time>
      </trkpt>
      <trkpt lat="44.38778" lon="0.98896">
        <ele>157.15965270996</ele>
        <time>2019-04-17T21:36:44.906Z</time>
      </trkpt>
      <trkpt lat="44.38696" lon="0.98863">
        <ele>167.66600036621</ele>
        <time>2019-04-17T21:36:51.251Z</time>
      </trkpt>
      <trkpt lat="44.38661" lon="0.98934">
        <ele>167.71195983887</ele>
        <time>2019-04-17T21:36:57.608Z</time>
      </trkpt>
      <trkpt lat="44.38616" lon="0.98985">
        <ele>165.1812286377</ele>
        <time>2019-04-17T21:37:03.977Z</time>
      </trkpt>
      <trkpt lat="44.38547" lon="0.99021">
        <ele>167.47785949707</ele>
        <time>2019-04-17T21:37:10.360Z</time>
      </trkpt>
      <trkpt lat="44.38514" lon="0.99038">
        <ele>167.13171386719</ele>
        <time>2019-04-17T21:37:16.750Z</time>
      </trkpt>
      <trkpt lat="44.38502" lon="0.99053">
        <ele>165.8359375</ele>
        <time>2019-04-17T21:37:23.144Z</time>
      </trkpt>
      <trkpt lat="44.38543" lon="0.99083">
        <ele>165.59278869629</ele>
        <time>2019-04-17T21:37:29.547Z</time>
      </trkpt>
      <trkpt lat="44.38555" lon="0.99125">
        <ele>163.93705749512</ele>
        <time>2019-04-17T21:37:35.956Z</time>
      </trkpt>
      <trkpt lat="44.38604" lon="0.99248">
        <ele>157.66703796387</ele>
        <time>2019-04-17T21:37:42.386Z</time>
      </trkpt>
      <trkpt lat="44.38624" lon="0.99277">
        <ele>155.49864196777</ele>
        <time>2019-04-17T21:37:48.821Z</time>
      </trkpt>
      <trkpt lat="44.3867" lon="0.99363">
        <ele>153.34283447266</ele>
        <time>2019-04-17T21:37:55.272Z</time>
      </trkpt>
      <trkpt lat="44.38692" lon="0.99438">
        <ele>151.1081237793</ele>
        <time>2019-04-17T21:38:01.734Z</time>
      </trkpt>
      <trkpt lat="44.38692" lon="0.99507">
        <ele>148.23965454102</ele>
        <time>2019-04-17T21:38:08.206Z</time>
      </trkpt>
      <trkpt lat="44.38709" lon="0.99591">
        <ele>145.47364807129</ele>
        <time>2019-04-17T21:38:14.691Z</time>
      </trkpt>
      <trkpt lat="44.38748" lon="0.99659">
        <ele>145.36566162109</ele>
        <time>2019-04-17T21:38:21.188Z</time>
      </trkpt>
      <trkpt lat="44.38778" lon="0.99734">
        <ele>144.31559753418</ele>
        <time>2019-04-17T21:38:27.698Z</time>
      </trkpt>
      <trkpt lat="44.38802" lon="0.99818">
        <ele>142.41537475586</ele>
        <time>2019-04-17T21:38:34.221Z</time>
      </trkpt>
      <trkpt lat="44.38799" lon="0.99883">
        <ele>138.46636962891</ele>
        <time>2019-04-17T21:38:40.753Z</time>
      </trkpt>
      <trkpt lat="44.38795" lon="0.99919">
        <ele>136.01583862305</ele>
        <time>2019-04-17T21:38:47.290Z</time>
      </trkpt>
      <trkpt lat="44.38806" lon="0.99941">
        <ele>135.22396850586</ele>
        <time>2019-04-17T21:38:53.831Z</time>
      </trkpt>
      <trkpt lat="44.3888" lon="0.9996">
        <ele>135.07620239258</ele>
        <time>2019-04-17T21:39:00.387Z</time>
      </trkpt>
      <trkpt lat="44.38926" lon="0.99955">
        <ele>134.45230102539</ele>
        <time>2019-04-17T21:39:06.952Z</time>
      </trkpt>
      <trkpt lat="44.38934" lon="0.99968">
        <ele>133.01254272461</ele>
        <time>2019-04-17T21:39:13.520Z</time>
      </trkpt>
      <trkpt lat="44.38984" lon="0.99992">
        <ele>130.93647766113</ele>
        <time>2019-04-17T21:39:20.098Z</time>
      </trkpt>
      <trkpt lat="44.39011" lon="1.00036">
        <ele>129.76068115234</ele>
        <time>2019-04-17T21:39:26.685Z</time>
      </trkpt>
      <trkpt lat="44.39032" lon="1.00102">
        <ele>128.47631835938</ele>
        <time>2019-04-17T21:39:33.282Z</time>
      </trkpt>
      <trkpt lat="44.39085" lon="1.00181">
        <ele>127.52847290039</ele>
        <time>2019-04-17T21:39:39.895Z</time>
      </trkpt>
      <trkpt lat="44.39155" lon="1.00252">
        <ele>127.323387146</ele>
        <time>2019-04-17T21:39:46.525Z</time>
      </trkpt>
      <trkpt lat="44.39215" lon="1.00297">
        <ele>128.06463623047</ele>
        <time>2019-04-17T21:39:53.168Z</time>
      </trkpt>
      <trkpt lat="44.39253" lon="1.00322">
        <ele>129.14700317383</ele>
        <time>2019-04-17T21:39:59.820Z</time>
      </trkpt>
      <trkpt lat="44.39273" lon="1.00258">
        <ele>128.79444885254</ele>
        <time>2019-04-17T21:40:06.482Z</time>
      </trkpt>
      <trkpt lat="44.39295" lon="1.00277">
        <ele>128.67762756348</ele>
        <time>2019-04-17T21:40:13.149Z</time>
      </trkpt>
      <trkpt lat="44.39296" lon="1.00336">
        <ele>129.64729309082</ele>
        <time>2019-04-17T21:40:19.824Z</time>
      </trkpt>
      <trkpt lat="44.39344" lon="1.00423">
        <ele>131.62696838379</ele>
        <time>2019-04-17T21:40:26.515Z</time>
      </trkpt>
      <trkpt lat="44.39368" lon="1.00494">
        <ele>134.88931274414</ele>
        <time>2019-04-17T21:40:33.217Z</time>
      </trkpt>
      <trkpt lat="44.39393" lon="1.00578">
        <ele>142.61291503906</ele>
        <time>2019-04-17T21:40:39.933Z</time>
      </trkpt>
      <trkpt lat="44.39426" lon="1.00656">
        <ele>148.67655944824</ele>
        <time>2019-04-17T21:40:46.662Z</time>
      </trkpt>
      <trkpt lat="44.39438" lon="1.0069">
        <ele>148.77253723145</ele>
        <time>2019-04-17T21:40:53.396Z</time>
      </trkpt>
      <trkpt lat="44.39459" lon="1.00852">
        <ele>153.4309387207</ele>
        <time>2019-04-17T21:41:00.154Z</time>
      </trkpt>
      <trkpt lat="44.39473" lon="1.0086">
        <ele>154.12683105469</ele>
        <time>2019-04-17T21:41:06.915Z</time>
      </trkpt>
      <trkpt lat="44.3952" lon="1.0088">
        <ele>156.29325866699</ele>
        <time>2019-04-17T21:41:13.685Z</time>
      </trkpt>
      <trkpt lat="44.3954" lon="1.00763">
        <ele>151.96725463867</ele>
        <time>2019-04-17T21:41:20.473Z</time>
      </trkpt>
      <trkpt lat="44.39567" lon="1.0065">
        <ele>150.36683654785</ele>
        <time>2019-04-17T21:41:27.278Z</time>
      </trkpt>
      <trkpt lat="44.39598" lon="1.00558">
        <ele>148.77946472168</ele>
        <time>2019-04-17T21:41:34.097Z</time>
      </trkpt>
      <trkpt lat="44.39617" lon="1.00492">
        <ele>148.45489501953</ele>
        <time>2019-04-17T21:41:40.927Z</time>
      </trkpt>
      <trkpt lat="44.39663" lon="1.00356">
        <ele>145.0298614502</ele>
        <time>2019-04-17T21:41:47.778Z</time>
      </trkpt>
      <trkpt lat="44.39691" lon="1.00264">
        <ele>144.43141174316</ele>
        <time>2019-04-17T21:41:54.643Z</time>
      </trkpt>
      <trkpt lat="44.39714" lon="1.00177">
        <ele>141.25918579102</ele>
        <time>2019-04-17T21:42:01.522Z</time>
      </trkpt>
      <trkpt lat="44.39745" lon="1.00115">
        <ele>140.28012084961</ele>
        <time>2019-04-17T21:42:08.412Z</time>
      </trkpt>
      <trkpt lat="44.3982" lon="1.00023">
        <ele>136.18766784668</ele>
        <time>2019-04-17T21:42:15.322Z</time>
      </trkpt>
      <trkpt lat="44.39879" lon="0.99974">
        <ele>141.38838195801</ele>
        <time>2019-04-17T21:42:22.245Z</time>
      </trkpt>
      <trkpt lat="44.39926" lon="0.99957">
        <ele>149.89495849609</ele>
        <time>2019-04-17T21:42:29.178Z</time>
      </trkpt>
      <trkpt lat="44.39952" lon="0.99913">
        <ele>157.68295288086</ele>
        <time>2019-04-17T21:42:36.119Z</time>
      </trkpt>
      <trkpt lat="44.39996" lon="0.9983">
        <ele>170.99635314941</ele>
        <time>2019-04-17T21:42:43.075Z</time>
      </trkpt>
      <trkpt lat="44.40023" lon="0.99811">
        <ele>175.12367248535</ele>
        <time>2019-04-17T21:42:50.037Z</time>
      </trkpt>
      <trkpt lat="44.40159" lon="0.9977">
        <ele>170.82569885254</ele>
        <time>2019-04-17T21:42:57.027Z</time>
      </trkpt>
      <trkpt lat="44.40331" lon="1.00048">
        <ele>169.22666931152</ele>
        <time>2019-04-17T21:43:04.070Z</time>
      </trkpt>
      <trkpt lat="44.40384" lon="1.00103">
        <ele>166.78329467773</ele>
        <time>2019-04-17T21:43:11.126Z</time>
      </trkpt>
      <trkpt lat="44.40422" lon="1.00124">
        <ele>165.16357421875</ele>
        <time>2019-04-17T21:43:18.190Z</time>
      </trkpt>
      <trkpt lat="44.4047" lon="1.00133">
        <ele>161.67050170898</ele>
        <time>2019-04-17T21:43:25.264Z</time>
      </trkpt>
      <trkpt lat="44.40529" lon="1.00182">
        <ele>155.29956054688</ele>
        <time>2019-04-17T21:43:32.351Z</time>
      </trkpt>
      <trkpt lat="44.40581" lon="1.00256">
        <ele>155.15214538574</ele>
        <time>2019-04-17T21:43:39.453Z</time>
      </trkpt>
      <trkpt lat="44.40617" lon="1.00309">
        <ele>155.9243927002</ele>
        <time>2019-04-17T21:43:46.566Z</time>
      </trkpt>
      <trkpt lat="44.40633" lon="1.00343">
        <ele>155.77168273926</ele>
        <time>2019-04-17T21:43:53.684Z</time>
      </trkpt>
      <trkpt lat="44.40652" lon="1.00397">
        <ele>155.73568725586</ele>
        <time>2019-04-17T21:44:00.811Z</time>
      </trkpt>
      <trkpt lat="44.40676" lon="1.00445">
        <ele>155.44773864746</ele>
        <time>2019-04-17T21:44:07.946Z</time>
      </trkpt>
      <trkpt lat="44.40675" lon="1.00544">
        <ele>154.71070861816</ele>
        <time>2019-04-17T21:44:15.096Z</time>
      </trkpt>
      <trkpt lat="44.40682" lon="1.00648">
        <ele>151.12300109863</ele>
        <time>2019-04-17T21:44:22.261Z</time>
      </trkpt>
      <trkpt lat="44.40705" lon="1.00705">
        <ele>150.94679260254</ele>
        <time>2019-04-17T21:44:29.435Z</time>
      </trkpt>
      <trkpt lat="44.40698" lon="1.00741">
        <ele>150.56561279297</ele>
        <time>2019-04-17T21:44:36.614Z</time>
      </trkpt>
      <trkpt lat="44.40678" lon="1.00773">
        <ele>151.47746276855</ele>
        <time>2019-04-17T21:44:43.799Z</time>
      </trkpt>
      <trkpt lat="44.40659" lon="1.00799">
        <ele>150.38613891602</ele>
        <time>2019-04-17T21:44:50.990Z</time>
      </trkpt>
      <trkpt lat="44.40686" lon="1.00844">
        <ele>152.52861022949</ele>
        <time>2019-04-17T21:44:58.189Z</time>
      </trkpt>
      <trkpt lat="44.40686" lon="1.00918">
        <ele>152.63874816895</ele>
        <time>2019-04-17T21:45:05.399Z</time>
      </trkpt>
      <trkpt lat="44.40676" lon="1.00966">
        <ele>151.38252258301</ele>
        <time>2019-04-17T21:45:12.616Z</time>
      </trkpt>
      <trkpt lat="44.40683" lon="1.01031">
        <ele>151.8864440918</ele>
        <time>2019-04-17T21:45:19.842Z</time>
      </trkpt>
      <trkpt lat="44.40706" lon="1.01125">
        <ele>151.14924621582</ele>
        <time>2019-04-17T21:45:27.083Z</time>
      </trkpt>
      <trkpt lat="44.40734" lon="1.0119">
        <ele>150.1238861084</ele>
        <time>2019-04-17T21:45:34.335Z</time>
      </trkpt>
      <trkpt lat="44.40747" lon="1.01233">
        <ele>149.5599822998</ele>
        <time>2019-04-17T21:45:41.593Z</time>
      </trkpt>
      <trkpt lat="44.40882" lon="1.01262">
        <ele>154.80320739746</ele>
        <time>2019-04-17T21:45:48.879Z</time>
      </trkpt>
      <trkpt lat="44.4095" lon="1.01261">
        <ele>157.17700195312</ele>
        <time>2019-04-17T21:45:56.178Z</time>
      </trkpt>
      <trkpt lat="44.41025" lon="1.01279">
        <ele>158.27238464355</ele>
        <time>2019-04-17T21:46:03.492Z</time>
      </trkpt>
      <trkpt lat="44.41078" lon="1.01269">
        <ele>159.63841247559</ele>
        <time>2019-04-17T21:46:10.817Z</time>
      </trkpt>
      <trkpt lat="44.41118" lon="1.01236">
        <ele>162.57820129395</ele>
        <time>2019-04-17T21:46:18.151Z</time>
      </trkpt>
      <trkpt lat="44.4116" lon="1.01226">
        <ele>164.01826477051</ele>
        <time>2019-04-17T21:46:25.494Z</time>
      </trkpt>
      <trkpt lat="44.41208" lon="1.01256">
        <ele>163.69058227539</ele>
        <time>2019-04-17T21:46:32.847Z</time>
      </trkpt>
      <trkpt lat="44.41237" lon="1.01313">
        <ele>162.47732543945</ele>
        <time>2019-04-17T21:46:40.210Z</time>
      </trkpt>
      <trkpt lat="44.41238" lon="1.01379">
        <ele>162.00869750977</ele>
        <time>2019-04-17T21:46:47.583Z</time>
      </trkpt>
      <trkpt lat="44.4123" lon="1.0146">
        <ele>160.36605834961</ele>
        <time>2019-04-17T21:46:54.968Z</time>
      </trkpt>
      <trkpt lat="44.41224" lon="1.01524">
        <ele>160.83856201172</ele>
        <time>2019-04-17T21:47:02.362Z</time>
      </trkpt>
      <trkpt lat="44.41235" lon="1.01577">
        <ele>162.79177856445</ele>
        <time>2019-04-17T21:47:09.764Z</time>
      </trkpt>
      <trkpt lat="44.41273" lon="1.01635">
        <ele>164.95022583008</ele>
        <time>2019-04-17T21:47:17.177Z</time>
      </trkpt>
      <trkpt lat="44.41306" lon="1.01656">
        <ele>166.46922302246</ele>
        <time>2019-04-17T21:47:24.597Z</time>
      </trkpt>
      <trkpt lat="44.41347" lon="1.01653">
        <ele>166.70918273926</ele>
        <time>2019-04-17T21:47:32.026Z</time>
      </trkpt>
      <trkpt lat="44.41366" lon="1.01662">
        <ele>167.64781188965</ele>
        <time>2019-04-17T21:47:39.459Z</time>
      </trkpt>
      <trkpt lat="44.41388" lon="1.01704">
        <ele>170.11940002441</ele>
        <time>2019-04-17T21:47:46.899Z</time>
      </trkpt>
      <trkpt lat="44.41403" lon="1.01763">
        <ele>172.99760437012</ele>
        <time>2019-04-17T21:47:54.348Z</time>
      </trkpt>
      <trkpt lat="44.41421" lon="1.01763">
        <ele>172.13374328613</ele>
        <time>2019-04-17T21:48:01.801Z</time>
      </trkpt>
      <trkpt lat="44.41425" lon="1.01748">
        <ele>171.22189331055</ele>
        <time>2019-04-17T21:48:09.256Z</time>
      </trkpt>
      <trkpt lat="44.41419" lon="1.01698">
        <ele>168.12773132324</ele>
        <time>2019-04-17T21:48:16.718Z</time>
      </trkpt>
      <trkpt lat="44.41479" lon="1.01777">
        <ele>171.48135375977</ele>
        <time>2019-04-17T21:48:24.197Z</time>
      </trkpt>
      <trkpt lat="44.4152" lon="1.01803">
        <ele>172.72914123535</ele>
        <time>2019-04-17T21:48:31.685Z</time>
      </trkpt>
      <trkpt lat="44.41584" lon="1.01826">
        <ele>178.82957458496</ele>
        <time>2019-04-17T21:48:39.186Z</time>
      </trkpt>
      <trkpt lat="44.41647" lon="1.01851">
        <ele>184.26649475098</ele>
        <time>2019-04-17T21:48:46.700Z</time>
      </trkpt>
      <trkpt lat="44.4172" lon="1.01859">
        <ele>186.3251953125</ele>
        <time>2019-04-17T21:48:54.229Z</time>
      </trkpt>
      <trkpt lat="44.41762" lon="1.01959">
        <ele>192.62782287598</ele>
        <time>2019-04-17T21:49:01.774Z</time>
      </trkpt>
      <trkpt lat="44.4184" lon="1.02111">
        <ele>202.90286254883</ele>
        <time>2019-04-17T21:49:09.346Z</time>
      </trkpt>
      <trkpt lat="44.41899" lon="1.02228">
        <ele>206.6589050293</ele>
        <time>2019-04-17T21:49:16.939Z</time>
      </trkpt>
      <trkpt lat="44.41978" lon="1.02362">
        <ele>210.04643249512</ele>
        <time>2019-04-17T21:49:24.556Z</time>
      </trkpt>
      <trkpt lat="44.42049" lon="1.02484">
        <ele>218.02272033691</ele>
        <time>2019-04-17T21:49:32.196Z</time>
      </trkpt>
      <trkpt lat="44.42067" lon="1.02442">
        <ele>216.65495300293</ele>
        <time>2019-04-17T21:49:39.843Z</time>
      </trkpt>
      <trkpt lat="44.42101" lon="1.02369">
        <ele>214.68858337402</ele>
        <time>2019-04-17T21:49:47.502Z</time>
      </trkpt>
      <trkpt lat="44.42142" lon="1.02381">
        <ele>216.50610351562</ele>
        <time>2019-04-17T21:49:55.170Z</time>
      </trkpt>
      <trkpt lat="44.42184" lon="1.02396">
        <ele>217.74101257324</ele>
        <time>2019-04-17T21:50:02.846Z</time>
      </trkpt>
      <trkpt lat="44.42207" lon="1.02322">
        <ele>218.09936523438</ele>
        <time>2019-04-17T21:50:10.534Z</time>
      </trkpt>
      <trkpt lat="44.42233" lon="1.02253">
        <ele>215.91424560547</ele>
        <time>2019-04-17T21:50:18.233Z</time>
      </trkpt>
      <trkpt lat="44.42289" lon="1.02201">
        <ele>213.03927612305</ele>
        <time>2019-04-17T21:50:25.946Z</time>
      </trkpt>
      <trkpt lat="44.42324" lon="1.02134">
        <ele>210.01499938965</ele>
        <time>2019-04-17T21:50:33.671Z</time>
      </trkpt>
      <trkpt lat="44.42373" lon="1.02061">
        <ele>206.20210266113</ele>
        <time>2019-04-17T21:50:41.410Z</time>
      </trkpt>
      <trkpt lat="44.42422" lon="1.02047">
        <ele>206.11811828613</ele>
        <time>2019-04-17T21:50:49.159Z</time>
      </trkpt>
      <trkpt lat="44.42476" lon="1.02042">
        <ele>206.52606201172</ele>
        <time>2019-04-17T21:50:56.919Z</time>
      </trkpt>
      <trkpt lat="44.42536" lon="1.01976">
        <ele>205.12516784668</ele>
        <time>2019-04-17T21:51:04.694Z</time>
      </trkpt>
      <trkpt lat="44.42584" lon="1.01915">
        <ele>203.34945678711</ele>
        <time>2019-04-17T21:51:12.482Z</time>
      </trkpt>
      <trkpt lat="44.4266" lon="1.01803">
        <ele>204.73878479004</ele>
        <time>2019-04-17T21:51:20.292Z</time>
      </trkpt>
      <trkpt lat="44.42717" lon="1.01724">
        <ele>207.48335266113</ele>
        <time>2019-04-17T21:51:28.118Z</time>
      </trkpt>
      <trkpt lat="44.42755" lon="1.01657">
        <ele>210.80679321289</ele>
        <time>2019-04-17T21:51:35.956Z</time>
      </trkpt>
      <trkpt lat="44.42813" lon="1.0163">
        <ele>213.91069030762</ele>
        <time>2019-04-17T21:51:43.807Z</time>
      </trkpt>
      <trkpt lat="44.42868" lon="1.01619">
        <ele>217.1314239502</ele>
        <time>2019-04-17T21:51:51.669Z</time>
      </trkpt>
      <trkpt lat="44.4292" lon="1.01622">
        <ele>217.61134338379</ele>
        <time>2019-04-17T21:51:59.541Z</time>
      </trkpt>
      <trkpt lat="44.42977" lon="1.01623">
        <ele>218.92929077148</ele>
        <time>2019-04-17T21:52:07.425Z</time>
      </trkpt>
      <trkpt lat="44.43052" lon="1.01632">
        <ele>218.47749328613</ele>
        <time>2019-04-17T21:52:15.324Z</time>
      </trkpt>
      <trkpt lat="44.43082" lon="1.01595">
        <ele>219.77046203613</ele>
        <time>2019-04-17T21:52:23.231Z</time>
      </trkpt>
      <trkpt lat="44.43151" lon="1.01518">
        <ele>219.42547607422</ele>
        <time>2019-04-17T21:52:31.155Z</time>
      </trkpt>
      <trkpt lat="44.43193" lon="1.01487">
        <ele>215.98704528809</ele>
        <time>2019-04-17T21:52:39.089Z</time>
      </trkpt>
      <trkpt lat="44.43238" lon="1.01445">
        <ele>213.65431213379</ele>
        <time>2019-04-17T21:52:47.034Z</time>
      </trkpt>
      <trkpt lat="44.43254" lon="1.01412">
        <ele>212.28680419922</ele>
        <time>2019-04-17T21:52:54.984Z</time>
      </trkpt>
      <trkpt lat="44.43278" lon="1.01374">
        <ele>210.86322021484</ele>
        <time>2019-04-17T21:53:02.942Z</time>
      </trkpt>
      <trkpt lat="44.43306" lon="1.01343">
        <ele>209.04956054688</ele>
        <time>2019-04-17T21:53:10.907Z</time>
      </trkpt>
      <trkpt lat="44.43328" lon="1.01322">
        <ele>207.67785644531</ele>
        <time>2019-04-17T21:53:18.877Z</time>
      </trkpt>
      <trkpt lat="44.43349" lon="1.01295">
        <ele>205.98759460449</ele>
        <time>2019-04-17T21:53:26.853Z</time>
      </trkpt>
      <trkpt lat="44.43382" lon="1.01273">
        <ele>207.36138916016</ele>
        <time>2019-04-17T21:53:34.836Z</time>
      </trkpt>
      <trkpt lat="44.43399" lon="1.01238">
        <ele>206.02439880371</ele>
        <time>2019-04-17T21:53:42.825Z</time>
      </trkpt>
      <trkpt lat="44.4341" lon="1.01182">
        <ele>203.57411193848</ele>
        <time>2019-04-17T21:53:50.822Z</time>
      </trkpt>
      <trkpt lat="44.43419" lon="1.01101">
        <ele>195.34376525879</ele>
        <time>2019-04-17T21:53:58.831Z</time>
      </trkpt>
      <trkpt lat="44.43419" lon="1.01038">
        <ele>189.84111022949</ele>
        <time>2019-04-17T21:54:06.849Z</time>
      </trkpt>
      <trkpt lat="44.43434" lon="1.00984">
        <ele>184.74147033691</ele>
        <time>2019-04-17T21:54:14.876Z</time>
      </trkpt>
      <trkpt lat="44.43454" lon="1.00929">
        <ele>181.04139709473</ele>
        <time>2019-04-17T21:54:22.911Z</time>
      </trkpt>
      <trkpt lat="44.43474" lon="1.00884">
        <ele>178.82568359375</ele>
        <time>2019-04-17T21:54:30.954Z</time>
      </trkpt>
      <trkpt lat="44.43494" lon="1.00852">
        <ele>182.85820007324</ele>
        <time>2019-04-17T21:54:39.003Z</time>
      </trkpt>
      <trkpt lat="44.43518" lon="1.00814">
        <ele>174.65156555176</ele>
        <time>2019-04-17T21:54:47.059Z</time>
      </trkpt>
      <trkpt lat="44.43551" lon="1.00778">
        <ele>175.33065795898</ele>
        <time>2019-04-17T21:54:55.124Z</time>
      </trkpt>
      <trkpt lat="44.43587" lon="1.00755">
        <ele>173.12339782715</ele>
        <time>2019-04-17T21:55:03.197Z</time>
      </trkpt>
      <trkpt lat="44.43617" lon="1.00748">
        <ele>165.91911315918</ele>
        <time>2019-04-17T21:55:11.276Z</time>
      </trkpt>
      <trkpt lat="44.43653" lon="1.0072">
        <ele>160.21237182617</ele>
        <time>2019-04-17T21:55:19.363Z</time>
      </trkpt>
      <trkpt lat="44.43704" lon="1.00694">
        <ele>156.06011962891</ele>
        <time>2019-04-17T21:55:27.461Z</time>
      </trkpt>
      <trkpt lat="44.43723" lon="1.00659">
        <ele>156.6831817627</ele>
        <time>2019-04-17T21:55:35.565Z</time>
      </trkpt>
      <trkpt lat="44.43734" lon="1.00591">
        <ele>154.92807006836</ele>
        <time>2019-04-17T21:55:43.679Z</time>
      </trkpt>
      <trkpt lat="44.4375" lon="1.00542">
        <ele>153.7621307373</ele>
        <time>2019-04-17T21:55:51.801Z</time>
      </trkpt>
      <trkpt lat="44.43732" lon="1.00501">
        <ele>153.59794616699</ele>
        <time>2019-04-17T21:55:59.930Z</time>
      </trkpt>
      <trkpt lat="44.43719" lon="1.00455">
        <ele>154.20031738281</ele>
        <time>2019-04-17T21:56:08.066Z</time>
      </trkpt>
      <trkpt lat="44.43705" lon="1.00389">
        <ele>151.97361755371</ele>
        <time>2019-04-17T21:56:16.212Z</time>
      </trkpt>
      <trkpt lat="44.43709" lon="1.00334">
        <ele>153.2574005127</ele>
        <time>2019-04-17T21:56:24.366Z</time>
      </trkpt>
      <trkpt lat="44.43718" lon="1.00282">
        <ele>153.51002502441</ele>
        <time>2019-04-17T21:56:32.527Z</time>
      </trkpt>
      <trkpt lat="44.43738" lon="1.00231">
        <ele>151.24600219727</ele>
        <time>2019-04-17T21:56:40.697Z</time>
      </trkpt>
      <trkpt lat="44.43755" lon="1.00168">
        <ele>146.84756469727</ele>
        <time>2019-04-17T21:56:48.876Z</time>
      </trkpt>
      <trkpt lat="44.43779" lon="1.00142">
        <ele>143.22418212891</ele>
        <time>2019-04-17T21:56:57.061Z</time>
      </trkpt>
      <trkpt lat="44.43805" lon="1.00057">
        <ele>141.13732910156</ele>
        <time>2019-04-17T21:57:05.260Z</time>
      </trkpt>
      <trkpt lat="44.43832" lon="1.00009">
        <ele>141.90197753906</ele>
        <time>2019-04-17T21:57:13.467Z</time>
      </trkpt>
      <trkpt lat="44.43894" lon="0.99929">
        <ele>140.13973999023</ele>
        <time>2019-04-17T21:57:21.691Z</time>
      </trkpt>
      <trkpt lat="44.4391" lon="0.99973">
        <ele>138.84394836426</ele>
        <time>2019-04-17T21:57:29.922Z</time>
      </trkpt>
      <trkpt lat="44.43911" lon="1.0001">
        <ele>141.74676513672</ele>
        <time>2019-04-17T21:57:38.159Z</time>
      </trkpt>
      <trkpt lat="44.43906" lon="1.00077">
        <ele>147.76223754883</ele>
        <time>2019-04-17T21:57:46.405Z</time>
      </trkpt>
      <trkpt lat="44.43914" lon="1.00142">
        <ele>155.86175537109</ele>
        <time>2019-04-17T21:57:54.661Z</time>
      </trkpt>
      <trkpt lat="44.43935" lon="1.00201">
        <ele>159.60513305664</ele>
        <time>2019-04-17T21:58:02.926Z</time>
      </trkpt>
      <trkpt lat="44.43959" lon="1.00267">
        <ele>165.21852111816</ele>
        <time>2019-04-17T21:58:11.202Z</time>
      </trkpt>
      <trkpt lat="44.43984" lon="1.00309">
        <ele>167.4766998291</ele>
        <time>2019-04-17T21:58:19.486Z</time>
      </trkpt>
      <trkpt lat="44.44029" lon="1.0035">
        <ele>167.9326171875</ele>
        <time>2019-04-17T21:58:27.780Z</time>
      </trkpt>
      <trkpt lat="44.44071" lon="1.00382">
        <ele>170.62612915039</ele>
        <time>2019-04-17T21:58:36.084Z</time>
      </trkpt>
      <trkpt lat="44.44148" lon="1.00385">
        <ele>170.46835327148</ele>
        <time>2019-04-17T21:58:44.403Z</time>
      </trkpt>
      <trkpt lat="44.44208" lon="1.00402">
        <ele>171.58673095703</ele>
        <time>2019-04-17T21:58:52.734Z</time>
      </trkpt>
      <trkpt lat="44.44267" lon="1.00444">
        <ele>174.63743591309</ele>
        <time>2019-04-17T21:59:01.079Z</time>
      </trkpt>
      <trkpt lat="44.44305" lon="1.00491">
        <ele>178.63578796387</ele>
        <time>2019-04-17T21:59:09.434Z</time>
      </trkpt>
      <trkpt lat="44.44329" lon="1.0055">
        <ele>186.22438049316</ele>
        <time>2019-04-17T21:59:17.799Z</time>
      </trkpt>
      <trkpt lat="44.44331" lon="1.00589">
        <ele>190.26615905762</ele>
        <time>2019-04-17T21:59:26.169Z</time>
      </trkpt>
      <trkpt lat="44.44338" lon="1.00618">
        <ele>193.43319702148</ele>
        <time>2019-04-17T21:59:34.544Z</time>
      </trkpt>
      <trkpt lat="44.44353" lon="1.00649">
        <ele>197.2339630127</ele>
        <time>2019-04-17T21:59:42.924Z</time>
      </trkpt>
      <trkpt lat="44.44363" lon="1.00678">
        <ele>200.37744140625</ele>
        <time>2019-04-17T21:59:51.309Z</time>
      </trkpt>
      <trkpt lat="44.4438" lon="1.00698">
        <ele>202.56698608398</ele>
        <time>2019-04-17T21:59:59.698Z</time>
      </trkpt>
      <trkpt lat="44.4439" lon="1.00712">
        <ele>204.03074645996</ele>
        <time>2019-04-17T22:00:08.090Z</time>
      </trkpt>
      <trkpt lat="44.44395" lon="1.00731">
        <ele>205.91442871094</ele>
        <time>2019-04-17T22:00:16.485Z</time>
      </trkpt>
      <trkpt lat="44.44396" lon="1.00756">
        <ele>208.3334197998</ele>
        <time>2019-04-17T22:00:24.883Z</time>
      </trkpt>
      <trkpt lat="44.44398" lon="1.00781">
        <ele>211.03297424316</ele>
        <time>2019-04-17T22:00:33.285Z</time>
      </trkpt>
      <trkpt lat="44.44408" lon="1.00807">
        <ele>213.84049987793</ele>
        <time>2019-04-17T22:00:41.691Z</time>
      </trkpt>
      <trkpt lat="44.44424" lon="1.00823">
        <ele>215.04547119141</ele>
        <time>2019-04-17T22:00:50.101Z</time>
      </trkpt>
      <trkpt lat="44.44436" lon="1.00822">
        <ele>214.9734954834</ele>
        <time>2019-04-17T22:00:58.514Z</time>
      </trkpt>
      <trkpt lat="44.44452" lon="1.00808">
        <ele>214.16343688965</ele>
        <time>2019-04-17T22:01:06.930Z</time>
      </trkpt>
      <trkpt lat="44.44452" lon="1.00817">
        <ele>214.64842224121</ele>
        <time>2019-04-17T22:01:15.348Z</time>
      </trkpt>
      <trkpt lat="44.44443" lon="1.00838">
        <ele>216.12528991699</ele>
        <time>2019-04-17T22:01:23.769Z</time>
      </trkpt>
      <trkpt lat="44.44429" lon="1.00857">
        <ele>217.49307250977</ele>
        <time>2019-04-17T22:01:32.194Z</time>
      </trkpt>
      <trkpt lat="44.4441" lon="1.00873">
        <ele>219.13125610352</ele>
        <time>2019-04-17T22:01:40.623Z</time>
      </trkpt>
      <trkpt lat="44.44386" lon="1.00893">
        <ele>221.57041931152</ele>
        <time>2019-04-17T22:01:49.058Z</time>
      </trkpt>
      <trkpt lat="44.44348" lon="1.00981">
        <ele>225.93006896973</ele>
        <time>2019-04-17T22:01:57.508Z</time>
      </trkpt>
      <trkpt lat="44.44339" lon="1.0103">
        <ele>225.34216308594</ele>
        <time>2019-04-17T22:02:05.965Z</time>
      </trkpt>
      <trkpt lat="44.44384" lon="1.01059">
        <ele>224.77522277832</ele>
        <time>2019-04-17T22:02:14.432Z</time>
      </trkpt>
      <trkpt lat="44.44439" lon="1.01119">
        <ele>223.39544677734</ele>
        <time>2019-04-17T22:02:22.913Z</time>
      </trkpt>
      <trkpt lat="44.44468" lon="1.01198">
        <ele>222.76614379883</ele>
        <time>2019-04-17T22:02:31.407Z</time>
      </trkpt>
      <trkpt lat="44.4448" lon="1.01206">
        <ele>222.28622436523</ele>
        <time>2019-04-17T22:02:39.903Z</time>
      </trkpt>
      <trkpt lat="44.44519" lon="1.01147">
        <ele>222.81520080566</ele>
        <time>2019-04-17T22:02:48.411Z</time>
      </trkpt>
      <trkpt lat="44.44554" lon="1.01117">
        <ele>222.30334472656</ele>
        <time>2019-04-17T22:02:56.927Z</time>
      </trkpt>
      <trkpt lat="44.44567" lon="1.01087">
        <ele>222.31628417969</ele>
        <time>2019-04-17T22:03:05.448Z</time>
      </trkpt>
      <trkpt lat="44.44618" lon="1.01061">
        <ele>220.75146484375</ele>
        <time>2019-04-17T22:03:13.980Z</time>
      </trkpt>
      <trkpt lat="44.44685" lon="1.01039">
        <ele>217.7025604248</ele>
        <time>2019-04-17T22:03:22.526Z</time>
      </trkpt>
      <trkpt lat="44.44729" lon="1.0102">
        <ele>216.95317077637</ele>
        <time>2019-04-17T22:03:31.081Z</time>
      </trkpt>
      <trkpt lat="44.44773" lon="1.01013">
        <ele>213.79640197754</ele>
        <time>2019-04-17T22:03:39.645Z</time>
      </trkpt>
      <trkpt lat="44.44809" lon="1.01008">
        <ele>213</ele>
        <time>2019-04-17T22:03:48.216Z</time>
      </trkpt>
      <trkpt lat="44.44833" lon="1.00989">
        <ele>210.35884094238</ele>
        <time>2019-04-17T22:03:56.792Z</time>
      </trkpt>
      <trkpt lat="44.44858" lon="1.00973">
        <ele>207.5897064209</ele>
        <time>2019-04-17T22:04:05.374Z</time>
      </trkpt>
      <trkpt lat="44.44876" lon="1.00931">
        <ele>203.86206054688</ele>
        <time>2019-04-17T22:04:13.963Z</time>
      </trkpt>
      <trkpt lat="44.4492" lon="1.00857">
        <ele>196.67630004883</ele>
        <time>2019-04-17T22:04:22.566Z</time>
      </trkpt>
      <trkpt lat="44.44952" lon="1.00802">
        <ele>186.86846923828</ele>
        <time>2019-04-17T22:04:31.179Z</time>
      </trkpt>
      <trkpt lat="44.45002" lon="1.00731">
        <ele>179.91586303711</ele>
        <time>2019-04-17T22:04:39.806Z</time>
      </trkpt>
      <trkpt lat="44.45024" lon="1.0071">
        <ele>176.71853637695</ele>
        <time>2019-04-17T22:04:48.438Z</time>
      </trkpt>
      <trkpt lat="44.45034" lon="1.00694">
        <ele>172.69165039062</ele>
        <time>2019-04-17T22:04:57.074Z</time>
      </trkpt>
      <trkpt lat="44.4503" lon="1.00666">
        <ele>170.31161499023</ele>
        <time>2019-04-17T22:05:05.714Z</time>
      </trkpt>
      <trkpt lat="44.45039" lon="1.00647">
        <ele>167.69078063965</ele>
        <time>2019-04-17T22:05:14.357Z</time>
      </trkpt>
      <trkpt lat="44.45078" lon="1.00618">
        <ele>167.38562011719</ele>
        <time>2019-04-17T22:05:23.009Z</time>
      </trkpt>
      <trkpt lat="44.45139" lon="1.00603">
        <ele>158.08628845215</ele>
        <time>2019-04-17T22:05:31.673Z</time>
      </trkpt>
      <trkpt lat="44.45172" lon="1.00582">
        <ele>151.55107116699</ele>
        <time>2019-04-17T22:05:40.344Z</time>
      </trkpt>
      <trkpt lat="44.4519" lon="1.00601">
        <ele>150.12330627441</ele>
        <time>2019-04-17T22:05:49.020Z</time>
      </trkpt>
      <trkpt lat="44.45224" lon="1.00594">
        <ele>143.22970581055</ele>
        <time>2019-04-17T22:05:57.703Z</time>
      </trkpt>
      <trkpt lat="44.45278" lon="1.0059">
        <ele>135.92652893066</ele>
        <time>2019-04-17T22:06:06.397Z</time>
      </trkpt>
      <trkpt lat="44.45336" lon="1.00566">
        <ele>140.40110778809</ele>
        <time>2019-04-17T22:06:15.103Z</time>
      </trkpt>
      <trkpt lat="44.45385" lon="1.00516">
        <ele>148.01362609863</ele>
        <time>2019-04-17T22:06:23.821Z</time>
      </trkpt>
      <trkpt lat="44.45439" lon="1.00486">
        <ele>151.16218566895</ele>
        <time>2019-04-17T22:06:32.550Z</time>
      </trkpt>
      <trkpt lat="44.45512" lon="1.00446">
        <ele>156.58200073242</ele>
        <time>2019-04-17T22:06:41.295Z</time>
      </trkpt>
      <trkpt lat="44.4561" lon="1.00415">
        <ele>157.20585632324</ele>
        <time>2019-04-17T22:06:50.060Z</time>
      </trkpt>
      <trkpt lat="44.457" lon="1.0036">
        <ele>160.83702087402</ele>
        <time>2019-04-17T22:06:58.845Z</time>
      </trkpt>
      <trkpt lat="44.4578" lon="1.00299">
        <ele>158.68775939941</ele>
        <time>2019-04-17T22:07:07.648Z</time>
      </trkpt>
      <trkpt lat="44.45838" lon="1.00263">
        <ele>164.81376647949</ele>
        <time>2019-04-17T22:07:16.464Z</time>
      </trkpt>
      <trkpt lat="44.45919" lon="1.00226">
        <ele>165.31762695312</ele>
        <time>2019-04-17T22:07:25.297Z</time>
      </trkpt>
      <trkpt lat="44.45992" lon="1.00211">
        <ele>167.36064147949</ele>
        <time>2019-04-17T22:07:34.145Z</time>
      </trkpt>
      <trkpt lat="44.46044" lon="1.00235">
        <ele>169.53065490723</ele>
        <time>2019-04-17T22:07:43.004Z</time>
      </trkpt>
      <trkpt lat="44.46108" lon="1.00234">
        <ele>174.06590270996</ele>
        <time>2019-04-17T22:07:51.875Z</time>
      </trkpt>
      <trkpt lat="44.46159" lon="1.00224">
        <ele>175.10624694824</ele>
        <time>2019-04-17T22:08:00.757Z</time>
      </trkpt>
      <trkpt lat="44.4622" lon="1.00242">
        <ele>177.89082336426</ele>
        <time>2019-04-17T22:08:09.651Z</time>
      </trkpt>
      <trkpt lat="44.46262" lon="1.00239">
        <ele>180.84233093262</ele>
        <time>2019-04-17T22:08:18.554Z</time>
      </trkpt>
      <trkpt lat="44.46314" lon="1.00154">
        <ele>187.85359191895</ele>
        <time>2019-04-17T22:08:27.473Z</time>
      </trkpt>
      <trkpt lat="44.46375" lon="1.00095">
        <ele>192.54672241211</ele>
        <time>2019-04-17T22:08:36.406Z</time>
      </trkpt>
      <trkpt lat="44.46397" lon="1.00178">
        <ele>193.67741394043</ele>
        <time>2019-04-17T22:08:45.352Z</time>
      </trkpt>
      <trkpt lat="44.46406" lon="1.00272">
        <ele>194.87377929688</ele>
        <time>2019-04-17T22:08:54.312Z</time>
      </trkpt>
      <trkpt lat="44.46401" lon="1.0034">
        <ele>194.51383972168</ele>
        <time>2019-04-17T22:09:03.281Z</time>
      </trkpt>
      <trkpt lat="44.46386" lon="1.00394">
        <ele>197.1305847168</ele>
        <time>2019-04-17T22:09:12.259Z</time>
      </trkpt>
      <trkpt lat="44.46432" lon="1.0045">
        <ele>194.99494934082</ele>
        <time>2019-04-17T22:09:21.249Z</time>
      </trkpt>
      <trkpt lat="44.46464" lon="1.00495">
        <ele>191.21455383301</ele>
        <time>2019-04-17T22:09:30.248Z</time>
      </trkpt>
      <trkpt lat="44.46511" lon="1.00527">
        <ele>185.20761108398</ele>
        <time>2019-04-17T22:09:39.257Z</time>
      </trkpt>
      <trkpt lat="44.46566" lon="1.00591">
        <ele>176.27182006836</ele>
        <time>2019-04-17T22:09:48.281Z</time>
      </trkpt>
      <trkpt lat="44.46612" lon="1.00624">
        <ele>170.74073791504</ele>
        <time>2019-04-17T22:09:57.315Z</time>
      </trkpt>
      <trkpt lat="44.46675" lon="1.00683">
        <ele>159.11004638672</ele>
        <time>2019-04-17T22:10:06.364Z</time>
      </trkpt>
      <trkpt lat="44.46727" lon="1.00746">
        <ele>156.76344299316</ele>
        <time>2019-04-17T22:10:15.427Z</time>
      </trkpt>
      <trkpt lat="44.46768" lon="1.00743">
        <ele>154.89175415039</ele>
        <time>2019-04-17T22:10:24.498Z</time>
      </trkpt>
      <trkpt lat="44.46839" lon="1.00785">
        <ele>153.83467102051</ele>
        <time>2019-04-17T22:10:33.585Z</time>
      </trkpt>
      <trkpt lat="44.4687" lon="1.00807">
        <ele>153.36956787109</ele>
        <time>2019-04-17T22:10:42.679Z</time>
      </trkpt>
      <trkpt lat="44.46876" lon="1.00888">
        <ele>156.04611206055</ele>
        <time>2019-04-17T22:10:51.784Z</time>
      </trkpt>
      <trkpt lat="44.46874" lon="1.00941">
        <ele>157.58155822754</ele>
        <time>2019-04-17T22:11:00.897Z</time>
      </trkpt>
      <trkpt lat="44.46854" lon="1.01045">
        <ele>161.35119628906</ele>
        <time>2019-04-17T22:11:10.025Z</time>
      </trkpt>
      <trkpt lat="44.46883" lon="1.01074">
        <ele>155.41262817383</ele>
        <time>2019-04-17T22:11:19.161Z</time>
      </trkpt>
      <trkpt lat="44.46913" lon="1.01098">
        <ele>149.14967346191</ele>
        <time>2019-04-17T22:11:28.303Z</time>
      </trkpt>
      <trkpt lat="44.46946" lon="1.01149">
        <ele>141.67251586914</ele>
        <time>2019-04-17T22:11:37.455Z</time>
      </trkpt>
      <trkpt lat="44.46981" lon="1.01161">
        <ele>137.74792480469</ele>
        <time>2019-04-17T22:11:46.614Z</time>
      </trkpt>
      <trkpt lat="44.47012" lon="1.01212">
        <ele>134.16052246094</ele>
        <time>2019-04-17T22:11:55.783Z</time>
      </trkpt>
      <trkpt lat="44.4705" lon="1.01216">
        <ele>130.87649536133</ele>
        <time>2019-04-17T22:12:04.960Z</time>
      </trkpt>
      <trkpt lat="44.47089" lon="1.01193">
        <ele>128.28482055664</ele>
        <time>2019-04-17T22:12:14.145Z</time>
      </trkpt>
      <trkpt lat="44.4709" lon="1.01304">
        <ele>124.62467193604</ele>
        <time>2019-04-17T22:12:23.346Z</time>
      </trkpt>
      <trkpt lat="44.47091" lon="1.01382">
        <ele>118.80196380615</ele>
        <time>2019-04-17T22:12:32.558Z</time>
      </trkpt>
      <trkpt lat="44.47099" lon="1.01485">
        <ele>114.15372467041</ele>
        <time>2019-04-17T22:12:41.785Z</time>
      </trkpt>
      <trkpt lat="44.47104" lon="1.01545">
        <ele>112.77395629883</ele>
        <time>2019-04-17T22:12:51.021Z</time>
      </trkpt>
      <trkpt lat="44.4711" lon="1.01667">
        <ele>119.10112762451</ele>
        <time>2019-04-17T22:13:00.274Z</time>
      </trkpt>
      <trkpt lat="44.47097" lon="1.01813">
        <ele>125.61308288574</ele>
        <time>2019-04-17T22:13:09.548Z</time>
      </trkpt>
      <trkpt lat="44.47083" lon="1.01911">
        <ele>131.43200683594</ele>
        <time>2019-04-17T22:13:18.837Z</time>
      </trkpt>
      <trkpt lat="44.47081" lon="1.02021">
        <ele>135.27627563477</ele>
        <time>2019-04-17T22:13:28.141Z</time>
      </trkpt>
      <trkpt lat="44.47093" lon="1.02129">
        <ele>137.78639221191</ele>
        <time>2019-04-17T22:13:37.461Z</time>
      </trkpt>
      <trkpt lat="44.47126" lon="1.02261">
        <ele>143.69883728027</ele>
        <time>2019-04-17T22:13:46.801Z</time>
      </trkpt>
      <trkpt lat="44.47159" lon="1.02379">
        <ele>147.8973236084</ele>
        <time>2019-04-17T22:13:56.159Z</time>
      </trkpt>
      <trkpt lat="44.47174" lon="1.02444">
        <ele>149.79389953613</ele>
        <time>2019-04-17T22:14:05.527Z</time>
      </trkpt>
      <trkpt lat="44.47173" lon="1.0251">
        <ele>152.33403015137</ele>
        <time>2019-04-17T22:14:14.904Z</time>
      </trkpt>
      <trkpt lat="44.47151" lon="1.02584">
        <ele>155.24273681641</ele>
        <time>2019-04-17T22:14:24.293Z</time>
      </trkpt>
      <trkpt lat="44.47133" lon="1.02676">
        <ele>155.56712341309</ele>
        <time>2019-04-17T22:14:33.696Z</time>
      </trkpt>
      <trkpt lat="44.47133" lon="1.02676">
        <ele>155.57131958008</ele>
        <time>2019-04-17T22:14:43.099Z</time>
      </trkpt>
      <trkpt lat="44.47136" lon="1.02743">
        <ele>153.57498168945</ele>
        <time>2019-04-17T22:14:52.511Z</time>
      </trkpt>
      <trkpt lat="44.47167" lon="1.02818">
        <ele>153.17657470703</ele>
        <time>2019-04-17T22:15:01.936Z</time>
      </trkpt>
      <trkpt lat="44.47172" lon="1.0292">
        <ele>159.63493347168</ele>
        <time>2019-04-17T22:15:11.375Z</time>
      </trkpt>
      <trkpt lat="44.47182" lon="1.03001">
        <ele>160.65533447266</ele>
        <time>2019-04-17T22:15:20.826Z</time>
      </trkpt>
      <trkpt lat="44.47165" lon="1.03079">
        <ele>163.97273254395</ele>
        <time>2019-04-17T22:15:30.289Z</time>
      </trkpt>
      <trkpt lat="44.47183" lon="1.03221">
        <ele>166.9454498291</ele>
        <time>2019-04-17T22:15:39.772Z</time>
      </trkpt>
      <trkpt lat="44.47173" lon="1.03257">
        <ele>170.39640808105</ele>
        <time>2019-04-17T22:15:49.261Z</time>
      </trkpt>
      <trkpt lat="44.47175" lon="1.03312">
        <ele>174.41889953613</ele>
        <time>2019-04-17T22:15:58.758Z</time>
      </trkpt>
      <trkpt lat="44.47202" lon="1.03453">
        <ele>185.19769287109</ele>
        <time>2019-04-17T22:16:08.276Z</time>
      </trkpt>
      <trkpt lat="44.47209" lon="1.03521">
        <ele>190.3385925293</ele>
        <time>2019-04-17T22:16:17.804Z</time>
      </trkpt>
      <trkpt lat="44.4719" lon="1.03641">
        <ele>203.0131072998</ele>
        <time>2019-04-17T22:16:27.349Z</time>
      </trkpt>
      <trkpt lat="44.47162" lon="1.03748">
        <ele>207.00299072266</ele>
        <time>2019-04-17T22:16:36.910Z</time>
      </trkpt>
      <trkpt lat="44.47138" lon="1.03844">
        <ele>210.05590820312</ele>
        <time>2019-04-17T22:16:46.486Z</time>
      </trkpt>
      <trkpt lat="44.47094" lon="1.03945">
        <ele>209.20558166504</ele>
        <time>2019-04-17T22:16:56.079Z</time>
      </trkpt>
      <trkpt lat="44.47064" lon="1.0404">
        <ele>210.56527709961</ele>
        <time>2019-04-17T22:17:05.687Z</time>
      </trkpt>
      <trkpt lat="44.47025" lon="1.04139">
        <ele>216.48487854004</ele>
        <time>2019-04-17T22:17:15.311Z</time>
      </trkpt>
      <trkpt lat="44.46972" lon="1.04262">
        <ele>216.72575378418</ele>
        <time>2019-04-17T22:17:24.956Z</time>
      </trkpt>
      <trkpt lat="44.46924" lon="1.04364">
        <ele>217.64691162109</ele>
        <time>2019-04-17T22:17:34.618Z</time>
      </trkpt>
      <trkpt lat="44.46908" lon="1.04391">
        <ele>217.03378295898</ele>
        <time>2019-04-17T22:17:44.285Z</time>
      </trkpt>
      <trkpt lat="44.46864" lon="1.04417">
        <ele>217.24314880371</ele>
        <time>2019-04-17T22:17:53.962Z</time>
      </trkpt>
      <trkpt lat="44.46803" lon="1.04486">
        <ele>215.72650146484</ele>
        <time>2019-04-17T22:18:03.654Z</time>
      </trkpt>
      <trkpt lat="44.46805" lon="1.04542">
        <ele>215.79849243164</ele>
        <time>2019-04-17T22:18:13.354Z</time>
      </trkpt>
      <trkpt lat="44.46783" lon="1.04604">
        <ele>215.01104736328</ele>
        <time>2019-04-17T22:18:23.064Z</time>
      </trkpt>
      <trkpt lat="44.46758" lon="1.04661">
        <ele>214.10678100586</ele>
        <time>2019-04-17T22:18:32.784Z</time>
      </trkpt>
      <trkpt lat="44.46822" lon="1.04686">
        <ele>218.76104736328</ele>
        <time>2019-04-17T22:18:42.517Z</time>
      </trkpt>
      <trkpt lat="44.46857" lon="1.04704">
        <ele>221.66575622559</ele>
        <time>2019-04-17T22:18:52.258Z</time>
      </trkpt>
      <trkpt lat="44.46899" lon="1.04785">
        <ele>223.47160339355</ele>
        <time>2019-04-17T22:19:02.013Z</time>
      </trkpt>
      <trkpt lat="44.46914" lon="1.04848">
        <ele>223.25564575195</ele>
        <time>2019-04-17T22:19:11.777Z</time>
      </trkpt>
      <trkpt lat="44.46946" lon="1.04874">
        <ele>224.09550476074</ele>
        <time>2019-04-17T22:19:21.549Z</time>
      </trkpt>
      <trkpt lat="44.47007" lon="1.04932">
        <ele>226.32757568359</ele>
        <time>2019-04-17T22:19:31.336Z</time>
      </trkpt>
      <trkpt lat="44.47057" lon="1.04973">
        <ele>227.93190002441</ele>
        <time>2019-04-17T22:19:41.134Z</time>
      </trkpt>
      <trkpt lat="44.47134" lon="1.05034">
        <ele>228.81243896484</ele>
        <time>2019-04-17T22:19:50.950Z</time>
      </trkpt>
      <trkpt lat="44.47168" lon="1.05041">
        <ele>226.61680603027</ele>
        <time>2019-04-17T22:20:00.773Z</time>
      </trkpt>
      <trkpt lat="44.47231" lon="1.05007">
        <ele>219.11477661133</ele>
        <time>2019-04-17T22:20:10.609Z</time>
      </trkpt>
      <trkpt lat="44.47313" lon="1.04959">
        <ele>213.25746154785</ele>
        <time>2019-04-17T22:20:20.463Z</time>
      </trkpt>
      <trkpt lat="44.47337" lon="1.04913">
        <ele>208.37156677246</ele>
        <time>2019-04-17T22:20:30.325Z</time>
      </trkpt>
      <trkpt lat="44.47357" lon="1.04845">
        <ele>200.62130737305</ele>
        <time>2019-04-17T22:20:40.198Z</time>
      </trkpt>
      <trkpt lat="44.47386" lon="1.0476">
        <ele>189.87249755859</ele>
        <time>2019-04-17T22:20:50.084Z</time>
      </trkpt>
      <trkpt lat="44.47396" lon="1.04695">
        <ele>186.04179382324</ele>
        <time>2019-04-17T22:20:59.980Z</time>
      </trkpt>
      <trkpt lat="44.47405" lon="1.0461">
        <ele>179.93550109863</ele>
        <time>2019-04-17T22:21:09.888Z</time>
      </trkpt>
      <trkpt lat="44.47438" lon="1.04503">
        <ele>173.30212402344</ele>
        <time>2019-04-17T22:21:19.813Z</time>
      </trkpt>
      <trkpt lat="44.4747" lon="1.04453">
        <ele>166.76393127441</ele>
        <time>2019-04-17T22:21:29.747Z</time>
      </trkpt>
      <trkpt lat="44.47492" lon="1.04456">
        <ele>168.80358886719</ele>
        <time>2019-04-17T22:21:39.686Z</time>
      </trkpt>
      <trkpt lat="44.47508" lon="1.04498">
        <ele>177.17277526855</ele>
        <time>2019-04-17T22:21:49.632Z</time>
      </trkpt>
      <trkpt lat="44.47527" lon="1.04548">
        <ele>184.31158447266</ele>
        <time>2019-04-17T22:21:59.586Z</time>
      </trkpt>
      <trkpt lat="44.47521" lon="1.04575">
        <ele>184.95048522949</ele>
        <time>2019-04-17T22:22:09.544Z</time>
      </trkpt>
      <trkpt lat="44.4751" lon="1.04669">
        <ele>186.02667236328</ele>
        <time>2019-04-17T22:22:19.515Z</time>
      </trkpt>
      <trkpt lat="44.47524" lon="1.0471">
        <ele>186.31462097168</ele>
        <time>2019-04-17T22:22:29.493Z</time>
      </trkpt>
      <trkpt lat="44.47562" lon="1.04697">
        <ele>182.17744445801</ele>
        <time>2019-04-17T22:22:39.479Z</time>
      </trkpt>
      <trkpt lat="44.476" lon="1.0468">
        <ele>171.44331359863</ele>
        <time>2019-04-17T22:22:49.473Z</time>
      </trkpt>
      <trkpt lat="44.47634" lon="1.04717">
        <ele>168.49728393555</ele>
        <time>2019-04-17T22:22:59.475Z</time>
      </trkpt>
      <trkpt lat="44.47666" lon="1.04773">
        <ele>168.22845458984</ele>
        <time>2019-04-17T22:23:09.488Z</time>
      </trkpt>
      <trkpt lat="44.47678" lon="1.04823">
        <ele>172.26071166992</ele>
        <time>2019-04-17T22:23:19.508Z</time>
      </trkpt>
      <trkpt lat="44.47692" lon="1.04858">
        <ele>175.11624145508</ele>
        <time>2019-04-17T22:23:29.534Z</time>
      </trkpt>
      <trkpt lat="44.47745" lon="1.04921">
        <ele>160.85514831543</ele>
        <time>2019-04-17T22:23:39.574Z</time>
      </trkpt>
      <trkpt lat="44.4776" lon="1.04949">
        <ele>159.42738342285</ele>
        <time>2019-04-17T22:23:49.619Z</time>
      </trkpt>
      <trkpt lat="44.47777" lon="1.04997">
        <ele>154.57377624512</ele>
        <time>2019-04-17T22:23:59.671Z</time>
      </trkpt>
      <trkpt lat="44.47828" lon="1.05058">
        <ele>133.20449829102</ele>
        <time>2019-04-17T22:24:09.737Z</time>
      </trkpt>
      <trkpt lat="44.47841" lon="1.05085">
        <ele>127.71919250488</ele>
        <time>2019-04-17T22:24:19.808Z</time>
      </trkpt>
      <trkpt lat="44.47823" lon="1.05124">
        <ele>128.42776489258</ele>
        <time>2019-04-17T22:24:29.885Z</time>
      </trkpt>
      <trkpt lat="44.47785" lon="1.05164">
        <ele>125.17017364502</ele>
        <time>2019-04-17T22:24:39.972Z</time>
      </trkpt>
      <trkpt lat="44.47737" lon="1.0525">
        <ele>118.27680969238</ele>
        <time>2019-04-17T22:24:50.074Z</time>
      </trkpt>
      <trkpt lat="44.47687" lon="1.05359">
        <ele>112.14572143555</ele>
        <time>2019-04-17T22:25:00.195Z</time>
      </trkpt>
      <trkpt lat="44.47674" lon="1.05446">
        <ele>112.30630493164</ele>
        <time>2019-04-17T22:25:10.329Z</time>
      </trkpt>
      <trkpt lat="44.47688" lon="1.05471">
        <ele>110.95570373535</ele>
        <time>2019-04-17T22:25:20.467Z</time>
      </trkpt>
      <trkpt lat="44.47742" lon="1.05469">
        <ele>107.20941162109</ele>
        <time>2019-04-17T22:25:30.616Z</time>
      </trkpt>
      <trkpt lat="44.47796" lon="1.05461">
        <ele>102.52017974854</ele>
        <time>2019-04-17T22:25:40.776Z</time>
      </trkpt>
      <trkpt lat="44.47834" lon="1.05429">
        <ele>96.113250732422</ele>
        <time>2019-04-17T22:25:50.945Z</time>
      </trkpt>
      <trkpt lat="44.47904" lon="1.0539">
        <ele>90.185317993164</ele>
        <time>2019-04-17T22:26:01.129Z</time>
      </trkpt>
      <trkpt lat="44.47982" lon="1.05348">
        <ele>92.179878234863</ele>
        <time>2019-04-17T22:26:11.329Z</time>
      </trkpt>
      <trkpt lat="44.4802" lon="1.0529">
        <ele>88.659332275391</ele>
        <time>2019-04-17T22:26:21.541Z</time>
      </trkpt>
      <trkpt lat="44.48085" lon="1.05345">
        <ele>92.660446166992</ele>
        <time>2019-04-17T22:26:31.768Z</time>
      </trkpt>
      <trkpt lat="44.4815" lon="1.0539">
        <ele>95.764503479004</ele>
        <time>2019-04-17T22:26:42.009Z</time>
      </trkpt>
      <trkpt lat="44.48246" lon="1.05455">
        <ele>94.482536315918</ele>
        <time>2019-04-17T22:26:52.272Z</time>
      </trkpt>
      <trkpt lat="44.48347" lon="1.05499">
        <ele>86.394668579102</ele>
        <time>2019-04-17T22:27:02.556Z</time>
      </trkpt>
      <trkpt lat="44.48458" lon="1.05575">
        <ele>85.381866455078</ele>
        <time>2019-04-17T22:27:12.865Z</time>
      </trkpt>
      <trkpt lat="44.48531" lon="1.05618">
        <ele>85.173011779785</ele>
        <time>2019-04-17T22:27:23.190Z</time>
      </trkpt>
      <trkpt lat="44.48627" lon="1.05655">
        <ele>83.112121582031</ele>
        <time>2019-04-17T22:27:33.534Z</time>
      </trkpt>
      <trkpt lat="44.48732" lon="1.05691">
        <ele>81.90673828125</ele>
        <time>2019-04-17T22:27:43.900Z</time>
      </trkpt>
      <trkpt lat="44.48806" lon="1.05707">
        <ele>81.364082336426</ele>
        <time>2019-04-17T22:27:54.281Z</time>
      </trkpt>
      <trkpt lat="44.48896" lon="1.05741">
        <ele>85.158103942871</ele>
        <time>2019-04-17T22:28:04.681Z</time>
      </trkpt>
      <trkpt lat="44.48939" lon="1.0574">
        <ele>85.554039001465</ele>
        <time>2019-04-17T22:28:15.089Z</time>
      </trkpt>
      <trkpt lat="44.49061" lon="1.05756">
        <ele>82.160369873047</ele>
        <time>2019-04-17T22:28:25.522Z</time>
      </trkpt>
      <trkpt lat="44.49139" lon="1.05751">
        <ele>79.362182617188</ele>
        <time>2019-04-17T22:28:35.970Z</time>
      </trkpt>
      <trkpt lat="44.49179" lon="1.05712">
        <ele>78.832466125488</ele>
        <time>2019-04-17T22:28:46.428Z</time>
      </trkpt>
      <trkpt lat="44.49283" lon="1.05694">
        <ele>79.849517822266</ele>
        <time>2019-04-17T22:28:56.907Z</time>
      </trkpt>
      <trkpt lat="44.49392" lon="1.0566">
        <ele>80</ele>
        <time>2019-04-17T22:29:07.408Z</time>
      </trkpt>
      <trkpt lat="44.49462" lon="1.05648">
        <ele>79.85514831543</ele>
        <time>2019-04-17T22:29:17.924Z</time>
      </trkpt>
      <trkpt lat="44.49514" lon="1.05632">
        <ele>78.976509094238</ele>
        <time>2019-04-17T22:29:28.450Z</time>
      </trkpt>
      <trkpt lat="44.49575" lon="1.05621">
        <ele>79.500625610352</ele>
        <time>2019-04-17T22:29:38.989Z</time>
      </trkpt>
      <trkpt lat="44.49575" lon="1.0553">
        <ele>78.648834228516</ele>
        <time>2019-04-17T22:29:49.541Z</time>
      </trkpt>
      <trkpt lat="44.49583" lon="1.05438">
        <ele>79.05158996582</ele>
        <time>2019-04-17T22:30:00.106Z</time>
      </trkpt>
      <trkpt lat="44.49651" lon="1.05456">
        <ele>80.476440429688</ele>
        <time>2019-04-17T22:30:10.685Z</time>
      </trkpt>
      <trkpt lat="44.49669" lon="1.0546">
        <ele>81.07633972168</ele>
        <time>2019-04-17T22:30:21.267Z</time>
      </trkpt>
      <trkpt lat="44.4968" lon="1.05419">
        <ele>80.63410949707</ele>
        <time>2019-04-17T22:30:31.856Z</time>
      </trkpt>
      <trkpt lat="44.4966" lon="1.05389">
        <ele>79.95711517334</ele>
        <time>2019-04-17T22:30:42.450Z</time>
      </trkpt>
      <trkpt lat="44.4965" lon="1.05349">
        <ele>79.477195739746</ele>
        <time>2019-04-17T22:30:53.051Z</time>
      </trkpt>
      <trkpt lat="44.49634" lon="1.05239">
        <ele>77.208511352539</ele>
        <time>2019-04-17T22:31:03.668Z</time>
      </trkpt>
      <trkpt lat="44.49611" lon="1.05015">
        <ele>75.067443847656</ele>
        <time>2019-04-17T22:31:14.317Z</time>
      </trkpt>
      <trkpt lat="44.49601" lon="1.04888">
        <ele>78.26042175293</ele>
        <time>2019-04-17T22:31:24.984Z</time>
      </trkpt>
      <trkpt lat="44.49656" lon="1.04879">
        <ele>77.673713684082</ele>
        <time>2019-04-17T22:31:35.662Z</time>
      </trkpt>
      <trkpt lat="44.49732" lon="1.04869">
        <ele>77.81844329834</ele>
        <time>2019-04-17T22:31:46.356Z</time>
      </trkpt>
      <trkpt lat="44.49759" lon="1.04866">
        <ele>78.178382873535</ele>
        <time>2019-04-17T22:31:57.055Z</time>
      </trkpt>
      <trkpt lat="44.49782" lon="1.04837">
        <ele>81.657806396484</ele>
        <time>2019-04-17T22:32:07.760Z</time>
      </trkpt>
      <trkpt lat="44.49861" lon="1.04829">
        <ele>83.094116210938</ele>
        <time>2019-04-17T22:32:18.481Z</time>
      </trkpt>
      <trkpt lat="44.49877" lon="1.04795">
        <ele>87.39542388916</ele>
        <time>2019-04-17T22:32:29.208Z</time>
      </trkpt>
      <trkpt lat="44.49876" lon="1.04748">
        <ele>92.386589050293</ele>
        <time>2019-04-17T22:32:39.942Z</time>
      </trkpt>
      <trkpt lat="44.49907" lon="1.04693">
        <ele>102.10964202881</ele>
        <time>2019-04-17T22:32:50.686Z</time>
      </trkpt>
      <trkpt lat="44.49943" lon="1.04639">
        <ele>101.99993133545</ele>
        <time>2019-04-17T22:33:01.440Z</time>
      </trkpt>
      <trkpt lat="44.49969" lon="1.04557">
        <ele>107.21475219727</ele>
        <time>2019-04-17T22:33:12.207Z</time>
      </trkpt>
      <trkpt lat="44.49977" lon="1.04491">
        <ele>109.94468688965</ele>
        <time>2019-04-17T22:33:22.984Z</time>
      </trkpt>
      <trkpt lat="44.5" lon="1.04395">
        <ele>109.3402557373</ele>
        <time>2019-04-17T22:33:33.775Z</time>
      </trkpt>
      <trkpt lat="44.5004" lon="1.04342">
        <ele>106.32205963135</ele>
        <time>2019-04-17T22:33:44.577Z</time>
      </trkpt>
      <trkpt lat="44.50101" lon="1.04209">
        <ele>113.58947753906</ele>
        <time>2019-04-17T22:33:55.402Z</time>
      </trkpt>
      <trkpt lat="44.50146" lon="1.04153">
        <ele>118.06457519531</ele>
        <time>2019-04-17T22:34:06.239Z</time>
      </trkpt>
      <trkpt lat="44.50182" lon="1.04147">
        <ele>118.85643768311</ele>
        <time>2019-04-17T22:34:17.083Z</time>
      </trkpt>
      <trkpt lat="44.50261" lon="1.04161">
        <ele>128.54824829102</ele>
        <time>2019-04-17T22:34:27.943Z</time>
      </trkpt>
      <trkpt lat="44.50301" lon="1.04163">
        <ele>131.05332946777</ele>
        <time>2019-04-17T22:34:38.811Z</time>
      </trkpt>
      <trkpt lat="44.50317" lon="1.04131">
        <ele>129.9426574707</ele>
        <time>2019-04-17T22:34:49.685Z</time>
      </trkpt>
      <trkpt lat="44.50371" lon="1.04183">
        <ele>133.92517089844</ele>
        <time>2019-04-17T22:35:00.572Z</time>
      </trkpt>
      <trkpt lat="44.50452" lon="1.0425">
        <ele>138.27993774414</ele>
        <time>2019-04-17T22:35:11.478Z</time>
      </trkpt>
      <trkpt lat="44.50478" lon="1.04291">
        <ele>141.8073425293</ele>
        <time>2019-04-17T22:35:22.391Z</time>
      </trkpt>
      <trkpt lat="44.50497" lon="1.04363">
        <ele>146.06504821777</ele>
        <time>2019-04-17T22:35:33.315Z</time>
      </trkpt>
      <trkpt lat="44.50524" lon="1.04409">
        <ele>151.56854248047</ele>
        <time>2019-04-17T22:35:44.248Z</time>
      </trkpt>
      <trkpt lat="44.50554" lon="1.04393">
        <ele>152.81285095215</ele>
        <time>2019-04-17T22:35:55.187Z</time>
      </trkpt>
      <trkpt lat="44.50587" lon="1.04342">
        <ele>155.39164733887</ele>
        <time>2019-04-17T22:36:06.136Z</time>
      </trkpt>
      <trkpt lat="44.50605" lon="1.04366">
        <ele>158.70309448242</ele>
        <time>2019-04-17T22:36:17.090Z</time>
      </trkpt>
      <trkpt lat="44.50603" lon="1.04392">
        <ele>159.16070556641</ele>
        <time>2019-04-17T22:36:28.048Z</time>
      </trkpt>
      <trkpt lat="44.50663" lon="1.04365">
        <ele>170.0968170166</ele>
        <time>2019-04-17T22:36:39.019Z</time>
      </trkpt>
      <trkpt lat="44.50706" lon="1.04348">
        <ele>175.00413513184</ele>
        <time>2019-04-17T22:36:49.998Z</time>
      </trkpt>
      <trkpt lat="44.50733" lon="1.04316">
        <ele>176.20843505859</ele>
        <time>2019-04-17T22:37:00.985Z</time>
      </trkpt>
      <trkpt lat="44.50793" lon="1.04299">
        <ele>184.81402587891</ele>
        <time>2019-04-17T22:37:11.984Z</time>
      </trkpt>
      <trkpt lat="44.5083" lon="1.04214">
        <ele>188.9662322998</ele>
        <time>2019-04-17T22:37:22.997Z</time>
      </trkpt>
      <trkpt lat="44.50884" lon="1.04165">
        <ele>193.12564086914</ele>
        <time>2019-04-17T22:37:34.023Z</time>
      </trkpt>
      <trkpt lat="44.50933" lon="1.04142">
        <ele>191.02195739746</ele>
        <time>2019-04-17T22:37:45.059Z</time>
      </trkpt>
      <trkpt lat="44.51002" lon="1.04118">
        <ele>198.09475708008</ele>
        <time>2019-04-17T22:37:56.109Z</time>
      </trkpt>
      <trkpt lat="44.511" lon="1.0408">
        <ele>206.88407897949</ele>
        <time>2019-04-17T22:38:07.180Z</time>
      </trkpt>
      <trkpt lat="44.5111" lon="1.04089">
        <ele>208.05987548828</ele>
        <time>2019-04-17T22:38:18.253Z</time>
      </trkpt>
      <trkpt lat="44.51192" lon="1.04057">
        <ele>209.87544250488</ele>
        <time>2019-04-17T22:38:29.343Z</time>
      </trkpt>
      <trkpt lat="44.51233" lon="1.04046">
        <ele>206.15344238281</ele>
        <time>2019-04-17T22:38:40.442Z</time>
      </trkpt>
      <trkpt lat="44.51268" lon="1.04034">
        <ele>202.54634094238</ele>
        <time>2019-04-17T22:38:51.548Z</time>
      </trkpt>
      <trkpt lat="44.51281" lon="1.04032">
        <ele>201.82646179199</ele>
        <time>2019-04-17T22:39:02.656Z</time>
      </trkpt>
      <trkpt lat="44.51291" lon="1.04013">
        <ele>200.34548950195</ele>
        <time>2019-04-17T22:39:13.768Z</time>
      </trkpt>
      <trkpt lat="44.51294" lon="1.03962">
        <ele>199.20286560059</ele>
        <time>2019-04-17T22:39:24.887Z</time>
      </trkpt>
      <trkpt lat="44.51319" lon="1.03996">
        <ele>198.57485961914</ele>
        <time>2019-04-17T22:39:36.013Z</time>
      </trkpt>
      <trkpt lat="44.51343" lon="1.03999">
        <ele>198.28691101074</ele>
        <time>2019-04-17T22:39:47.144Z</time>
      </trkpt>
      <trkpt lat="44.51382" lon="1.03976">
        <ele>195.08409118652</ele>
        <time>2019-04-17T22:39:58.283Z</time>
      </trkpt>
      <trkpt lat="44.51461" lon="1.03926">
        <ele>178.74641418457</ele>
        <time>2019-04-17T22:40:09.440Z</time>
      </trkpt>
      <trkpt lat="44.51537" lon="1.03886">
        <ele>169.70101928711</ele>
        <time>2019-04-17T22:40:20.613Z</time>
      </trkpt>
      <trkpt lat="44.51622" lon="1.0385">
        <ele>154.49436950684</ele>
        <time>2019-04-17T22:40:31.804Z</time>
      </trkpt>
      <trkpt lat="44.51694" lon="1.03841">
        <ele>143.37382507324</ele>
        <time>2019-04-17T22:40:43.009Z</time>
      </trkpt>
      <trkpt lat="44.51753" lon="1.03861">
        <ele>137.17250061035</ele>
        <time>2019-04-17T22:40:54.226Z</time>
      </trkpt>
      <trkpt lat="44.51827" lon="1.03883">
        <ele>129.73500061035</ele>
        <time>2019-04-17T22:41:05.458Z</time>
      </trkpt>
      <trkpt lat="44.51883" lon="1.03881">
        <ele>125.44033050537</ele>
        <time>2019-04-17T22:41:16.702Z</time>
      </trkpt>
      <trkpt lat="44.51935" lon="1.03912">
        <ele>120.68814086914</ele>
        <time>2019-04-17T22:41:27.957Z</time>
      </trkpt>
      <trkpt lat="44.52008" lon="1.03969">
        <ele>110.63793945312</ele>
        <time>2019-04-17T22:41:39.229Z</time>
      </trkpt>
      <trkpt lat="44.52089" lon="1.04022">
        <ele>105.57820129395</ele>
        <time>2019-04-17T22:41:50.519Z</time>
      </trkpt>
      <trkpt lat="44.52174" lon="1.04065">
        <ele>103.16500091553</ele>
        <time>2019-04-17T22:42:01.827Z</time>
      </trkpt>
      <trkpt lat="44.52238" lon="1.04058">
        <ele>100.6216506958</ele>
        <time>2019-04-17T22:42:13.147Z</time>
      </trkpt>
      <trkpt lat="44.52295" lon="1.04083">
        <ele>99.710639953613</ele>
        <time>2019-04-17T22:42:24.479Z</time>
      </trkpt>
      <trkpt lat="44.52349" lon="1.0412">
        <ele>101.19496154785</ele>
        <time>2019-04-17T22:42:35.823Z</time>
      </trkpt>
      <trkpt lat="44.52401" lon="1.04136">
        <ele>100.95691680908</ele>
        <time>2019-04-17T22:42:47.178Z</time>
      </trkpt>
      <trkpt lat="44.52439" lon="1.04122">
        <ele>99.648399353027</ele>
        <time>2019-04-17T22:42:58.541Z</time>
      </trkpt>
      <trkpt lat="44.52626" lon="1.04344">
        <ele>101</ele>
        <time>2019-04-17T22:43:09.953Z</time>
      </trkpt>
      <trkpt lat="44.527" lon="1.04346">
        <ele>100.44882202148</ele>
        <time>2019-04-17T22:43:21.380Z</time>
      </trkpt>
      <trkpt lat="44.52812" lon="1.04353">
        <ele>99.527191162109</ele>
        <time>2019-04-17T22:43:32.829Z</time>
      </trkpt>
      <trkpt lat="44.52984" lon="1.04363">
        <ele>102.0489730835</ele>
        <time>2019-04-17T22:43:44.313Z</time>
      </trkpt>
      <trkpt lat="44.53044" lon="1.04333">
        <ele>102.87831115723</ele>
        <time>2019-04-17T22:43:55.809Z</time>
      </trkpt>
      <trkpt lat="44.53067" lon="1.04311">
        <ele>103.72547149658</ele>
        <time>2019-04-17T22:44:07.311Z</time>
      </trkpt>
      <trkpt lat="44.53034" lon="1.04242">
        <ele>102.19882965088</ele>
        <time>2019-04-17T22:44:18.825Z</time>
      </trkpt>
      <trkpt lat="44.5305" lon="1.04226">
        <ele>102.39079284668</ele>
        <time>2019-04-17T22:44:30.343Z</time>
      </trkpt>
      <trkpt lat="44.53121" lon="1.04164">
        <ele>104.87703704834</ele>
        <time>2019-04-17T22:44:41.878Z</time>
      </trkpt>
      <trkpt lat="44.53145" lon="1.04203">
        <ele>105.27297210693</ele>
        <time>2019-04-17T22:44:53.420Z</time>
      </trkpt>
      <trkpt lat="44.53203" lon="1.04285">
        <ele>105.07162475586</ele>
        <time>2019-04-17T22:45:04.978Z</time>
      </trkpt>
      <trkpt lat="44.53249" lon="1.0434">
        <ele>105.47045898438</ele>
        <time>2019-04-17T22:45:16.549Z</time>
      </trkpt>
      <trkpt lat="44.53272" lon="1.04362">
        <ele>105.55444335938</ele>
        <time>2019-04-17T22:45:28.125Z</time>
      </trkpt>
      <trkpt lat="44.53313" lon="1.04426">
        <ele>105.04745483398</ele>
        <time>2019-04-17T22:45:39.713Z</time>
      </trkpt>
      <trkpt lat="44.53361" lon="1.04485">
        <ele>106.55332183838</ele>
        <time>2019-04-17T22:45:51.314Z</time>
      </trkpt>
      <trkpt lat="44.53417" lon="1.0456">
        <ele>110.29707336426</ele>
        <time>2019-04-17T22:46:02.931Z</time>
      </trkpt>
      <trkpt lat="44.53473" lon="1.04621">
        <ele>113.10273742676</ele>
        <time>2019-04-17T22:46:14.562Z</time>
      </trkpt>
      <trkpt lat="44.53517" lon="1.04695">
        <ele>112.18185424805</ele>
        <time>2019-04-17T22:46:26.207Z</time>
      </trkpt>
      <trkpt lat="44.53561" lon="1.04669">
        <ele>121.09476470947</ele>
        <time>2019-04-17T22:46:37.861Z</time>
      </trkpt>
      <trkpt lat="44.5361" lon="1.0463">
        <ele>126.29153442383</ele>
        <time>2019-04-17T22:46:49.527Z</time>
      </trkpt>
      <trkpt lat="44.53671" lon="1.04567">
        <ele>130.65040588379</ele>
        <time>2019-04-17T22:47:01.208Z</time>
      </trkpt>
      <trkpt lat="44.53681" lon="1.04535">
        <ele>131.79765319824</ele>
        <time>2019-04-17T22:47:12.894Z</time>
      </trkpt>
      <trkpt lat="44.53688" lon="1.04469">
        <ele>135.37600708008</ele>
        <time>2019-04-17T22:47:24.589Z</time>
      </trkpt>
      <trkpt lat="44.53699" lon="1.0436">
        <ele>139.44116210938</ele>
        <time>2019-04-17T22:47:36.300Z</time>
      </trkpt>
      <trkpt lat="44.53727" lon="1.04251">
        <ele>144.59385681152</ele>
        <time>2019-04-17T22:47:48.028Z</time>
      </trkpt>
      <trkpt lat="44.53763" lon="1.04191">
        <ele>145.25645446777</ele>
        <time>2019-04-17T22:47:59.767Z</time>
      </trkpt>
      <trkpt lat="44.5381" lon="1.04131">
        <ele>149.62762451172</ele>
        <time>2019-04-17T22:48:11.518Z</time>
      </trkpt>
      <trkpt lat="44.53851" lon="1.04107">
        <ele>156.01100158691</ele>
        <time>2019-04-17T22:48:23.278Z</time>
      </trkpt>
      <trkpt lat="44.53905" lon="1.04114">
        <ele>159.19021606445</ele>
        <time>2019-04-17T22:48:35.049Z</time>
      </trkpt>
      <trkpt lat="44.53951" lon="1.04102">
        <ele>159.98025512695</ele>
        <time>2019-04-17T22:48:46.830Z</time>
      </trkpt>
      <trkpt lat="44.53997" lon="1.04099">
        <ele>161.25143432617</ele>
        <time>2019-04-17T22:48:58.620Z</time>
      </trkpt>
      <trkpt lat="44.54047" lon="1.04093">
        <ele>160.09788513184</ele>
        <time>2019-04-17T22:49:10.420Z</time>
      </trkpt>
      <trkpt lat="44.54156" lon="1.04102">
        <ele>159.25080871582</ele>
        <time>2019-04-17T22:49:22.242Z</time>
      </trkpt>
      <trkpt lat="44.54212" lon="1.04124">
        <ele>161.08393859863</ele>
        <time>2019-04-17T22:49:34.075Z</time>
      </trkpt>
      <trkpt lat="44.54265" lon="1.04134">
        <ele>163.7115020752</ele>
        <time>2019-04-17T22:49:45.919Z</time>
      </trkpt>
      <trkpt lat="44.54331" lon="1.0417">
        <ele>168.71025085449</ele>
        <time>2019-04-17T22:49:57.777Z</time>
      </trkpt>
      <trkpt lat="44.54398" lon="1.04217">
        <ele>171.52847290039</ele>
        <time>2019-04-17T22:50:09.650Z</time>
      </trkpt>
      <trkpt lat="44.54446" lon="1.04216">
        <ele>171.41596984863</ele>
        <time>2019-04-17T22:50:21.533Z</time>
      </trkpt>
      <trkpt lat="44.54495" lon="1.04175">
        <ele>173.89294433594</ele>
        <time>2019-04-17T22:50:33.427Z</time>
      </trkpt>
      <trkpt lat="44.54535" lon="1.0413">
        <ele>172.26188659668</ele>
        <time>2019-04-17T22:50:45.331Z</time>
      </trkpt>
      <trkpt lat="44.54593" lon="1.04113">
        <ele>178.29341125488</ele>
        <time>2019-04-17T22:50:57.247Z</time>
      </trkpt>
      <trkpt lat="44.54644" lon="1.04075">
        <ele>180.67791748047</ele>
        <time>2019-04-17T22:51:09.175Z</time>
      </trkpt>
      <trkpt lat="44.54685" lon="1.04011">
        <ele>184.1895904541</ele>
        <time>2019-04-17T22:51:21.115Z</time>
      </trkpt>
      <trkpt lat="44.54715" lon="1.03942">
        <ele>189.68008422852</ele>
        <time>2019-04-17T22:51:33.067Z</time>
      </trkpt>
      <trkpt lat="44.54744" lon="1.03854">
        <ele>197.71510314941</ele>
        <time>2019-04-17T22:51:45.033Z</time>
      </trkpt>
      <trkpt lat="44.54756" lon="1.03768">
        <ele>196.48812866211</ele>
        <time>2019-04-17T22:51:57.011Z</time>
      </trkpt>
      <trkpt lat="44.54748" lon="1.03702">
        <ele>199.43519592285</ele>
        <time>2019-04-17T22:52:08.999Z</time>
      </trkpt>
      <trkpt lat="44.54727" lon="1.03632">
        <ele>203.16860961914</ele>
        <time>2019-04-17T22:52:20.998Z</time>
      </trkpt>
      <trkpt lat="44.54736" lon="1.03572">
        <ele>205.62019348145</ele>
        <time>2019-04-17T22:52:33.005Z</time>
      </trkpt>
      <trkpt lat="44.54777" lon="1.03496">
        <ele>203.29461669922</ele>
        <time>2019-04-17T22:52:45.026Z</time>
      </trkpt>
      <trkpt lat="44.54807" lon="1.03472">
        <ele>203.11329650879</ele>
        <time>2019-04-17T22:52:57.054Z</time>
      </trkpt>
      <trkpt lat="44.54852" lon="1.03455">
        <ele>204.10362243652</ele>
        <time>2019-04-17T22:53:09.091Z</time>
      </trkpt>
      <trkpt lat="44.54907" lon="1.03451">
        <ele>205.0758972168</ele>
        <time>2019-04-17T22:53:21.139Z</time>
      </trkpt>
      <trkpt lat="44.54945" lon="1.03436">
        <ele>206.4048614502</ele>
        <time>2019-04-17T22:53:33.195Z</time>
      </trkpt>
      <trkpt lat="44.55008" lon="1.03416">
        <ele>206.65307617188</ele>
        <time>2019-04-17T22:53:45.264Z</time>
      </trkpt>
      <trkpt lat="44.55089" lon="1.0341">
        <ele>205.70458984375</ele>
        <time>2019-04-17T22:53:57.349Z</time>
      </trkpt>
      <trkpt lat="44.5517" lon="1.03338">
        <ele>206.53909301758</ele>
        <time>2019-04-17T22:54:09.453Z</time>
      </trkpt>
      <trkpt lat="44.55098" lon="1.03375">
        <ele>204.41371154785</ele>
        <time>2019-04-17T22:54:21.573Z</time>
      </trkpt>
      <trkpt lat="44.55061" lon="1.03379">
        <ele>204.31773376465</ele>
        <time>2019-04-17T22:54:33.700Z</time>
      </trkpt>
      <trkpt lat="44.55023" lon="1.03372">
        <ele>205.02278137207</ele>
        <time>2019-04-17T22:54:45.835Z</time>
      </trkpt>
      <trkpt lat="44.5498" lon="1.03386">
        <ele>206.17518615723</ele>
        <time>2019-04-17T22:54:57.979Z</time>
      </trkpt>
      <trkpt lat="44.54936" lon="1.03403">
        <ele>206.69282531738</ele>
        <time>2019-04-17T22:55:10.132Z</time>
      </trkpt>
      <trkpt lat="44.54853" lon="1.03398">
        <ele>206.76718139648</ele>
        <time>2019-04-17T22:55:22.301Z</time>
      </trkpt>
      <trkpt lat="44.548" lon="1.034">
        <ele>210.48655700684</ele>
        <time>2019-04-17T22:55:34.481Z</time>
      </trkpt>
      <trkpt lat="44.5474" lon="1.03379">
        <ele>214.8604888916</ele>
        <time>2019-04-17T22:55:46.673Z</time>
      </trkpt>
      <trkpt lat="44.54673" lon="1.03401">
        <ele>216.3504486084</ele>
        <time>2019-04-17T22:55:58.879Z</time>
      </trkpt>
      <trkpt lat="44.54632" lon="1.03393">
        <ele>214.67073059082</ele>
        <time>2019-04-17T22:56:11.093Z</time>
      </trkpt>
      <trkpt lat="44.54578" lon="1.03358">
        <ele>216.8132019043</ele>
        <time>2019-04-17T22:56:23.319Z</time>
      </trkpt>
      <trkpt lat="44.5452" lon="1.03321">
        <ele>220.0072479248</ele>
        <time>2019-04-17T22:56:35.558Z</time>
      </trkpt>
      <trkpt lat="44.54494" lon="1.03293">
        <ele>223.00675964355</ele>
        <time>2019-04-17T22:56:47.804Z</time>
      </trkpt>
      <trkpt lat="44.54452" lon="1.03236">
        <ele>228.98176574707</ele>
        <time>2019-04-17T22:57:00.061Z</time>
      </trkpt>
      <trkpt lat="44.54413" lon="1.03192">
        <ele>234.93296813965</ele>
        <time>2019-04-17T22:57:12.328Z</time>
      </trkpt>
      <trkpt lat="44.54378" lon="1.03182">
        <ele>239.25225830078</ele>
        <time>2019-04-17T22:57:24.603Z</time>
      </trkpt>
      <trkpt lat="44.54327" lon="1.03161">
        <ele>238.83493041992</ele>
        <time>2019-04-17T22:57:36.888Z</time>
      </trkpt>
      <trkpt lat="44.54285" lon="1.03122">
        <ele>236.5601348877</ele>
        <time>2019-04-17T22:57:49.183Z</time>
      </trkpt>
      <trkpt lat="44.5425" lon="1.03085">
        <ele>229.90533447266</ele>
        <time>2019-04-17T22:58:01.487Z</time>
      </trkpt>
      <trkpt lat="44.54246" lon="1.03066">
        <ele>228.77752685547</ele>
        <time>2019-04-17T22:58:13.794Z</time>
      </trkpt>
      <trkpt lat="44.54241" lon="1.03025">
        <ele>228.17230224609</ele>
        <time>2019-04-17T22:58:26.107Z</time>
      </trkpt>
      <trkpt lat="44.54231" lon="1.02962">
        <ele>226.4825592041</ele>
        <time>2019-04-17T22:58:38.429Z</time>
      </trkpt>
      <trkpt lat="44.54198" lon="1.02837">
        <ele>226.85487365723</ele>
        <time>2019-04-17T22:58:50.770Z</time>
      </trkpt>
      <trkpt lat="44.54154" lon="1.02763">
        <ele>226.8571472168</ele>
        <time>2019-04-17T22:59:03.125Z</time>
      </trkpt>
      <trkpt lat="44.54072" lon="1.02658">
        <ele>231.68022155762</ele>
        <time>2019-04-17T22:59:15.502Z</time>
      </trkpt>
      <trkpt lat="44.54008" lon="1.02581">
        <ele>232.23536682129</ele>
        <time>2019-04-17T22:59:27.896Z</time>
      </trkpt>
      <trkpt lat="44.53933" lon="1.02488">
        <ele>227.42562866211</ele>
        <time>2019-04-17T22:59:40.310Z</time>
      </trkpt>
      <trkpt lat="44.5386" lon="1.02424">
        <ele>224.3218536377</ele>
        <time>2019-04-17T22:59:52.741Z</time>
      </trkpt>
      <trkpt lat="44.53799" lon="1.02366">
        <ele>226.13265991211</ele>
        <time>2019-04-17T23:00:05.187Z</time>
      </trkpt>
      <trkpt lat="44.53755" lon="1.02331">
        <ele>228.81916809082</ele>
        <time>2019-04-17T23:00:17.643Z</time>
      </trkpt>
      <trkpt lat="44.53686" lon="1.02293">
        <ele>233.20179748535</ele>
        <time>2019-04-17T23:00:30.114Z</time>
      </trkpt>
      <trkpt lat="44.53602" lon="1.02254">
        <ele>232.57952880859</ele>
        <time>2019-04-17T23:00:42.603Z</time>
      </trkpt>
      <trkpt lat="44.53509" lon="1.02183">
        <ele>227.18760681152</ele>
        <time>2019-04-17T23:00:55.113Z</time>
      </trkpt>
      <trkpt lat="44.53479" lon="1.02144">
        <ele>224.09213256836</ele>
        <time>2019-04-17T23:01:07.631Z</time>
      </trkpt>
      <trkpt lat="44.53447" lon="1.02085">
        <ele>220.28651428223</ele>
        <time>2019-04-17T23:01:20.160Z</time>
      </trkpt>
      <trkpt lat="44.53413" lon="1.01987">
        <ele>215.61555480957</ele>
        <time>2019-04-17T23:01:32.704Z</time>
      </trkpt>
      <trkpt lat="44.53371" lon="1.01949">
        <ele>213.81214904785</ele>
        <time>2019-04-17T23:01:45.258Z</time>
      </trkpt>
      <trkpt lat="44.53366" lon="1.01853">
        <ele>213.56665039062</ele>
        <time>2019-04-17T23:01:57.826Z</time>
      </trkpt>
      <trkpt lat="44.53356" lon="1.0177">
        <ele>211.34257507324</ele>
        <time>2019-04-17T23:02:10.406Z</time>
      </trkpt>
      <trkpt lat="44.53355" lon="1.01706">
        <ele>210.16479492188</ele>
        <time>2019-04-17T23:02:22.995Z</time>
      </trkpt>
      <trkpt lat="44.53359" lon="1.01641">
        <ele>205.85629272461</ele>
        <time>2019-04-17T23:02:35.594Z</time>
      </trkpt>
      <trkpt lat="44.53331" lon="1.01582">
        <ele>205.33421325684</ele>
        <time>2019-04-17T23:02:48.203Z</time>
      </trkpt>
      <trkpt lat="44.53328" lon="1.01543">
        <ele>201.72036743164</ele>
        <time>2019-04-17T23:03:00.817Z</time>
      </trkpt>
      <trkpt lat="44.5336" lon="1.01487">
        <ele>194.25921630859</ele>
        <time>2019-04-17T23:03:13.442Z</time>
      </trkpt>
      <trkpt lat="44.53364" lon="1.01432">
        <ele>188.96507263184</ele>
        <time>2019-04-17T23:03:26.074Z</time>
      </trkpt>
      <trkpt lat="44.53361" lon="1.01347">
        <ele>179.53703308105</ele>
        <time>2019-04-17T23:03:38.719Z</time>
      </trkpt>
      <trkpt lat="44.53378" lon="1.01361">
        <ele>178.06617736816</ele>
        <time>2019-04-17T23:03:51.368Z</time>
      </trkpt>
      <trkpt lat="44.5339" lon="1.01414">
        <ele>178.97026062012</ele>
        <time>2019-04-17T23:04:04.025Z</time>
      </trkpt>
      <trkpt lat="44.53399" lon="1.01452">
        <ele>179.33853149414</ele>
        <time>2019-04-17T23:04:16.687Z</time>
      </trkpt>
      <trkpt lat="44.53422" lon="1.01503">
        <ele>176.62086486816</ele>
        <time>2019-04-17T23:04:29.358Z</time>
      </trkpt>
      <trkpt lat="44.53435" lon="1.01531">
        <ele>175.30108642578</ele>
        <time>2019-04-17T23:04:42.034Z</time>
      </trkpt>
      <trkpt lat="44.53538" lon="1.01519">
        <ele>154.95835876465</ele>
        <time>2019-04-17T23:04:54.730Z</time>
      </trkpt>
      <trkpt lat="44.53549" lon="1.01545">
        <ele>158.2698059082</ele>
        <time>2019-04-17T23:05:07.431Z</time>
      </trkpt>
      <trkpt lat="44.53535" lon="1.0157">
        <ele>163.36450195312</ele>
        <time>2019-04-17T23:05:20.136Z</time>
      </trkpt>
      <trkpt lat="44.53538" lon="1.01607">
        <ele>167.85174560547</ele>
        <time>2019-04-17T23:05:32.847Z</time>
      </trkpt>
      <trkpt lat="44.53557" lon="1.01662">
        <ele>172.6029510498</ele>
        <time>2019-04-17T23:05:45.566Z</time>
      </trkpt>
      <trkpt lat="44.53578" lon="1.01733">
        <ele>177.78771972656</ele>
        <time>2019-04-17T23:05:58.296Z</time>
      </trkpt>
      <trkpt lat="44.53586" lon="1.01685">
        <ele>171.81108093262</ele>
        <time>2019-04-17T23:06:11.033Z</time>
      </trkpt>
      <trkpt lat="44.53621" lon="1.01615">
        <ele>159.54690551758</ele>
        <time>2019-04-17T23:06:23.783Z</time>
      </trkpt>
      <trkpt lat="44.53657" lon="1.01558">
        <ele>151.09065246582</ele>
        <time>2019-04-17T23:06:36.543Z</time>
      </trkpt>
      <trkpt lat="44.53701" lon="1.01503">
        <ele>137.94515991211</ele>
        <time>2019-04-17T23:06:49.315Z</time>
      </trkpt>
      <trkpt lat="44.53735" lon="1.01457">
        <ele>131.05453491211</ele>
        <time>2019-04-17T23:07:02.097Z</time>
      </trkpt>
      <trkpt lat="44.5374" lon="1.01422">
        <ele>129.27877807617</ele>
        <time>2019-04-17T23:07:14.884Z</time>
      </trkpt>
      <trkpt lat="44.53738" lon="1.01384">
        <ele>130.29325866699</ele>
        <time>2019-04-17T23:07:27.676Z</time>
      </trkpt>
      <trkpt lat="44.53754" lon="1.01398">
        <ele>132.11030578613</ele>
        <time>2019-04-17T23:07:40.472Z</time>
      </trkpt>
      <trkpt lat="44.53769" lon="1.01363">
        <ele>132.84043884277</ele>
        <time>2019-04-17T23:07:53.274Z</time>
      </trkpt>
      <trkpt lat="44.53807" lon="1.0135">
        <ele>139.05874633789</ele>
        <time>2019-04-17T23:08:06.084Z</time>
      </trkpt>
      <trkpt lat="44.5385" lon="1.01352">
        <ele>148.65661621094</ele>
        <time>2019-04-17T23:08:18.902Z</time>
      </trkpt>
      <trkpt lat="44.5383" lon="1.01362">
        <ele>145.99359130859</ele>
        <time>2019-04-17T23:08:31.725Z</time>
      </trkpt>
      <trkpt lat="44.53846" lon="1.01393">
        <ele>152.23881530762</ele>
        <time>2019-04-17T23:08:44.553Z</time>
      </trkpt>
      <trkpt lat="44.53865" lon="1.01412">
        <ele>154.97436523438</ele>
        <time>2019-04-17T23:08:57.386Z</time>
      </trkpt>
      <trkpt lat="44.5387" lon="1.01427">
        <ele>154.2381439209</ele>
        <time>2019-04-17T23:09:10.221Z</time>
      </trkpt>
      <trkpt lat="44.53899" lon="1.01415">
        <ele>160.34326171875</ele>
        <time>2019-04-17T23:09:23.062Z</time>
      </trkpt>
      <trkpt lat="44.53943" lon="1.01339">
        <ele>161.72784423828</ele>
        <time>2019-04-17T23:09:35.917Z</time>
      </trkpt>
      <trkpt lat="44.53897" lon="1.01342">
        <ele>154.48750305176</ele>
        <time>2019-04-17T23:09:48.781Z</time>
      </trkpt>
      <trkpt lat="44.53865" lon="1.01339">
        <ele>149.32850646973</ele>
        <time>2019-04-17T23:10:01.652Z</time>
      </trkpt>
      <trkpt lat="44.53889" lon="1.01305">
        <ele>147.95651245117</ele>
        <time>2019-04-17T23:10:14.530Z</time>
      </trkpt>
      <trkpt lat="44.53809" lon="1.01309">
        <ele>134.57095336914</ele>
        <time>2019-04-17T23:10:27.424Z</time>
      </trkpt>
      <trkpt lat="44.53731" lon="1.01315">
        <ele>126.64946746826</ele>
        <time>2019-04-17T23:10:40.333Z</time>
      </trkpt>
      <trkpt lat="44.53731" lon="1.01276">
        <ele>128.13919067383</ele>
        <time>2019-04-17T23:10:53.248Z</time>
      </trkpt>
      <trkpt lat="44.5373" lon="1.01249">
        <ele>129.35231018066</ele>
        <time>2019-04-17T23:11:06.167Z</time>
      </trkpt>
      <trkpt lat="44.53727" lon="1.01232">
        <ele>129.31632995605</ele>
        <time>2019-04-17T23:11:19.088Z</time>
      </trkpt>
      <trkpt lat="44.53752" lon="1.01225">
        <ele>129.64697265625</ele>
        <time>2019-04-17T23:11:32.014Z</time>
      </trkpt>
      <trkpt lat="44.53803" lon="1.01193">
        <ele>137.11520385742</ele>
        <time>2019-04-17T23:11:44.951Z</time>
      </trkpt>
      <trkpt lat="44.53852" lon="1.01167">
        <ele>139.36723327637</ele>
        <time>2019-04-17T23:11:57.899Z</time>
      </trkpt>
      <trkpt lat="44.53888" lon="1.01131">
        <ele>141.73626708984</ele>
        <time>2019-04-17T23:12:10.856Z</time>
      </trkpt>
      <trkpt lat="44.53925" lon="1.01089">
        <ele>143.90629577637</ele>
        <time>2019-04-17T23:12:23.822Z</time>
      </trkpt>
      <trkpt lat="44.53948" lon="1.01053">
        <ele>144.01741027832</ele>
        <time>2019-04-17T23:12:36.795Z</time>
      </trkpt>
      <trkpt lat="44.53978" lon="1.01004">
        <ele>148.55616760254</ele>
        <time>2019-04-17T23:12:49.777Z</time>
      </trkpt>
      <trkpt lat="44.54003" lon="1.00925">
        <ele>151.30458068848</ele>
        <time>2019-04-17T23:13:02.772Z</time>
      </trkpt>
      <trkpt lat="44.54053" lon="1.00857">
        <ele>158.39416503906</ele>
        <time>2019-04-17T23:13:15.781Z</time>
      </trkpt>
      <trkpt lat="44.54131" lon="1.00771">
        <ele>167.55931091309</ele>
        <time>2019-04-17T23:13:28.810Z</time>
      </trkpt>
      <trkpt lat="44.54142" lon="1.00795">
        <ele>164.23587036133</ele>
        <time>2019-04-17T23:13:41.843Z</time>
      </trkpt>
      <trkpt lat="44.54159" lon="1.00905">
        <ele>152.07455444336</ele>
        <time>2019-04-17T23:13:54.892Z</time>
      </trkpt>
      <trkpt lat="44.54168" lon="1.00913">
        <ele>151.75061035156</ele>
        <time>2019-04-17T23:14:07.943Z</time>
      </trkpt>
      <trkpt lat="44.54201" lon="1.00809">
        <ele>162.93920898438</ele>
        <time>2019-04-17T23:14:21.010Z</time>
      </trkpt>
      <trkpt lat="44.54218" lon="1.00803">
        <ele>162.70654296875</ele>
        <time>2019-04-17T23:14:34.081Z</time>
      </trkpt>
      <trkpt lat="44.54253" lon="1.0083">
        <ele>158.79409790039</ele>
        <time>2019-04-17T23:14:47.160Z</time>
      </trkpt>
      <trkpt lat="44.54222" lon="1.00723">
        <ele>170.32376098633</ele>
        <time>2019-04-17T23:15:00.255Z</time>
      </trkpt>
      <trkpt lat="44.54248" lon="1.0066">
        <ele>179.04170227051</ele>
        <time>2019-04-17T23:15:13.361Z</time>
      </trkpt>
      <trkpt lat="44.54244" lon="1.00488">
        <ele>192.10968017578</ele>
        <time>2019-04-17T23:15:26.491Z</time>
      </trkpt>
      <trkpt lat="44.54285" lon="1.00537">
        <ele>186.35314941406</ele>
        <time>2019-04-17T23:15:39.632Z</time>
      </trkpt>
      <trkpt lat="44.543" lon="1.0059">
        <ele>184.82339477539</ele>
        <time>2019-04-17T23:15:52.781Z</time>
      </trkpt>
      <trkpt lat="44.54355" lon="1.00615">
        <ele>188.07041931152</ele>
        <time>2019-04-17T23:16:05.942Z</time>
      </trkpt>
      <trkpt lat="44.54469" lon="1.00677">
        <ele>185.72920227051</ele>
        <time>2019-04-17T23:16:19.127Z</time>
      </trkpt>
      <trkpt lat="44.54523" lon="1.00667">
        <ele>186.63092041016</ele>
        <time>2019-04-17T23:16:32.323Z</time>
      </trkpt>
      <trkpt lat="44.5458" lon="1.00675">
        <ele>180.16070556641</ele>
        <time>2019-04-17T23:16:45.531Z</time>
      </trkpt>
      <trkpt lat="44.54638" lon="1.00683">
        <ele>173.07968139648</ele>
        <time>2019-04-17T23:16:58.750Z</time>
      </trkpt>
      <trkpt lat="44.54655" lon="1.00616">
        <ele>176.14108276367</ele>
        <time>2019-04-17T23:17:11.979Z</time>
      </trkpt>
      <trkpt lat="44.54654" lon="1.00572">
        <ele>178.09745788574</ele>
        <time>2019-04-17T23:17:25.215Z</time>
      </trkpt>
      <trkpt lat="44.5468" lon="1.00468">
        <ele>180.25399780273</ele>
        <time>2019-04-17T23:17:38.466Z</time>
      </trkpt>
      <trkpt lat="44.54704" lon="1.00398">
        <ele>178.50611877441</ele>
        <time>2019-04-17T23:17:51.729Z</time>
      </trkpt>
      <trkpt lat="44.54726" lon="1.00375">
        <ele>177.68922424316</ele>
        <time>2019-04-17T23:18:04.997Z</time>
      </trkpt>
      <trkpt lat="44.54739" lon="1.00306">
        <ele>176.41976928711</ele>
        <time>2019-04-17T23:18:18.275Z</time>
      </trkpt>
      <trkpt lat="44.54756" lon="1.00239">
        <ele>175.71507263184</ele>
        <time>2019-04-17T23:18:31.563Z</time>
      </trkpt>
      <trkpt lat="44.54779" lon="1.00191">
        <ele>175.7861328125</ele>
        <time>2019-04-17T23:18:44.860Z</time>
      </trkpt>
      <trkpt lat="44.54832" lon="1.0019">
        <ele>177.23986816406</ele>
        <time>2019-04-17T23:18:58.167Z</time>
      </trkpt>
      <trkpt lat="44.54882" lon="1.00175">
        <ele>178.59303283691</ele>
        <time>2019-04-17T23:19:11.485Z</time>
      </trkpt>
      <trkpt lat="44.54927" lon="1.00184">
        <ele>181.87074279785</ele>
        <time>2019-04-17T23:19:24.812Z</time>
      </trkpt>
      <trkpt lat="44.54938" lon="1.00167">
        <ele>181.99072265625</ele>
        <time>2019-04-17T23:19:38.142Z</time>
      </trkpt>
      <trkpt lat="44.54931" lon="1.00143">
        <ele>181.07887268066</ele>
        <time>2019-04-17T23:19:51.476Z</time>
      </trkpt>
      <trkpt lat="44.54908" lon="1.00067">
        <ele>187.24562072754</ele>
        <time>2019-04-17T23:20:04.821Z</time>
      </trkpt>
      <trkpt lat="44.54876" lon="0.9994">
        <ele>193.7700958252</ele>
        <time>2019-04-17T23:20:18.186Z</time>
      </trkpt>
      <trkpt lat="44.54899" lon="0.99779">
        <ele>201.97120666504</ele>
        <time>2019-04-17T23:20:31.574Z</time>
      </trkpt>
      <trkpt lat="44.54887" lon="0.99681">
        <ele>205.33483886719</ele>
        <time>2019-04-17T23:20:44.976Z</time>
      </trkpt>
      <trkpt lat="44.54899" lon="0.99655">
        <ele>206.62202453613</ele>
        <time>2019-04-17T23:20:58.383Z</time>
      </trkpt>
      <trkpt lat="44.5493" lon="0.99581">
        <ele>207.77354431152</ele>
        <time>2019-04-17T23:21:11.802Z</time>
      </trkpt>
      <trkpt lat="44.54978" lon="0.99492">
        <ele>205.22744750977</ele>
        <time>2019-04-17T23:21:25.237Z</time>
      </trkpt>
      <trkpt lat="44.55009" lon="0.99488">
        <ele>204.06362915039</ele>
        <time>2019-04-17T23:21:38.678Z</time>
      </trkpt>
      <trkpt lat="44.55053" lon="0.99433">
        <ele>202.2197265625</ele>
        <time>2019-04-17T23:21:52.131Z</time>
      </trkpt>
      <trkpt lat="44.55129" lon="0.99376">
        <ele>202.66363525391</ele>
        <time>2019-04-17T23:22:05.601Z</time>
      </trkpt>
      <trkpt lat="44.55238" lon="0.99297">
        <ele>194.48818969727</ele>
        <time>2019-04-17T23:22:19.096Z</time>
      </trkpt>
      <trkpt lat="44.55296" lon="0.99256">
        <ele>191.65574645996</ele>
        <time>2019-04-17T23:22:32.604Z</time>
      </trkpt>
      <trkpt lat="44.55327" lon="0.99276">
        <ele>192.63958740234</ele>
        <time>2019-04-17T23:22:46.119Z</time>
      </trkpt>
      <trkpt lat="44.55376" lon="0.99244">
        <ele>193.53248596191</ele>
        <time>2019-04-17T23:22:59.644Z</time>
      </trkpt>
      <trkpt lat="44.5542" lon="0.99214">
        <ele>195.01734924316</ele>
        <time>2019-04-17T23:23:13.179Z</time>
      </trkpt>
      <trkpt lat="44.55478" lon="0.99206">
        <ele>198.40197753906</ele>
        <time>2019-04-17T23:23:26.726Z</time>
      </trkpt>
      <trkpt lat="44.55531" lon="0.99181">
        <ele>202.33004760742</ele>
        <time>2019-04-17T23:23:40.284Z</time>
      </trkpt>
      <trkpt lat="44.55541" lon="0.99142">
        <ele>204.12413024902</ele>
        <time>2019-04-17T23:23:53.848Z</time>
      </trkpt>
      <trkpt lat="44.5559" lon="0.99092">
        <ele>211.11442565918</ele>
        <time>2019-04-17T23:24:07.424Z</time>
      </trkpt>
      <trkpt lat="44.55684" lon="0.99015">
        <ele>217.85314941406</ele>
        <time>2019-04-17T23:24:21.022Z</time>
      </trkpt>
      <trkpt lat="44.5575" lon="0.99119">
        <ele>223.36552429199</ele>
        <time>2019-04-17T23:24:34.640Z</time>
      </trkpt>
      <trkpt lat="44.55804" lon="0.99167">
        <ele>224.45826721191</ele>
        <time>2019-04-17T23:24:48.271Z</time>
      </trkpt>
      <trkpt lat="44.55855" lon="0.99202">
        <ele>223.79418945312</ele>
        <time>2019-04-17T23:25:01.913Z</time>
      </trkpt>
      <trkpt lat="44.55904" lon="0.99222">
        <ele>220.52238464355</ele>
        <time>2019-04-17T23:25:15.565Z</time>
      </trkpt>
      <trkpt lat="44.5597" lon="0.99277">
        <ele>212.6226348877</ele>
        <time>2019-04-17T23:25:29.233Z</time>
      </trkpt>
      <trkpt lat="44.56051" lon="0.99338">
        <ele>208.80194091797</ele>
        <time>2019-04-17T23:25:42.919Z</time>
      </trkpt>
      <trkpt lat="44.56217" lon="0.99308">
        <ele>195.23735046387</ele>
        <time>2019-04-17T23:25:56.638Z</time>
      </trkpt>
      <trkpt lat="44.56251" lon="0.99292">
        <ele>193.79759216309</ele>
        <time>2019-04-17T23:26:10.365Z</time>
      </trkpt>
      <trkpt lat="44.56294" lon="0.99318">
        <ele>191.07022094727</ele>
        <time>2019-04-17T23:26:24.101Z</time>
      </trkpt>
      <trkpt lat="44.5636" lon="0.99381">
        <ele>184.77746582031</ele>
        <time>2019-04-17T23:26:37.853Z</time>
      </trkpt>
      <trkpt lat="44.56405" lon="0.99414">
        <ele>180.41984558105</ele>
        <time>2019-04-17T23:26:51.615Z</time>
      </trkpt>
      <trkpt lat="44.56446" lon="0.99388">
        <ele>179.34844970703</ele>
        <time>2019-04-17T23:27:05.386Z</time>
      </trkpt>
      <trkpt lat="44.56479" lon="0.99387">
        <ele>178.83535766602</ele>
        <time>2019-04-17T23:27:19.164Z</time>
      </trkpt>
      <trkpt lat="44.56506" lon="0.99355">
        <ele>177.68354797363</ele>
        <time>2019-04-17T23:27:32.949Z</time>
      </trkpt>
      <trkpt lat="44.56546" lon="0.99306">
        <ele>176.99244689941</ele>
        <time>2019-04-17T23:27:46.744Z</time>
      </trkpt>
      <trkpt lat="44.56566" lon="0.99251">
        <ele>181.4779510498</ele>
        <time>2019-04-17T23:28:00.548Z</time>
      </trkpt>
      <trkpt lat="44.56596" lon="0.99218">
        <ele>176.66911315918</ele>
        <time>2019-04-17T23:28:14.360Z</time>
      </trkpt>
      <trkpt lat="44.56632" lon="0.99208">
        <ele>172.46537780762</ele>
        <time>2019-04-17T23:28:28.179Z</time>
      </trkpt>
      <trkpt lat="44.56711" lon="0.99253">
        <ele>166.81753540039</ele>
        <time>2019-04-17T23:28:42.015Z</time>
      </trkpt>
      <trkpt lat="44.56744" lon="0.99296">
        <ele>166.15765380859</ele>
        <time>2019-04-17T23:28:55.860Z</time>
      </trkpt>
      <trkpt lat="44.56798" lon="0.99339">
        <ele>162.18765258789</ele>
        <time>2019-04-17T23:29:09.718Z</time>
      </trkpt>
      <trkpt lat="44.56841" lon="0.99345">
        <ele>159.22413635254</ele>
        <time>2019-04-17T23:29:23.584Z</time>
      </trkpt>
      <trkpt lat="44.5687" lon="0.99306">
        <ele>152.71153259277</ele>
        <time>2019-04-17T23:29:37.458Z</time>
      </trkpt>
      <trkpt lat="44.56903" lon="0.99308">
        <ele>149.61604309082</ele>
        <time>2019-04-17T23:29:51.339Z</time>
      </trkpt>
      <trkpt lat="44.56942" lon="0.99338">
        <ele>145.16641235352</ele>
        <time>2019-04-17T23:30:05.229Z</time>
      </trkpt>
      <trkpt lat="44.56966" lon="0.99298">
        <ele>144.31346130371</ele>
        <time>2019-04-17T23:30:19.126Z</time>
      </trkpt>
      <trkpt lat="44.5699" lon="0.99302">
        <ele>141.72189331055</ele>
        <time>2019-04-17T23:30:33.028Z</time>
      </trkpt>
      <trkpt lat="44.57013" lon="0.99277">
        <ele>142.7109375</ele>
        <time>2019-04-17T23:30:46.936Z</time>
      </trkpt>
      <trkpt lat="44.57063" lon="0.99201">
        <ele>155.89192199707</ele>
        <time>2019-04-17T23:31:00.859Z</time>
      </trkpt>
      <trkpt lat="44.5711" lon="0.99142">
        <ele>164.0987701416</ele>
        <time>2019-04-17T23:31:14.795Z</time>
      </trkpt>
      <trkpt lat="44.57153" lon="0.99101">
        <ele>169.4841003418</ele>
        <time>2019-04-17T23:31:28.741Z</time>
      </trkpt>
      <trkpt lat="44.57164" lon="0.99079">
        <ele>171.23789978027</ele>
        <time>2019-04-17T23:31:42.691Z</time>
      </trkpt>
      <trkpt lat="44.57157" lon="0.98921">
        <ele>176.43530273438</ele>
        <time>2019-04-17T23:31:56.663Z</time>
      </trkpt>
      <trkpt lat="44.57152" lon="0.98826">
        <ele>171.3147277832</ele>
        <time>2019-04-17T23:32:10.649Z</time>
      </trkpt>
      <trkpt lat="44.57163" lon="0.98761">
        <ele>175.21760559082</ele>
        <time>2019-04-17T23:32:24.645Z</time>
      </trkpt>
      <trkpt lat="44.57198" lon="0.98694">
        <ele>176.06460571289</ele>
        <time>2019-04-17T23:32:38.652Z</time>
      </trkpt>
      <trkpt lat="44.57214" lon="0.98608">
        <ele>175.9412689209</ele>
        <time>2019-04-17T23:32:52.672Z</time>
      </trkpt>
      <trkpt lat="44.57243" lon="0.98365">
        <ele>164.99742126465</ele>
        <time>2019-04-17T23:33:06.727Z</time>
      </trkpt>
      <trkpt lat="44.57232" lon="0.98332">
        <ele>165.01510620117</ele>
        <time>2019-04-17T23:33:20.788Z</time>
      </trkpt>
      <trkpt lat="44.57243" lon="0.98308">
        <ele>163.49787902832</ele>
        <time>2019-04-17T23:33:34.853Z</time>
      </trkpt>
      <trkpt lat="44.57267" lon="0.98276">
        <ele>163.66612243652</ele>
        <time>2019-04-17T23:33:48.924Z</time>
      </trkpt>
      <trkpt lat="44.57289" lon="0.98264">
        <ele>161.47206115723</ele>
        <time>2019-04-17T23:34:03.000Z</time>
      </trkpt>
      <trkpt lat="44.57289" lon="0.98264">
        <ele>161.47200012207</ele>
        <time>2019-04-17T23:34:17.076Z</time>
      </trkpt>
      <trkpt lat="44.57314" lon="0.98198">
        <ele>159.40319824219</ele>
        <time>2019-04-17T23:34:31.163Z</time>
      </trkpt>
      <trkpt lat="44.57323" lon="0.98143">
        <ele>158.98567199707</ele>
        <time>2019-04-17T23:34:45.258Z</time>
      </trkpt>
      <trkpt lat="44.57328" lon="0.98033">
        <ele>154.64004516602</ele>
        <time>2019-04-17T23:34:59.369Z</time>
      </trkpt>
      <trkpt lat="44.57346" lon="0.97911">
        <ele>144.59619140625</ele>
        <time>2019-04-17T23:35:13.497Z</time>
      </trkpt>
      <trkpt lat="44.57379" lon="0.97883">
        <ele>137.07098388672</ele>
        <time>2019-04-17T23:35:27.633Z</time>
      </trkpt>
      <trkpt lat="44.57374" lon="0.97842">
        <ele>136.86701965332</ele>
        <time>2019-04-17T23:35:41.775Z</time>
      </trkpt>
      <trkpt lat="44.57381" lon="0.97771">
        <ele>136.89039611816</ele>
        <time>2019-04-17T23:35:55.927Z</time>
      </trkpt>
      <trkpt lat="44.57419" lon="0.97691">
        <ele>132.48243713379</ele>
        <time>2019-04-17T23:36:10.093Z</time>
      </trkpt>
      <trkpt lat="44.57439" lon="0.97625">
        <ele>125.08908843994</ele>
        <time>2019-04-17T23:36:24.269Z</time>
      </trkpt>
      <trkpt lat="44.57444" lon="0.97568">
        <ele>123.82929992676</ele>
        <time>2019-04-17T23:36:38.453Z</time>
      </trkpt>
      <trkpt lat="44.57429" lon="0.97445">
        <ele>120.20827484131</ele>
        <time>2019-04-17T23:36:52.655Z</time>
      </trkpt>
      <trkpt lat="44.57401" lon="0.97296">
        <ele>116.34785461426</ele>
        <time>2019-04-17T23:37:06.879Z</time>
      </trkpt>
      <trkpt lat="44.57462" lon="0.97277">
        <ele>108.37258911133</ele>
        <time>2019-04-17T23:37:21.116Z</time>
      </trkpt>
      <trkpt lat="44.57476" lon="0.97222">
        <ele>106.34523773193</ele>
        <time>2019-04-17T23:37:35.361Z</time>
      </trkpt>
      <trkpt lat="44.57514" lon="0.97153">
        <ele>105.61116790771</ele>
        <time>2019-04-17T23:37:49.619Z</time>
      </trkpt>
      <trkpt lat="44.57558" lon="0.97111">
        <ele>106.47966003418</ele>
        <time>2019-04-17T23:38:03.887Z</time>
      </trkpt>
      <trkpt lat="44.57591" lon="0.97115">
        <ele>107.71545410156</ele>
        <time>2019-04-17T23:38:18.162Z</time>
      </trkpt>
      <trkpt lat="44.57658" lon="0.97124">
        <ele>109.54821014404</ele>
        <time>2019-04-17T23:38:32.450Z</time>
      </trkpt>
      <trkpt lat="44.57697" lon="0.97133">
        <ele>110.70001983643</ele>
        <time>2019-04-17T23:38:46.746Z</time>
      </trkpt>
      <trkpt lat="44.57707" lon="0.97045">
        <ele>108.4006729126</ele>
        <time>2019-04-17T23:39:01.055Z</time>
      </trkpt>
      <trkpt lat="44.57719" lon="0.96963">
        <ele>105.78765869141</ele>
        <time>2019-04-17T23:39:15.376Z</time>
      </trkpt>
      <trkpt lat="44.57714" lon="0.96901">
        <ele>105.95043182373</ele>
        <time>2019-04-17T23:39:29.706Z</time>
      </trkpt>
      <trkpt lat="44.57763" lon="0.96919">
        <ele>106.47834777832</ele>
        <time>2019-04-17T23:39:44.046Z</time>
      </trkpt>
      <trkpt lat="44.57834" lon="0.9694">
        <ele>106.88287353516</ele>
        <time>2019-04-17T23:39:58.401Z</time>
      </trkpt>
      <trkpt lat="44.57893" lon="0.96947">
        <ele>109.93002319336</ele>
        <time>2019-04-17T23:40:12.767Z</time>
      </trkpt>
      <trkpt lat="44.57967" lon="0.96951">
        <ele>112.35723876953</ele>
        <time>2019-04-17T23:40:27.148Z</time>
      </trkpt>
      <trkpt lat="44.58042" lon="0.96981">
        <ele>112.88320922852</ele>
        <time>2019-04-17T23:40:41.545Z</time>
      </trkpt>
      <trkpt lat="44.58093" lon="0.97015">
        <ele>112.88320922852</ele>
        <time>2019-04-17T23:40:55.953Z</time>
      </trkpt>
      <trkpt lat="44.58141" lon="0.97025">
        <ele>112.81395721436</ele>
        <time>2019-04-17T23:41:10.371Z</time>
      </trkpt>
      <trkpt lat="44.58242" lon="0.96982">
        <ele>114.96089172363</ele>
        <time>2019-04-17T23:41:24.810Z</time>
      </trkpt>
      <trkpt lat="44.58345" lon="0.96942">
        <ele>119.44831848145</ele>
        <time>2019-04-17T23:41:39.270Z</time>
      </trkpt>
      <trkpt lat="44.58425" lon="0.96896">
        <ele>117.36227416992</ele>
        <time>2019-04-17T23:41:53.748Z</time>
      </trkpt>
      <trkpt lat="44.58553" lon="0.96836">
        <ele>122.26493835449</ele>
        <time>2019-04-17T23:42:08.253Z</time>
      </trkpt>
      <trkpt lat="44.58618" lon="0.96797">
        <ele>118.96885681152</ele>
        <time>2019-04-17T23:42:22.772Z</time>
      </trkpt>
      <trkpt lat="44.58649" lon="0.96757">
        <ele>124.29193878174</ele>
        <time>2019-04-17T23:42:37.299Z</time>
      </trkpt>
      <trkpt lat="44.58708" lon="0.96694">
        <ele>125.24736785889</ele>
        <time>2019-04-17T23:42:51.841Z</time>
      </trkpt>
      <trkpt lat="44.58742" lon="0.96632">
        <ele>130.91442871094</ele>
        <time>2019-04-17T23:43:06.394Z</time>
      </trkpt>
      <trkpt lat="44.5877" lon="0.9661">
        <ele>129.73742675781</ele>
        <time>2019-04-17T23:43:20.954Z</time>
      </trkpt>
      <trkpt lat="44.58806" lon="0.96613">
        <ele>125.52767944336</ele>
        <time>2019-04-17T23:43:35.521Z</time>
      </trkpt>
      <trkpt lat="44.58888" lon="0.96624">
        <ele>122.5354385376</ele>
        <time>2019-04-17T23:43:50.104Z</time>
      </trkpt>
      <trkpt lat="44.58969" lon="0.9665">
        <ele>123.8900680542</ele>
        <time>2019-04-17T23:44:04.704Z</time>
      </trkpt>
      <trkpt lat="44.59015" lon="0.96671">
        <ele>123.6861038208</ele>
        <time>2019-04-17T23:44:19.314Z</time>
      </trkpt>
      <trkpt lat="44.59054" lon="0.96683">
        <ele>123.26275634766</ele>
        <time>2019-04-17T23:44:33.932Z</time>
      </trkpt>
      <trkpt lat="44.59119" lon="0.96633">
        <ele>123.65538024902</ele>
        <time>2019-04-17T23:44:48.564Z</time>
      </trkpt>
      <trkpt lat="44.59163" lon="0.96592">
        <ele>130.37028503418</ele>
        <time>2019-04-17T23:45:03.207Z</time>
      </trkpt>
      <trkpt lat="44.59189" lon="0.96513">
        <ele>134.53392028809</ele>
        <time>2019-04-17T23:45:17.862Z</time>
      </trkpt>
      <trkpt lat="44.59207" lon="0.96439">
        <ele>141.19801330566</ele>
        <time>2019-04-17T23:45:32.529Z</time>
      </trkpt>
      <trkpt lat="44.59236" lon="0.9643">
        <ele>140.86206054688</ele>
        <time>2019-04-17T23:45:47.202Z</time>
      </trkpt>
      <trkpt lat="44.59274" lon="0.96446">
        <ele>133.14360046387</ele>
        <time>2019-04-17T23:46:01.882Z</time>
      </trkpt>
      <trkpt lat="44.5933" lon="0.96365">
        <ele>135.1237487793</ele>
        <time>2019-04-17T23:46:16.579Z</time>
      </trkpt>
      <trkpt lat="44.59348" lon="0.96335">
        <ele>133.42082214355</ele>
        <time>2019-04-17T23:46:31.281Z</time>
      </trkpt>
      <trkpt lat="44.59376" lon="0.96301">
        <ele>130.75653076172</ele>
        <time>2019-04-17T23:46:45.991Z</time>
      </trkpt>
      <trkpt lat="44.59386" lon="0.96276">
        <ele>131.5364074707</ele>
        <time>2019-04-17T23:47:00.705Z</time>
      </trkpt>
      <trkpt lat="44.59398" lon="0.9623">
        <ele>129.96385192871</ele>
        <time>2019-04-17T23:47:15.426Z</time>
      </trkpt>
      <trkpt lat="44.59403" lon="0.96159">
        <ele>131.56884765625</ele>
        <time>2019-04-17T23:47:30.157Z</time>
      </trkpt>
      <trkpt lat="44.59438" lon="0.96161">
        <ele>131.52085876465</ele>
        <time>2019-04-17T23:47:44.895Z</time>
      </trkpt>
      <trkpt lat="44.59466" lon="0.96156">
        <ele>131.98654174805</ele>
        <time>2019-04-17T23:47:59.639Z</time>
      </trkpt>
      <trkpt lat="44.59434" lon="0.96116">
        <ele>133.34729003906</ele>
        <time>2019-04-17T23:48:14.391Z</time>
      </trkpt>
      <trkpt lat="44.59434" lon="0.96097">
        <ele>135.17098999023</ele>
        <time>2019-04-17T23:48:29.146Z</time>
      </trkpt>
      <trkpt lat="44.59457" lon="0.96089">
        <ele>137.1240234375</ele>
        <time>2019-04-17T23:48:43.906Z</time>
      </trkpt>
      <trkpt lat="44.59523" lon="0.96093">
        <ele>143.95320129395</ele>
        <time>2019-04-17T23:48:58.679Z</time>
      </trkpt>
      <trkpt lat="44.59561" lon="0.9608">
        <ele>149.91311645508</ele>
        <time>2019-04-17T23:49:13.460Z</time>
      </trkpt>
      <trkpt lat="44.59582" lon="0.96041">
        <ele>158.80363464355</ele>
        <time>2019-04-17T23:49:28.248Z</time>
      </trkpt>
      <trkpt lat="44.59583" lon="0.95985">
        <ele>172.01820373535</ele>
        <time>2019-04-17T23:49:43.044Z</time>
      </trkpt>
      <trkpt lat="44.59571" lon="0.95899">
        <ele>186.98161315918</ele>
        <time>2019-04-17T23:49:57.852Z</time>
      </trkpt>
      <trkpt lat="44.5958" lon="0.9581">
        <ele>192.72444152832</ele>
        <time>2019-04-17T23:50:12.673Z</time>
      </trkpt>
      <trkpt lat="44.59604" lon="0.95712">
        <ele>195.58129882812</ele>
        <time>2019-04-17T23:50:27.509Z</time>
      </trkpt>
      <trkpt lat="44.5961" lon="0.95676">
        <ele>196.18170166016</ele>
        <time>2019-04-17T23:50:42.350Z</time>
      </trkpt>
      <trkpt lat="44.59599" lon="0.95633">
        <ele>196.45582580566</ele>
        <time>2019-04-17T23:50:57.198Z</time>
      </trkpt>
      <trkpt lat="44.59574" lon="0.95595">
        <ele>196.96014404297</ele>
        <time>2019-04-17T23:51:12.053Z</time>
      </trkpt>
      <trkpt lat="44.5956" lon="0.95555">
        <ele>196.77331542969</ele>
        <time>2019-04-17T23:51:26.914Z</time>
      </trkpt>
      <trkpt lat="44.59561" lon="0.95503">
        <ele>204.23606872559</ele>
        <time>2019-04-17T23:51:41.783Z</time>
      </trkpt>
      <trkpt lat="44.59574" lon="0.9543">
        <ele>212.0288848877</ele>
        <time>2019-04-17T23:51:56.663Z</time>
      </trkpt>
      <trkpt lat="44.59584" lon="0.95351">
        <ele>216.34120178223</ele>
        <time>2019-04-17T23:52:11.554Z</time>
      </trkpt>
      <trkpt lat="44.5957" lon="0.95285">
        <ele>218.58140563965</ele>
        <time>2019-04-17T23:52:26.455Z</time>
      </trkpt>
      <trkpt lat="44.59568" lon="0.95252">
        <ele>216.58641052246</ele>
        <time>2019-04-17T23:52:41.361Z</time>
      </trkpt>
      <trkpt lat="44.59589" lon="0.95193">
        <ele>217.63259887695</ele>
        <time>2019-04-17T23:52:56.276Z</time>
      </trkpt>
      <trkpt lat="44.59621" lon="0.9513">
        <ele>224.06507873535</ele>
        <time>2019-04-17T23:53:11.202Z</time>
      </trkpt>
      <trkpt lat="44.59667" lon="0.95087">
        <ele>226.09181213379</ele>
        <time>2019-04-17T23:53:26.139Z</time>
      </trkpt>
      <trkpt lat="44.59666" lon="0.95061">
        <ele>227.26760864258</ele>
        <time>2019-04-17T23:53:41.080Z</time>
      </trkpt>
      <trkpt lat="44.59697" lon="0.94995">
        <ele>230.94404602051</ele>
        <time>2019-04-17T23:53:56.032Z</time>
      </trkpt>
      <trkpt lat="44.59734" lon="0.94906">
        <ele>234.39532470703</ele>
        <time>2019-04-17T23:54:10.999Z</time>
      </trkpt>
      <trkpt lat="44.59782" lon="0.94839">
        <ele>236.50593566895</ele>
        <time>2019-04-17T23:54:25.979Z</time>
      </trkpt>
      <trkpt lat="44.59837" lon="0.94721">
        <ele>235.88018798828</ele>
        <time>2019-04-17T23:54:40.980Z</time>
      </trkpt>
      <trkpt lat="44.59878" lon="0.94607">
        <ele>230.76795959473</ele>
        <time>2019-04-17T23:54:55.999Z</time>
      </trkpt>
      <trkpt lat="44.59895" lon="0.94531">
        <ele>231.94869995117</ele>
        <time>2019-04-17T23:55:11.029Z</time>
      </trkpt>
      <trkpt lat="44.5994" lon="0.94257">
        <ele>240.99819946289</ele>
        <time>2019-04-17T23:55:26.099Z</time>
      </trkpt>
      <trkpt lat="44.60165" lon="0.93648">
        <ele>258.67593383789</ele>
        <time>2019-04-17T23:55:41.267Z</time>
      </trkpt>
      <trkpt lat="44.60101" lon="0.93619">
        <ele>257.58316040039</ele>
        <time>2019-04-17T23:55:56.449Z</time>
      </trkpt>
      <trkpt lat="44.59985" lon="0.9358">
        <ele>252.72631835938</ele>
        <time>2019-04-17T23:56:11.655Z</time>
      </trkpt>
      <trkpt lat="44.59906" lon="0.93534">
        <ele>250.45196533203</ele>
        <time>2019-04-17T23:56:26.878Z</time>
      </trkpt>
      <trkpt lat="44.59862" lon="0.93517">
        <ele>249.46838378906</ele>
        <time>2019-04-17T23:56:42.110Z</time>
      </trkpt>
      <trkpt lat="44.59836" lon="0.93483">
        <ele>247.28475952148</ele>
        <time>2019-04-17T23:56:57.349Z</time>
      </trkpt>
      <trkpt lat="44.59808" lon="0.93461">
        <ele>244.77810668945</ele>
        <time>2019-04-17T23:57:12.594Z</time>
      </trkpt>
      <trkpt lat="44.5977" lon="0.93451">
        <ele>242.54522705078</ele>
        <time>2019-04-17T23:57:27.847Z</time>
      </trkpt>
      <trkpt lat="44.59749" lon="0.93432">
        <ele>242.06530761719</ele>
        <time>2019-04-17T23:57:43.105Z</time>
      </trkpt>
      <trkpt lat="44.59734" lon="0.93395">
        <ele>241.44140625</ele>
        <time>2019-04-17T23:57:58.369Z</time>
      </trkpt>
      <trkpt lat="44.59712" lon="0.93339">
        <ele>242.36193847656</ele>
        <time>2019-04-17T23:58:13.642Z</time>
      </trkpt>
      <trkpt lat="44.59682" lon="0.93275">
        <ele>242.52882385254</ele>
        <time>2019-04-17T23:58:28.926Z</time>
      </trkpt>
      <trkpt lat="44.59635" lon="0.93183">
        <ele>240.4200592041</ele>
        <time>2019-04-17T23:58:44.226Z</time>
      </trkpt>
      <trkpt lat="44.59592" lon="0.93128">
        <ele>238.84963989258</ele>
        <time>2019-04-17T23:58:59.538Z</time>
      </trkpt>
      <trkpt lat="44.59561" lon="0.93102">
        <ele>238.53768920898</ele>
        <time>2019-04-17T23:59:14.857Z</time>
      </trkpt>
      <trkpt lat="44.59512" lon="0.93084">
        <ele>239.1474609375</ele>
        <time>2019-04-17T23:59:30.186Z</time>
      </trkpt>
      <trkpt lat="44.5947" lon="0.9306">
        <ele>240.37124633789</ele>
        <time>2019-04-17T23:59:45.525Z</time>
      </trkpt>
      <trkpt lat="44.5942" lon="0.9302">
        <ele>240.24188232422</ele>
        <time>2019-04-18T00:00:00.875Z</time>
      </trkpt>
      <trkpt lat="44.59367" lon="0.92958">
        <ele>239.17506408691</ele>
        <time>2019-04-18T00:00:16.239Z</time>
      </trkpt>
      <trkpt lat="44.59333" lon="0.92909">
        <ele>239.35504150391</ele>
        <time>2019-04-18T00:00:31.613Z</time>
      </trkpt>
      <trkpt lat="44.59306" lon="0.9287">
        <ele>239.74487304688</ele>
        <time>2019-04-18T00:00:46.994Z</time>
      </trkpt>
      <trkpt lat="44.59236" lon="0.92842">
        <ele>240.73558044434</ele>
        <time>2019-04-18T00:01:02.390Z</time>
      </trkpt>
      <trkpt lat="44.59238" lon="0.92828">
        <ele>241.0622253418</ele>
        <time>2019-04-18T00:01:17.788Z</time>
      </trkpt>
      <trkpt lat="44.59235" lon="0.92797">
        <ele>241.47698974609</ele>
        <time>2019-04-18T00:01:33.190Z</time>
      </trkpt>
      <trkpt lat="44.59214" lon="0.92764">
        <ele>241.3330078125</ele>
        <time>2019-04-18T00:01:48.599Z</time>
      </trkpt>
      <trkpt lat="44.59188" lon="0.92748">
        <ele>241.4529876709</ele>
        <time>2019-04-18T00:02:04.013Z</time>
      </trkpt>
      <trkpt lat="44.59216" lon="0.92682">
        <ele>240.34375</ele>
        <time>2019-04-18T00:02:19.438Z</time>
      </trkpt>
      <trkpt lat="44.59249" lon="0.9259">
        <ele>240.13856506348</ele>
        <time>2019-04-18T00:02:34.878Z</time>
      </trkpt>
      <trkpt lat="44.59285" lon="0.92526">
        <ele>240.2512512207</ele>
        <time>2019-04-18T00:02:50.330Z</time>
      </trkpt>
      <trkpt lat="44.59311" lon="0.9244">
        <ele>238.09819030762</ele>
        <time>2019-04-18T00:03:05.795Z</time>
      </trkpt>
      <trkpt lat="44.59311" lon="0.92386">
        <ele>236.8337097168</ele>
        <time>2019-04-18T00:03:21.268Z</time>
      </trkpt>
      <trkpt lat="44.59283" lon="0.92249">
        <ele>232.58399963379</ele>
        <time>2019-04-18T00:03:36.761Z</time>
      </trkpt>
      <trkpt lat="44.59252" lon="0.92079">
        <ele>233.99826049805</ele>
        <time>2019-04-18T00:03:52.279Z</time>
      </trkpt>
      <trkpt lat="44.59236" lon="0.92033">
        <ele>235.46156311035</ele>
        <time>2019-04-18T00:04:07.805Z</time>
      </trkpt>
      <trkpt lat="44.5923" lon="0.91974">
        <ele>236.31341552734</ele>
        <time>2019-04-18T00:04:23.339Z</time>
      </trkpt>
      <trkpt lat="44.59234" lon="0.91888">
        <ele>235.2469329834</ele>
        <time>2019-04-18T00:04:38.885Z</time>
      </trkpt>
      <trkpt lat="44.59238" lon="0.91835">
        <ele>234.37617492676</ele>
        <time>2019-04-18T00:04:54.439Z</time>
      </trkpt>
      <trkpt lat="44.5922" lon="0.91797">
        <ele>235.31285095215</ele>
        <time>2019-04-18T00:05:10.000Z</time>
      </trkpt>
      <trkpt lat="44.59267" lon="0.91784">
        <ele>231.64427185059</ele>
        <time>2019-04-18T00:05:25.570Z</time>
      </trkpt>
      <trkpt lat="44.59325" lon="0.91742">
        <ele>230.55918884277</ele>
        <time>2019-04-18T00:05:41.153Z</time>
      </trkpt>
      <trkpt lat="44.59394" lon="0.91717">
        <ele>228.76670837402</ele>
        <time>2019-04-18T00:05:56.750Z</time>
      </trkpt>
      <trkpt lat="44.59483" lon="0.91687">
        <ele>223.81629943848</ele>
        <time>2019-04-18T00:06:12.366Z</time>
      </trkpt>
      <trkpt lat="44.59532" lon="0.91638">
        <ele>223.09005737305</ele>
        <time>2019-04-18T00:06:27.994Z</time>
      </trkpt>
      <trkpt lat="44.59599" lon="0.91605">
        <ele>226.2286529541</ele>
        <time>2019-04-18T00:06:43.636Z</time>
      </trkpt>
      <trkpt lat="44.59653" lon="0.91585">
        <ele>225.59629821777</ele>
        <time>2019-04-18T00:06:59.289Z</time>
      </trkpt>
      <trkpt lat="44.59696" lon="0.91542">
        <ele>224.65437316895</ele>
        <time>2019-04-18T00:07:14.953Z</time>
      </trkpt>
      <trkpt lat="44.59721" lon="0.91447">
        <ele>220.03134155273</ele>
        <time>2019-04-18T00:07:30.631Z</time>
      </trkpt>
      <trkpt lat="44.59734" lon="0.91351">
        <ele>219.18891906738</ele>
        <time>2019-04-18T00:07:46.323Z</time>
      </trkpt>
      <trkpt lat="44.5975" lon="0.91341">
        <ele>221.37255859375</ele>
        <time>2019-04-18T00:08:02.019Z</time>
      </trkpt>
      <trkpt lat="44.59762" lon="0.91254">
        <ele>221.97331237793</ele>
        <time>2019-04-18T00:08:17.727Z</time>
      </trkpt>
      <trkpt lat="44.59779" lon="0.91167">
        <ele>222.60377502441</ele>
        <time>2019-04-18T00:08:33.448Z</time>
      </trkpt>
      <trkpt lat="44.59801" lon="0.91111">
        <ele>222.26530456543</ele>
        <time>2019-04-18T00:08:49.178Z</time>
      </trkpt>
      <trkpt lat="44.59844" lon="0.91028">
        <ele>219.55230712891</ele>
        <time>2019-04-18T00:09:04.923Z</time>
      </trkpt>
      <trkpt lat="44.59868" lon="0.90993">
        <ele>220.0802154541</ele>
        <time>2019-04-18T00:09:20.675Z</time>
      </trkpt>
      <trkpt lat="44.59928" lon="0.90926">
        <ele>208.2611541748</ele>
        <time>2019-04-18T00:09:36.442Z</time>
      </trkpt>
      <trkpt lat="44.59953" lon="0.90793">
        <ele>198.86296081543</ele>
        <time>2019-04-18T00:09:52.229Z</time>
      </trkpt>
      <trkpt lat="44.59974" lon="0.9067">
        <ele>190.73649597168</ele>
        <time>2019-04-18T00:10:08.034Z</time>
      </trkpt>
      <trkpt lat="44.59983" lon="0.9063">
        <ele>190.15040588379</ele>
        <time>2019-04-18T00:10:23.845Z</time>
      </trkpt>
      <trkpt lat="44.59992" lon="0.90604">
        <ele>187.96676635742</ele>
        <time>2019-04-18T00:10:39.660Z</time>
      </trkpt>
      <trkpt lat="44.60009" lon="0.90562">
        <ele>186.93934631348</ele>
        <time>2019-04-18T00:10:55.482Z</time>
      </trkpt>
      <trkpt lat="44.60005" lon="0.90487">
        <ele>181.41993713379</ele>
        <time>2019-04-18T00:11:11.315Z</time>
      </trkpt>
      <trkpt lat="44.59995" lon="0.90381">
        <ele>175.93070983887</ele>
        <time>2019-04-18T00:11:27.163Z</time>
      </trkpt>
      <trkpt lat="44.59992" lon="0.90314">
        <ele>174.65830993652</ele>
        <time>2019-04-18T00:11:43.021Z</time>
      </trkpt>
      <trkpt lat="44.59977" lon="0.90233">
        <ele>170.25775146484</ele>
        <time>2019-04-18T00:11:58.891Z</time>
      </trkpt>
      <trkpt lat="44.59949" lon="0.90144">
        <ele>165.31887817383</ele>
        <time>2019-04-18T00:12:14.775Z</time>
      </trkpt>
      <trkpt lat="44.59982" lon="0.9006">
        <ele>163.37976074219</ele>
        <time>2019-04-18T00:12:30.672Z</time>
      </trkpt>
      <trkpt lat="44.60008" lon="0.89982">
        <ele>159.18055725098</ele>
        <time>2019-04-18T00:12:46.582Z</time>
      </trkpt>
      <trkpt lat="44.6002" lon="0.89933">
        <ele>158.3037109375</ele>
        <time>2019-04-18T00:13:02.499Z</time>
      </trkpt>
      <trkpt lat="44.60017" lon="0.89864">
        <ele>159.38233947754</ele>
        <time>2019-04-18T00:13:18.426Z</time>
      </trkpt>
      <trkpt lat="44.60024" lon="0.89825">
        <ele>161.58996582031</ele>
        <time>2019-04-18T00:13:34.359Z</time>
      </trkpt>
      <trkpt lat="44.60035" lon="0.89739">
        <ele>167.05590820312</ele>
        <time>2019-04-18T00:13:50.304Z</time>
      </trkpt>
      <trkpt lat="44.60068" lon="0.89635">
        <ele>169.58258056641</ele>
        <time>2019-04-18T00:14:06.265Z</time>
      </trkpt>
      <trkpt lat="44.60061" lon="0.89556">
        <ele>169.5871887207</ele>
        <time>2019-04-18T00:14:22.238Z</time>
      </trkpt>
      <trkpt lat="44.6007" lon="0.89488">
        <ele>172.41963195801</ele>
        <time>2019-04-18T00:14:38.221Z</time>
      </trkpt>
      <trkpt lat="44.60022" lon="0.89489">
        <ele>170.93182373047</ele>
        <time>2019-04-18T00:14:54.213Z</time>
      </trkpt>
      <trkpt lat="44.59988" lon="0.89477">
        <ele>170.69186401367</ele>
        <time>2019-04-18T00:15:10.212Z</time>
      </trkpt>
      <trkpt lat="44.59928" lon="0.89406">
        <ele>171.23916625977</ele>
        <time>2019-04-18T00:15:26.227Z</time>
      </trkpt>
      <trkpt lat="44.59869" lon="0.89338">
        <ele>168.92465209961</ele>
        <time>2019-04-18T00:15:42.257Z</time>
      </trkpt>
      <trkpt lat="44.59818" lon="0.89289">
        <ele>166.01190185547</ele>
        <time>2019-04-18T00:15:58.300Z</time>
      </trkpt>
      <trkpt lat="44.59768" lon="0.8921">
        <ele>166.4984588623</ele>
        <time>2019-04-18T00:16:14.358Z</time>
      </trkpt>
      <trkpt lat="44.5973" lon="0.89169">
        <ele>168.57411193848</ele>
        <time>2019-04-18T00:16:30.425Z</time>
      </trkpt>
      <trkpt lat="44.59668" lon="0.89126">
        <ele>169.71669006348</ele>
        <time>2019-04-18T00:16:46.506Z</time>
      </trkpt>
      <trkpt lat="44.59641" lon="0.89096">
        <ele>171.30041503906</ele>
        <time>2019-04-18T00:17:02.594Z</time>
      </trkpt>
      <trkpt lat="44.5959" lon="0.89003">
        <ele>173.51387023926</ele>
        <time>2019-04-18T00:17:18.699Z</time>
      </trkpt>
      <trkpt lat="44.59573" lon="0.88934">
        <ele>173.10969543457</ele>
        <time>2019-04-18T00:17:34.814Z</time>
      </trkpt>
      <trkpt lat="44.5953" lon="0.88872">
        <ele>169.05928039551</ele>
        <time>2019-04-18T00:17:50.942Z</time>
      </trkpt>
      <trkpt lat="44.59463" lon="0.88786">
        <ele>171.58293151855</ele>
        <time>2019-04-18T00:18:07.088Z</time>
      </trkpt>
      <trkpt lat="44.59397" lon="0.88699">
        <ele>167.46429443359</ele>
        <time>2019-04-18T00:18:23.252Z</time>
      </trkpt>
      <trkpt lat="44.59349" lon="0.88603">
        <ele>161.76332092285</ele>
        <time>2019-04-18T00:18:39.433Z</time>
      </trkpt>
      <trkpt lat="44.59338" lon="0.88561">
        <ele>162.06327819824</ele>
        <time>2019-04-18T00:18:55.620Z</time>
      </trkpt>
      <trkpt lat="44.59326" lon="0.88502">
        <ele>158.8119354248</ele>
        <time>2019-04-18T00:19:11.816Z</time>
      </trkpt>
      <trkpt lat="44.59325" lon="0.88426">
        <ele>156.0703125</ele>
        <time>2019-04-18T00:19:28.023Z</time>
      </trkpt>
      <trkpt lat="44.59309" lon="0.88373">
        <ele>154.00845336914</ele>
        <time>2019-04-18T00:19:44.238Z</time>
      </trkpt>
      <trkpt lat="44.59276" lon="0.88337">
        <ele>154.2159576416</ele>
        <time>2019-04-18T00:20:00.461Z</time>
      </trkpt>
      <trkpt lat="44.5923" lon="0.88304">
        <ele>155.88368225098</ele>
        <time>2019-04-18T00:20:16.695Z</time>
      </trkpt>
      <trkpt lat="44.59145" lon="0.88293">
        <ele>156.64270019531</ele>
        <time>2019-04-18T00:20:32.946Z</time>
      </trkpt>
      <trkpt lat="44.59091" lon="0.88273">
        <ele>157.42474365234</ele>
        <time>2019-04-18T00:20:49.208Z</time>
      </trkpt>
      <trkpt lat="44.59029" lon="0.88237">
        <ele>158.03266906738</ele>
        <time>2019-04-18T00:21:05.483Z</time>
      </trkpt>
      <trkpt lat="44.59024" lon="0.88209">
        <ele>158.31768798828</ele>
        <time>2019-04-18T00:21:21.762Z</time>
      </trkpt>
      <trkpt lat="44.58999" lon="0.88181">
        <ele>156.4340057373</ele>
        <time>2019-04-18T00:21:38.048Z</time>
      </trkpt>
      <trkpt lat="44.58958" lon="0.88131">
        <ele>153.22096252441</ele>
        <time>2019-04-18T00:21:54.345Z</time>
      </trkpt>
      <trkpt lat="44.58897" lon="0.88073">
        <ele>150.33044433594</ele>
        <time>2019-04-18T00:22:10.656Z</time>
      </trkpt>
      <trkpt lat="44.58857" lon="0.8811">
        <ele>151.84254455566</ele>
        <time>2019-04-18T00:22:26.977Z</time>
      </trkpt>
      <trkpt lat="44.58824" lon="0.88117">
        <ele>155.54557800293</ele>
        <time>2019-04-18T00:22:43.305Z</time>
      </trkpt>
      <trkpt lat="44.58784" lon="0.88096">
        <ele>157.70869445801</ele>
        <time>2019-04-18T00:22:59.641Z</time>
      </trkpt>
      <trkpt lat="44.58754" lon="0.88095">
        <ele>159.34042358398</ele>
        <time>2019-04-18T00:23:15.983Z</time>
      </trkpt>
      <trkpt lat="44.58709" lon="0.88109">
        <ele>163.30895996094</ele>
        <time>2019-04-18T00:23:32.334Z</time>
      </trkpt>
      <trkpt lat="44.5867" lon="0.88103">
        <ele>164.60398864746</ele>
        <time>2019-04-18T00:23:48.693Z</time>
      </trkpt>
      <trkpt lat="44.58618" lon="0.88086">
        <ele>162.77275085449</ele>
        <time>2019-04-18T00:24:05.063Z</time>
      </trkpt>
      <trkpt lat="44.58584" lon="0.88112">
        <ele>162.62371826172</ele>
        <time>2019-04-18T00:24:21.441Z</time>
      </trkpt>
      <trkpt lat="44.58563" lon="0.88109">
        <ele>161.21994018555</ele>
        <time>2019-04-18T00:24:37.823Z</time>
      </trkpt>
      <trkpt lat="44.58524" lon="0.88121">
        <ele>160.2318572998</ele>
        <time>2019-04-18T00:24:54.213Z</time>
      </trkpt>
      <trkpt lat="44.58466" lon="0.88144">
        <ele>166.46691894531</ele>
        <time>2019-04-18T00:25:10.615Z</time>
      </trkpt>
      <trkpt lat="44.58405" lon="0.88161">
        <ele>176.07626342773</ele>
        <time>2019-04-18T00:25:27.029Z</time>
      </trkpt>
      <trkpt lat="44.58354" lon="0.88204">
        <ele>180.54377746582</ele>
        <time>2019-04-18T00:25:43.455Z</time>
      </trkpt>
      <trkpt lat="44.58298" lon="0.88202">
        <ele>187.41822814941</ele>
        <time>2019-04-18T00:25:59.893Z</time>
      </trkpt>
      <trkpt lat="44.58208" lon="0.88239">
        <ele>195.00469970703</ele>
        <time>2019-04-18T00:26:16.349Z</time>
      </trkpt>
      <trkpt lat="44.58144" lon="0.88291">
        <ele>198.65687561035</ele>
        <time>2019-04-18T00:26:32.820Z</time>
      </trkpt>
      <trkpt lat="44.58064" lon="0.88353">
        <ele>202.5199432373</ele>
        <time>2019-04-18T00:26:49.309Z</time>
      </trkpt>
      <trkpt lat="44.58019" lon="0.8837">
        <ele>201.14366149902</ele>
        <time>2019-04-18T00:27:05.808Z</time>
      </trkpt>
      <trkpt lat="44.57932" lon="0.88422">
        <ele>203.46487426758</ele>
        <time>2019-04-18T00:27:22.326Z</time>
      </trkpt>
      <trkpt lat="44.57858" lon="0.88468">
        <ele>209.14964294434</ele>
        <time>2019-04-18T00:27:38.860Z</time>
      </trkpt>
      <trkpt lat="44.57791" lon="0.88501">
        <ele>208.89836120605</ele>
        <time>2019-04-18T00:27:55.408Z</time>
      </trkpt>
      <trkpt lat="44.57718" lon="0.88548">
        <ele>204.8984375</ele>
        <time>2019-04-18T00:28:11.972Z</time>
      </trkpt>
      <trkpt lat="44.57671" lon="0.88555">
        <ele>205.03901672363</ele>
        <time>2019-04-18T00:28:28.546Z</time>
      </trkpt>
      <trkpt lat="44.57576" lon="0.88548">
        <ele>205.69229125977</ele>
        <time>2019-04-18T00:28:45.139Z</time>
      </trkpt>
      <trkpt lat="44.5752" lon="0.88552">
        <ele>204</ele>
        <time>2019-04-18T00:29:01.743Z</time>
      </trkpt>
      <trkpt lat="44.57455" lon="0.88578">
        <ele>201.32293701172</ele>
        <time>2019-04-18T00:29:18.360Z</time>
      </trkpt>
      <trkpt lat="44.57402" lon="0.88621">
        <ele>193.66407775879</ele>
        <time>2019-04-18T00:29:34.990Z</time>
      </trkpt>
      <trkpt lat="44.57321" lon="0.88649">
        <ele>188.78350830078</ele>
        <time>2019-04-18T00:29:51.636Z</time>
      </trkpt>
      <trkpt lat="44.57236" lon="0.88695">
        <ele>180.62498474121</ele>
        <time>2019-04-18T00:30:08.301Z</time>
      </trkpt>
      <trkpt lat="44.57192" lon="0.88765">
        <ele>181.95843505859</ele>
        <time>2019-04-18T00:30:24.979Z</time>
      </trkpt>
      <trkpt lat="44.57139" lon="0.88823">
        <ele>181.17456054688</ele>
        <time>2019-04-18T00:30:41.670Z</time>
      </trkpt>
      <trkpt lat="44.57129" lon="0.8885">
        <ele>180.94372558594</ele>
        <time>2019-04-18T00:30:58.366Z</time>
      </trkpt>
      <trkpt lat="44.57103" lon="0.88899">
        <ele>180.51788330078</ele>
        <time>2019-04-18T00:31:15.070Z</time>
      </trkpt>
      <trkpt lat="44.57067" lon="0.88964">
        <ele>178.77217102051</ele>
        <time>2019-04-18T00:31:31.786Z</time>
      </trkpt>
      <trkpt lat="44.57017" lon="0.89043">
        <ele>175.48980712891</ele>
        <time>2019-04-18T00:31:48.517Z</time>
      </trkpt>
      <trkpt lat="44.56965" lon="0.8908">
        <ele>176.47547912598</ele>
        <time>2019-04-18T00:32:05.260Z</time>
      </trkpt>
      <trkpt lat="44.56992" lon="0.89142">
        <ele>172.6434173584</ele>
        <time>2019-04-18T00:32:22.013Z</time>
      </trkpt>
      <trkpt lat="44.57003" lon="0.89166">
        <ele>174.50311279297</ele>
        <time>2019-04-18T00:32:38.770Z</time>
      </trkpt>
      <trkpt lat="44.56995" lon="0.89197">
        <ele>176.15963745117</ele>
        <time>2019-04-18T00:32:55.532Z</time>
      </trkpt>
      <trkpt lat="44.56953" lon="0.89218">
        <ele>174.89984130859</ele>
        <time>2019-04-18T00:33:12.303Z</time>
      </trkpt>
      <trkpt lat="44.56917" lon="0.89253">
        <ele>177.39633178711</ele>
        <time>2019-04-18T00:33:29.083Z</time>
      </trkpt>
      <trkpt lat="44.56886" lon="0.89273">
        <ele>177.67408752441</ele>
        <time>2019-04-18T00:33:45.870Z</time>
      </trkpt>
      <trkpt lat="44.56874" lon="0.89293">
        <ele>178.3939666748</ele>
        <time>2019-04-18T00:34:02.660Z</time>
      </trkpt>
      <trkpt lat="44.56772" lon="0.89308">
        <ele>177.22232055664</ele>
        <time>2019-04-18T00:34:19.471Z</time>
      </trkpt>
      <trkpt lat="44.56737" lon="0.89347">
        <ele>178.19775390625</ele>
        <time>2019-04-18T00:34:36.291Z</time>
      </trkpt>
      <trkpt lat="44.56689" lon="0.89371">
        <ele>180.5046081543</ele>
        <time>2019-04-18T00:34:53.121Z</time>
      </trkpt>
      <trkpt lat="44.56635" lon="0.89369">
        <ele>178.61273193359</ele>
        <time>2019-04-18T00:35:09.962Z</time>
      </trkpt>
      <trkpt lat="44.56577" lon="0.89395">
        <ele>180.79486083984</ele>
        <time>2019-04-18T00:35:26.815Z</time>
      </trkpt>
      <trkpt lat="44.56512" lon="0.89381">
        <ele>179.66201782227</ele>
        <time>2019-04-18T00:35:43.681Z</time>
      </trkpt>
      <trkpt lat="44.56473" lon="0.89404">
        <ele>181.10823059082</ele>
        <time>2019-04-18T00:36:00.556Z</time>
      </trkpt>
      <trkpt lat="44.56452" lon="0.89417">
        <ele>182.2645111084</ele>
        <time>2019-04-18T00:36:17.435Z</time>
      </trkpt>
      <trkpt lat="44.56436" lon="0.89418">
        <ele>183.08374023438</ele>
        <time>2019-04-18T00:36:34.317Z</time>
      </trkpt>
      <trkpt lat="44.56426" lon="0.89272">
        <ele>171.8406829834</ele>
        <time>2019-04-18T00:36:51.220Z</time>
      </trkpt>
      <trkpt lat="44.56447" lon="0.89177">
        <ele>168.37591552734</ele>
        <time>2019-04-18T00:37:08.138Z</time>
      </trkpt>
      <trkpt lat="44.56401" lon="0.89079">
        <ele>173.6237487793</ele>
        <time>2019-04-18T00:37:25.072Z</time>
      </trkpt>
      <trkpt lat="44.56421" lon="0.89099">
        <ele>173.1438293457</ele>
        <time>2019-04-18T00:37:42.011Z</time>
      </trkpt>
      <trkpt lat="44.56442" lon="0.89117">
        <ele>173.0358581543</ele>
        <time>2019-04-18T00:37:58.955Z</time>
      </trkpt>
      <trkpt lat="44.56487" lon="0.89105">
        <ele>177.32475280762</ele>
        <time>2019-04-18T00:38:15.908Z</time>
      </trkpt>
      <trkpt lat="44.565" lon="0.89064">
        <ele>185.84483337402</ele>
        <time>2019-04-18T00:38:32.868Z</time>
      </trkpt>
      <trkpt lat="44.56478" lon="0.89065">
        <ele>183.27726745605</ele>
        <time>2019-04-18T00:38:49.832Z</time>
      </trkpt>
      <trkpt lat="44.56449" lon="0.89033">
        <ele>183.87477111816</ele>
        <time>2019-04-18T00:39:06.804Z</time>
      </trkpt>
      <trkpt lat="44.56421" lon="0.88957">
        <ele>187.74977111816</ele>
        <time>2019-04-18T00:39:23.788Z</time>
      </trkpt>
      <trkpt lat="44.56371" lon="0.88916">
        <ele>185.84208679199</ele>
        <time>2019-04-18T00:39:40.783Z</time>
      </trkpt>
      <trkpt lat="44.56304" lon="0.88946">
        <ele>179.09454345703</ele>
        <time>2019-04-18T00:39:57.792Z</time>
      </trkpt>
      <trkpt lat="44.56281" lon="0.88953">
        <ele>175.86959838867</ele>
        <time>2019-04-18T00:40:14.806Z</time>
      </trkpt>
      <trkpt lat="44.56222" lon="0.8893">
        <ele>163.44679260254</ele>
        <time>2019-04-18T00:40:31.832Z</time>
      </trkpt>
      <trkpt lat="44.56228" lon="0.88876">
        <ele>161.80421447754</ele>
        <time>2019-04-18T00:40:48.866Z</time>
      </trkpt>
      <trkpt lat="44.56156" lon="0.88883">
        <ele>154.39668273926</ele>
        <time>2019-04-18T00:41:05.915Z</time>
      </trkpt>
      <trkpt lat="44.56136" lon="0.88855">
        <ele>149.50149536133</ele>
        <time>2019-04-18T00:41:22.969Z</time>
      </trkpt>
      <trkpt lat="44.56094" lon="0.88861">
        <ele>150.61787414551</ele>
        <time>2019-04-18T00:41:40.032Z</time>
      </trkpt>
      <trkpt lat="44.56071" lon="0.88816">
        <ele>146.05863952637</ele>
        <time>2019-04-18T00:41:57.103Z</time>
      </trkpt>
      <trkpt lat="44.5604" lon="0.88764">
        <ele>138.50727844238</ele>
        <time>2019-04-18T00:42:14.183Z</time>
      </trkpt>
      <trkpt lat="44.56012" lon="0.88765">
        <ele>149.49931335449</ele>
        <time>2019-04-18T00:42:31.269Z</time>
      </trkpt>
      <trkpt lat="44.56036" lon="0.88708">
        <ele>130.29776000977</ele>
        <time>2019-04-18T00:42:48.364Z</time>
      </trkpt>
      <trkpt lat="44.56057" lon="0.88693">
        <ele>127.74219512939</ele>
        <time>2019-04-18T00:43:05.464Z</time>
      </trkpt>
      <trkpt lat="44.5604" lon="0.88635">
        <ele>127.7085723877</ele>
        <time>2019-04-18T00:43:22.573Z</time>
      </trkpt>
      <trkpt lat="44.56009" lon="0.88573">
        <ele>135.99154663086</ele>
        <time>2019-04-18T00:43:39.693Z</time>
      </trkpt>
      <trkpt lat="44.56005" lon="0.88558">
        <ele>137.35932922363</ele>
        <time>2019-04-18T00:43:56.815Z</time>
      </trkpt>
      <trkpt lat="44.55984" lon="0.88502">
        <ele>131.06159973145</ele>
        <time>2019-04-18T00:44:13.946Z</time>
      </trkpt>
      <trkpt lat="44.55947" lon="0.88445">
        <ele>128.58186340332</ele>
        <time>2019-04-18T00:44:31.088Z</time>
      </trkpt>
      <trkpt lat="44.55905" lon="0.8838">
        <ele>121.79858398438</ele>
        <time>2019-04-18T00:44:48.243Z</time>
      </trkpt>
      <trkpt lat="44.55844" lon="0.88357">
        <ele>127.00494384766</ele>
        <time>2019-04-18T00:45:05.410Z</time>
      </trkpt>
      <trkpt lat="44.55798" lon="0.88405">
        <ele>125.03778839111</ele>
        <time>2019-04-18T00:45:22.589Z</time>
      </trkpt>
      <trkpt lat="44.55768" lon="0.88465">
        <ele>126.9916305542</ele>
        <time>2019-04-18T00:45:39.778Z</time>
      </trkpt>
      <trkpt lat="44.55744" lon="0.88506">
        <ele>134.45335388184</ele>
        <time>2019-04-18T00:45:56.975Z</time>
      </trkpt>
      <trkpt lat="44.55698" lon="0.88536">
        <ele>131.20027160645</ele>
        <time>2019-04-18T00:46:14.182Z</time>
      </trkpt>
      <trkpt lat="44.55663" lon="0.88562">
        <ele>137.14567565918</ele>
        <time>2019-04-18T00:46:31.397Z</time>
      </trkpt>
      <trkpt lat="44.55673" lon="0.88511">
        <ele>128.80065917969</ele>
        <time>2019-04-18T00:46:48.620Z</time>
      </trkpt>
      <trkpt lat="44.55711" lon="0.88488">
        <ele>126.31335449219</ele>
        <time>2019-04-18T00:47:05.851Z</time>
      </trkpt>
      <trkpt lat="44.55766" lon="0.88429">
        <ele>127.48033905029</ele>
        <time>2019-04-18T00:47:23.096Z</time>
      </trkpt>
      <trkpt lat="44.55798" lon="0.88365">
        <ele>129.09274291992</ele>
        <time>2019-04-18T00:47:40.352Z</time>
      </trkpt>
      <trkpt lat="44.55782" lon="0.88324">
        <ele>137.50901794434</ele>
        <time>2019-04-18T00:47:57.615Z</time>
      </trkpt>
      <trkpt lat="44.55754" lon="0.88364">
        <ele>129.09030151367</ele>
        <time>2019-04-18T00:48:14.886Z</time>
      </trkpt>
      <trkpt lat="44.5573" lon="0.88417">
        <ele>130.21588134766</ele>
        <time>2019-04-18T00:48:32.166Z</time>
      </trkpt>
      <trkpt lat="44.55682" lon="0.88437">
        <ele>123.82641601562</ele>
        <time>2019-04-18T00:48:49.456Z</time>
      </trkpt>
      <trkpt lat="44.55658" lon="0.88412">
        <ele>123.65843963623</ele>
        <time>2019-04-18T00:49:06.752Z</time>
      </trkpt>
      <trkpt lat="44.55658" lon="0.88365">
        <ele>125.73539733887</ele>
        <time>2019-04-18T00:49:24.054Z</time>
      </trkpt>
      <trkpt lat="44.55686" lon="0.8832">
        <ele>132.95106506348</ele>
        <time>2019-04-18T00:49:41.365Z</time>
      </trkpt>
      <trkpt lat="44.55713" lon="0.88284">
        <ele>134.89060974121</ele>
        <time>2019-04-18T00:49:58.683Z</time>
      </trkpt>
      <trkpt lat="44.55748" lon="0.88237">
        <ele>137.28115844727</ele>
        <time>2019-04-18T00:50:16.011Z</time>
      </trkpt>
      <trkpt lat="44.55781" lon="0.88173">
        <ele>142.68113708496</ele>
        <time>2019-04-18T00:50:33.350Z</time>
      </trkpt>
      <trkpt lat="44.55812" lon="0.88109">
        <ele>147.16622924805</ele>
        <time>2019-04-18T00:50:50.700Z</time>
      </trkpt>
      <trkpt lat="44.55831" lon="0.88052">
        <ele>150.30039978027</ele>
        <time>2019-04-18T00:51:08.059Z</time>
      </trkpt>
      <trkpt lat="44.55851" lon="0.87948">
        <ele>164.10092163086</ele>
        <time>2019-04-18T00:51:25.434Z</time>
      </trkpt>
      <trkpt lat="44.55847" lon="0.87908">
        <ele>168.8521270752</ele>
        <time>2019-04-18T00:51:42.815Z</time>
      </trkpt>
      <trkpt lat="44.55825" lon="0.87886">
        <ele>168.72048950195</ele>
        <time>2019-04-18T00:52:00.201Z</time>
      </trkpt>
      <trkpt lat="44.5582" lon="0.87861">
        <ele>170.46018981934</ele>
        <time>2019-04-18T00:52:17.591Z</time>
      </trkpt>
      <trkpt lat="44.5582" lon="0.87822">
        <ele>173.48388671875</ele>
        <time>2019-04-18T00:52:34.986Z</time>
      </trkpt>
      <trkpt lat="44.55793" lon="0.87785">
        <ele>171.5778503418</ele>
        <time>2019-04-18T00:52:52.389Z</time>
      </trkpt>
      <trkpt lat="44.55674" lon="0.87668">
        <ele>165.70867919922</ele>
        <time>2019-04-18T00:53:09.821Z</time>
      </trkpt>
      <trkpt lat="44.55713" lon="0.8751">
        <ele>169.39897155762</ele>
        <time>2019-04-18T00:53:27.277Z</time>
      </trkpt>
      <trkpt lat="44.55652" lon="0.87446">
        <ele>166.26879882812</ele>
        <time>2019-04-18T00:53:44.748Z</time>
      </trkpt>
      <trkpt lat="44.557" lon="0.87399">
        <ele>167.31602478027</ele>
        <time>2019-04-18T00:54:02.231Z</time>
      </trkpt>
      <trkpt lat="44.5577" lon="0.87317">
        <ele>165.73127746582</ele>
        <time>2019-04-18T00:54:19.732Z</time>
      </trkpt>
      <trkpt lat="44.55834" lon="0.87278">
        <ele>168.57666015625</ele>
        <time>2019-04-18T00:54:37.247Z</time>
      </trkpt>
      <trkpt lat="44.55952" lon="0.87259">
        <ele>178.51649475098</ele>
        <time>2019-04-18T00:54:54.786Z</time>
      </trkpt>
      <trkpt lat="44.56058" lon="0.87261">
        <ele>187.15933227539</ele>
        <time>2019-04-18T00:55:12.346Z</time>
      </trkpt>
      <trkpt lat="44.56203" lon="0.8728">
        <ele>190.07011413574</ele>
        <time>2019-04-18T00:55:29.935Z</time>
      </trkpt>
      <trkpt lat="44.56255" lon="0.87277">
        <ele>191.94180297852</ele>
        <time>2019-04-18T00:55:47.534Z</time>
      </trkpt>
      <trkpt lat="44.56326" lon="0.8724">
        <ele>194.58569335938</ele>
        <time>2019-04-18T00:56:05.149Z</time>
      </trkpt>
      <trkpt lat="44.56378" lon="0.87214">
        <ele>197.04943847656</ele>
        <time>2019-04-18T00:56:22.775Z</time>
      </trkpt>
      <trkpt lat="44.56486" lon="0.87201">
        <ele>201.36264038086</ele>
        <time>2019-04-18T00:56:40.422Z</time>
      </trkpt>
      <trkpt lat="44.56623" lon="0.8721">
        <ele>202.87493896484</ele>
        <time>2019-04-18T00:56:58.097Z</time>
      </trkpt>
      <trkpt lat="44.5673" lon="0.87186">
        <ele>202.7699432373</ele>
        <time>2019-04-18T00:57:15.793Z</time>
      </trkpt>
      <trkpt lat="44.56842" lon="0.87158">
        <ele>202.53147888184</ele>
        <time>2019-04-18T00:57:33.512Z</time>
      </trkpt>
      <trkpt lat="44.56939" lon="0.87142">
        <ele>201.35333251953</ele>
        <time>2019-04-18T00:57:51.251Z</time>
      </trkpt>
      <trkpt lat="44.57053" lon="0.87121">
        <ele>204.10989379883</ele>
        <time>2019-04-18T00:58:09.013Z</time>
      </trkpt>
      <trkpt lat="44.57108" lon="0.87057">
        <ele>202.67401123047</ele>
        <time>2019-04-18T00:58:26.789Z</time>
      </trkpt>
      <trkpt lat="44.57166" lon="0.86978">
        <ele>201.12385559082</ele>
        <time>2019-04-18T00:58:44.581Z</time>
      </trkpt>
      <trkpt lat="44.57181" lon="0.86944">
        <ele>200.1330871582</ele>
        <time>2019-04-18T00:59:02.379Z</time>
      </trkpt>
      <trkpt lat="44.57221" lon="0.86871">
        <ele>201.73170471191</ele>
        <time>2019-04-18T00:59:20.190Z</time>
      </trkpt>
      <trkpt lat="44.57253" lon="0.86779">
        <ele>202.72738647461</ele>
        <time>2019-04-18T00:59:38.016Z</time>
      </trkpt>
      <trkpt lat="44.5726" lon="0.86694">
        <ele>203.92254638672</ele>
        <time>2019-04-18T00:59:55.854Z</time>
      </trkpt>
      <trkpt lat="44.57276" lon="0.86633">
        <ele>206.22860717773</ele>
        <time>2019-04-18T01:00:13.701Z</time>
      </trkpt>
      <trkpt lat="44.57323" lon="0.86542">
        <ele>204.78434753418</ele>
        <time>2019-04-18T01:00:31.564Z</time>
      </trkpt>
      <trkpt lat="44.57339" lon="0.86478">
        <ele>204.85566711426</ele>
        <time>2019-04-18T01:00:49.437Z</time>
      </trkpt>
      <trkpt lat="44.57338" lon="0.86368">
        <ele>204.61715698242</ele>
        <time>2019-04-18T01:01:07.326Z</time>
      </trkpt>
      <trkpt lat="44.57313" lon="0.86282">
        <ele>202.8162689209</ele>
        <time>2019-04-18T01:01:25.228Z</time>
      </trkpt>
      <trkpt lat="44.57303" lon="0.86114">
        <ele>196.91682434082</ele>
        <time>2019-04-18T01:01:43.154Z</time>
      </trkpt>
      <trkpt lat="44.57307" lon="0.86066">
        <ele>196.68774414062</ele>
        <time>2019-04-18T01:02:01.087Z</time>
      </trkpt>
      <trkpt lat="44.5734" lon="0.85999">
        <ele>194.90963745117</ele>
        <time>2019-04-18T01:02:19.032Z</time>
      </trkpt>
      <trkpt lat="44.57399" lon="0.86038">
        <ele>197.17309570312</ele>
        <time>2019-04-18T01:02:36.990Z</time>
      </trkpt>
      <trkpt lat="44.57453" lon="0.86056">
        <ele>196.89518737793</ele>
        <time>2019-04-18T01:02:54.959Z</time>
      </trkpt>
      <trkpt lat="44.57487" lon="0.8608">
        <ele>195.14370727539</ele>
        <time>2019-04-18T01:03:12.935Z</time>
      </trkpt>
      <trkpt lat="44.57617" lon="0.86024">
        <ele>191.46336364746</ele>
        <time>2019-04-18T01:03:30.939Z</time>
      </trkpt>
      <trkpt lat="44.58104" lon="0.85813">
        <ele>182.00018310547</ele>
        <time>2019-04-18T01:03:49.045Z</time>
      </trkpt>
      <trkpt lat="44.58167" lon="0.8579">
        <ele>183.95402526855</ele>
        <time>2019-04-18T01:04:07.164Z</time>
      </trkpt>
      <trkpt lat="44.58204" lon="0.85726">
        <ele>184.13455200195</ele>
        <time>2019-04-18T01:04:25.294Z</time>
      </trkpt>
      <trkpt lat="44.58228" lon="0.85661">
        <ele>183.39503479004</ele>
        <time>2019-04-18T01:04:43.435Z</time>
      </trkpt>
      <trkpt lat="44.58254" lon="0.85626">
        <ele>185.20333862305</ele>
        <time>2019-04-18T01:05:01.583Z</time>
      </trkpt>
      <trkpt lat="44.58406" lon="0.85559">
        <ele>188.43844604492</ele>
        <time>2019-04-18T01:05:19.763Z</time>
      </trkpt>
      <trkpt lat="44.58497" lon="0.85496">
        <ele>189.92124938965</ele>
        <time>2019-04-18T01:05:37.963Z</time>
      </trkpt>
      <trkpt lat="44.58542" lon="0.85464">
        <ele>190.2574005127</ele>
        <time>2019-04-18T01:05:56.173Z</time>
      </trkpt>
      <trkpt lat="44.58687" lon="0.85501">
        <ele>183.17990112305</ele>
        <time>2019-04-18T01:06:14.413Z</time>
      </trkpt>
      <trkpt lat="44.58815" lon="0.85537">
        <ele>180.90296936035</ele>
        <time>2019-04-18T01:06:32.679Z</time>
      </trkpt>
      <trkpt lat="44.58828" lon="0.8545">
        <ele>183.36740112305</ele>
        <time>2019-04-18T01:06:50.958Z</time>
      </trkpt>
      <trkpt lat="44.58852" lon="0.85409">
        <ele>182.86198425293</ele>
        <time>2019-04-18T01:07:09.244Z</time>
      </trkpt>
      <trkpt lat="44.58923" lon="0.85282">
        <ele>175.08158874512</ele>
        <time>2019-04-18T01:07:27.553Z</time>
      </trkpt>
      <trkpt lat="44.58974" lon="0.85213">
        <ele>173.2257232666</ele>
        <time>2019-04-18T01:07:45.876Z</time>
      </trkpt>
      <trkpt lat="44.59062" lon="0.85152">
        <ele>170.73890686035</ele>
        <time>2019-04-18T01:08:04.219Z</time>
      </trkpt>
      <trkpt lat="44.59169" lon="0.85102">
        <ele>167.33479309082</ele>
        <time>2019-04-18T01:08:22.585Z</time>
      </trkpt>
      <trkpt lat="44.59263" lon="0.85079">
        <ele>164.06596374512</ele>
        <time>2019-04-18T01:08:40.970Z</time>
      </trkpt>
      <trkpt lat="44.5931" lon="0.85036">
        <ele>162.76181030273</ele>
        <time>2019-04-18T01:08:59.366Z</time>
      </trkpt>
      <trkpt lat="44.59329" lon="0.8497">
        <ele>163.43710327148</ele>
        <time>2019-04-18T01:09:17.772Z</time>
      </trkpt>
      <trkpt lat="44.59365" lon="0.84928">
        <ele>163.20333862305</ele>
        <time>2019-04-18T01:09:36.188Z</time>
      </trkpt>
      <trkpt lat="44.594" lon="0.84886">
        <ele>163.02928161621</ele>
        <time>2019-04-18T01:09:54.613Z</time>
      </trkpt>
      <trkpt lat="44.59408" lon="0.8482">
        <ele>161.24835205078</ele>
        <time>2019-04-18T01:10:13.047Z</time>
      </trkpt>
      <trkpt lat="44.59394" lon="0.84754">
        <ele>156.50624084473</ele>
        <time>2019-04-18T01:10:31.491Z</time>
      </trkpt>
      <trkpt lat="44.59364" lon="0.84698">
        <ele>152.70649719238</ele>
        <time>2019-04-18T01:10:49.945Z</time>
      </trkpt>
      <trkpt lat="44.59341" lon="0.84655">
        <ele>152.19058227539</ele>
        <time>2019-04-18T01:11:08.407Z</time>
      </trkpt>
      <trkpt lat="44.59322" lon="0.84614">
        <ele>151.6986541748</ele>
        <time>2019-04-18T01:11:26.876Z</time>
      </trkpt>
      <trkpt lat="44.59308" lon="0.84558">
        <ele>151.52755737305</ele>
        <time>2019-04-18T01:11:45.353Z</time>
      </trkpt>
      <trkpt lat="44.59312" lon="0.84495">
        <ele>148.00479125977</ele>
        <time>2019-04-18T01:12:03.839Z</time>
      </trkpt>
      <trkpt lat="44.59309" lon="0.84461">
        <ele>145.61907958984</ele>
        <time>2019-04-18T01:12:22.330Z</time>
      </trkpt>
      <trkpt lat="44.59311" lon="0.84413">
        <ele>141.6618347168</ele>
        <time>2019-04-18T01:12:40.828Z</time>
      </trkpt>
      <trkpt lat="44.59308" lon="0.84366">
        <ele>139.55464172363</ele>
        <time>2019-04-18T01:12:59.333Z</time>
      </trkpt>
      <trkpt lat="44.59298" lon="0.84329">
        <ele>138.75077819824</ele>
        <time>2019-04-18T01:13:17.844Z</time>
      </trkpt>
      <trkpt lat="44.59287" lon="0.8431">
        <ele>138.12687683105</ele>
        <time>2019-04-18T01:13:36.358Z</time>
      </trkpt>
      <trkpt lat="44.59264" lon="0.84286">
        <ele>138.76631164551</ele>
        <time>2019-04-18T01:13:54.878Z</time>
      </trkpt>
      <trkpt lat="44.59237" lon="0.84267">
        <ele>139.83413696289</ele>
        <time>2019-04-18T01:14:13.404Z</time>
      </trkpt>
      <trkpt lat="44.59207" lon="0.84237">
        <ele>140.91395568848</ele>
        <time>2019-04-18T01:14:31.937Z</time>
      </trkpt>
      <trkpt lat="44.59189" lon="0.84212">
        <ele>141.6024017334</ele>
        <time>2019-04-18T01:14:50.475Z</time>
      </trkpt>
      <trkpt lat="44.59166" lon="0.84184">
        <ele>142.74014282227</ele>
        <time>2019-04-18T01:15:09.019Z</time>
      </trkpt>
      <trkpt lat="44.59147" lon="0.84153">
        <ele>143.79595947266</ele>
        <time>2019-04-18T01:15:27.569Z</time>
      </trkpt>
      <trkpt lat="44.59126" lon="0.84094">
        <ele>147.96122741699</ele>
        <time>2019-04-18T01:15:46.129Z</time>
      </trkpt>
      <trkpt lat="44.59117" lon="0.84038">
        <ele>152.06094360352</ele>
        <time>2019-04-18T01:16:04.697Z</time>
      </trkpt>
      <trkpt lat="44.59123" lon="0.83981">
        <ele>155.36531066895</ele>
        <time>2019-04-18T01:16:23.273Z</time>
      </trkpt>
      <trkpt lat="44.59136" lon="0.83936">
        <ele>156.00897216797</ele>
        <time>2019-04-18T01:16:41.856Z</time>
      </trkpt>
      <trkpt lat="44.5916" lon="0.83895">
        <ele>156.78370666504</ele>
        <time>2019-04-18T01:17:00.447Z</time>
      </trkpt>
      <trkpt lat="44.59184" lon="0.83857">
        <ele>154.65968322754</ele>
        <time>2019-04-18T01:17:19.045Z</time>
      </trkpt>
      <trkpt lat="44.59199" lon="0.83809">
        <ele>152.14010620117</ele>
        <time>2019-04-18T01:17:37.650Z</time>
      </trkpt>
      <trkpt lat="44.59203" lon="0.83749">
        <ele>150.67552185059</ele>
        <time>2019-04-18T01:17:56.264Z</time>
      </trkpt>
      <trkpt lat="44.592" lon="0.83694">
        <ele>149.20927429199</ele>
        <time>2019-04-18T01:18:14.886Z</time>
      </trkpt>
      <trkpt lat="44.59217" lon="0.8365">
        <ele>148.87396240234</ele>
        <time>2019-04-18T01:18:33.515Z</time>
      </trkpt>
      <trkpt lat="44.59243" lon="0.83595">
        <ele>150.46728515625</ele>
        <time>2019-04-18T01:18:52.153Z</time>
      </trkpt>
      <trkpt lat="44.59245" lon="0.83576">
        <ele>150.28730773926</ele>
        <time>2019-04-18T01:19:10.794Z</time>
      </trkpt>
      <trkpt lat="44.59171" lon="0.83597">
        <ele>147.40362548828</ele>
        <time>2019-04-18T01:19:29.450Z</time>
      </trkpt>
      <trkpt lat="44.59117" lon="0.83602">
        <ele>143.61427307129</ele>
        <time>2019-04-18T01:19:48.117Z</time>
      </trkpt>
      <trkpt lat="44.59052" lon="0.83597">
        <ele>136.4397277832</ele>
        <time>2019-04-18T01:20:06.797Z</time>
      </trkpt>
      <trkpt lat="44.59002" lon="0.83598">
        <ele>131.45198059082</ele>
        <time>2019-04-18T01:20:25.487Z</time>
      </trkpt>
      <trkpt lat="44.58938" lon="0.83604">
        <ele>130.48333740234</ele>
        <time>2019-04-18T01:20:44.190Z</time>
      </trkpt>
      <trkpt lat="44.58892" lon="0.83609">
        <ele>130.76602172852</ele>
        <time>2019-04-18T01:21:02.902Z</time>
      </trkpt>
      <trkpt lat="44.5884" lon="0.83624">
        <ele>133.42027282715</ele>
        <time>2019-04-18T01:21:21.625Z</time>
      </trkpt>
      <trkpt lat="44.5881" lon="0.83631">
        <ele>134.72805786133</ele>
        <time>2019-04-18T01:21:40.354Z</time>
      </trkpt>
      <trkpt lat="44.58792" lon="0.83551">
        <ele>128.76565551758</ele>
        <time>2019-04-18T01:21:59.095Z</time>
      </trkpt>
      <trkpt lat="44.58792" lon="0.83525">
        <ele>129.38954162598</ele>
        <time>2019-04-18T01:22:17.840Z</time>
      </trkpt>
      <trkpt lat="44.58798" lon="0.83507">
        <ele>129.53352355957</ele>
        <time>2019-04-18T01:22:36.587Z</time>
      </trkpt>
      <trkpt lat="44.58798" lon="0.83507">
        <ele>129.53375244141</ele>
        <time>2019-04-18T01:22:55.334Z</time>
      </trkpt>
      <trkpt lat="44.58803" lon="0.83479">
        <ele>130.10269165039</ele>
        <time>2019-04-18T01:23:14.085Z</time>
      </trkpt>
      <trkpt lat="44.58798" lon="0.83455">
        <ele>131.76759338379</ele>
        <time>2019-04-18T01:23:32.840Z</time>
      </trkpt>
      <trkpt lat="44.58775" lon="0.83432">
        <ele>134.84002685547</ele>
        <time>2019-04-18T01:23:51.601Z</time>
      </trkpt>
      <trkpt lat="44.58752" lon="0.83411">
        <ele>138.55941772461</ele>
        <time>2019-04-18T01:24:10.367Z</time>
      </trkpt>
      <trkpt lat="44.58722" lon="0.83379">
        <ele>143.38594055176</ele>
        <time>2019-04-18T01:24:29.141Z</time>
      </trkpt>
      <trkpt lat="44.5872" lon="0.83333">
        <ele>145.23362731934</ele>
        <time>2019-04-18T01:24:47.921Z</time>
      </trkpt>
      <trkpt lat="44.58693" lon="0.83309">
        <ele>147.77458190918</ele>
        <time>2019-04-18T01:25:06.708Z</time>
      </trkpt>
      <trkpt lat="44.58677" lon="0.83292">
        <ele>148.19451904297</ele>
        <time>2019-04-18T01:25:25.499Z</time>
      </trkpt>
      <trkpt lat="44.58675" lon="0.83275">
        <ele>148.4878692627</ele>
        <time>2019-04-18T01:25:44.292Z</time>
      </trkpt>
      <trkpt lat="44.58706" lon="0.83245">
        <ele>145.27651977539</ele>
        <time>2019-04-18T01:26:03.093Z</time>
      </trkpt>
      <trkpt lat="44.58761" lon="0.8319">
        <ele>142.78970336914</ele>
        <time>2019-04-18T01:26:21.907Z</time>
      </trkpt>
      <trkpt lat="44.58805" lon="0.83132">
        <ele>144.19607543945</ele>
        <time>2019-04-18T01:26:40.733Z</time>
      </trkpt>
      <trkpt lat="44.58846" lon="0.83131">
        <ele>142.25239562988</ele>
        <time>2019-04-18T01:26:59.568Z</time>
      </trkpt>
      <trkpt lat="44.58859" lon="0.83115">
        <ele>141.65963745117</ele>
        <time>2019-04-18T01:27:18.406Z</time>
      </trkpt>
      <trkpt lat="44.5887" lon="0.83078">
        <ele>140.91184997559</ele>
        <time>2019-04-18T01:27:37.250Z</time>
      </trkpt>
      <trkpt lat="44.58867" lon="0.83052">
        <ele>140.95707702637</ele>
        <time>2019-04-18T01:27:56.098Z</time>
      </trkpt>
      <trkpt lat="44.58869" lon="0.8302">
        <ele>139.65124511719</ele>
        <time>2019-04-18T01:28:14.950Z</time>
      </trkpt>
      <trkpt lat="44.58882" lon="0.82982">
        <ele>137.14356994629</ele>
        <time>2019-04-18T01:28:33.808Z</time>
      </trkpt>
      <trkpt lat="44.58906" lon="0.82947">
        <ele>134.36825561523</ele>
        <time>2019-04-18T01:28:52.673Z</time>
      </trkpt>
      <trkpt lat="44.58933" lon="0.8293">
        <ele>132.62835693359</ele>
        <time>2019-04-18T01:29:11.544Z</time>
      </trkpt>
      <trkpt lat="44.58964" lon="0.82917">
        <ele>130.48733520508</ele>
        <time>2019-04-18T01:29:30.421Z</time>
      </trkpt>
      <trkpt lat="44.58989" lon="0.82907">
        <ele>128.31123352051</ele>
        <time>2019-04-18T01:29:49.304Z</time>
      </trkpt>
      <trkpt lat="44.59018" lon="0.82893">
        <ele>126.36755371094</ele>
        <time>2019-04-18T01:30:08.193Z</time>
      </trkpt>
      <trkpt lat="44.59024" lon="0.82868">
        <ele>127.1611328125</ele>
        <time>2019-04-18T01:30:27.086Z</time>
      </trkpt>
      <trkpt lat="44.59028" lon="0.82843">
        <ele>128.32493591309</ele>
        <time>2019-04-18T01:30:45.982Z</time>
      </trkpt>
      <trkpt lat="44.59041" lon="0.82792">
        <ele>129.51272583008</ele>
        <time>2019-04-18T01:31:04.886Z</time>
      </trkpt>
      <trkpt lat="44.5905" lon="0.82751">
        <ele>129.30876159668</ele>
        <time>2019-04-18T01:31:23.796Z</time>
      </trkpt>
      <trkpt lat="44.59061" lon="0.82711">
        <ele>128.41622924805</ele>
        <time>2019-04-18T01:31:42.712Z</time>
      </trkpt>
      <trkpt lat="44.59064" lon="0.8268">
        <ele>127.64836120605</ele>
        <time>2019-04-18T01:32:01.633Z</time>
      </trkpt>
      <trkpt lat="44.59052" lon="0.82647">
        <ele>129.26449584961</ele>
        <time>2019-04-18T01:32:20.559Z</time>
      </trkpt>
      <trkpt lat="44.59023" lon="0.82632">
        <ele>131.1012878418</ele>
        <time>2019-04-18T01:32:39.491Z</time>
      </trkpt>
      <trkpt lat="44.58978" lon="0.82617">
        <ele>132.00114440918</ele>
        <time>2019-04-18T01:32:58.432Z</time>
      </trkpt>
      <trkpt lat="44.58921" lon="0.82587">
        <ele>132.24697875977</ele>
        <time>2019-04-18T01:33:17.386Z</time>
      </trkpt>
      <trkpt lat="44.58956" lon="0.82464">
        <ele>128.73066711426</ele>
        <time>2019-04-18T01:33:36.359Z</time>
      </trkpt>
      <trkpt lat="44.58976" lon="0.82463">
        <ele>127.53086090088</ele>
        <time>2019-04-18T01:33:55.336Z</time>
      </trkpt>
      <trkpt lat="44.59005" lon="0.82466">
        <ele>125.7911529541</ele>
        <time>2019-04-18T01:34:14.318Z</time>
      </trkpt>
      <trkpt lat="44.59043" lon="0.82468">
        <ele>123.56018066406</ele>
        <time>2019-04-18T01:34:33.308Z</time>
      </trkpt>
      <trkpt lat="44.59043" lon="0.82439">
        <ele>123.21223449707</ele>
        <time>2019-04-18T01:34:52.302Z</time>
      </trkpt>
      <trkpt lat="44.59043" lon="0.82408">
        <ele>122.84029388428</ele>
        <time>2019-04-18T01:35:11.301Z</time>
      </trkpt>
      <trkpt lat="44.59053" lon="0.82379">
        <ele>122.02850341797</ele>
        <time>2019-04-18T01:35:30.304Z</time>
      </trkpt>
      <trkpt lat="44.5908" lon="0.82335">
        <ele>120.93669128418</ele>
        <time>2019-04-18T01:35:49.315Z</time>
      </trkpt>
      <trkpt lat="44.59205" lon="0.82123">
        <ele>119.60479736328</ele>
        <time>2019-04-18T01:36:08.366Z</time>
      </trkpt>
      <trkpt lat="44.59159" lon="0.82061">
        <ele>120.59938049316</ele>
        <time>2019-04-18T01:36:27.430Z</time>
      </trkpt>
      <trkpt lat="44.59207" lon="0.82036">
        <ele>118.57171630859</ele>
        <time>2019-04-18T01:36:46.504Z</time>
      </trkpt>
      <trkpt lat="44.59262" lon="0.81987">
        <ele>117.64017486572</ele>
        <time>2019-04-18T01:37:05.591Z</time>
      </trkpt>
      <trkpt lat="44.59324" lon="0.81972">
        <ele>117.06173706055</ele>
        <time>2019-04-18T01:37:24.690Z</time>
      </trkpt>
      <trkpt lat="44.59373" lon="0.81923">
        <ele>117.47871398926</ele>
        <time>2019-04-18T01:37:43.801Z</time>
      </trkpt>
      <trkpt lat="44.5944" lon="0.81797">
        <ele>106.61180877686</ele>
        <time>2019-04-18T01:38:02.935Z</time>
      </trkpt>
      <trkpt lat="44.5947" lon="0.81789">
        <ele>104.75040435791</ele>
        <time>2019-04-18T01:38:22.075Z</time>
      </trkpt>
      <trkpt lat="44.59504" lon="0.81754">
        <ele>103.24439239502</ele>
        <time>2019-04-18T01:38:41.223Z</time>
      </trkpt>
      <trkpt lat="44.59514" lon="0.81721">
        <ele>103.7487487793</ele>
        <time>2019-04-18T01:39:00.377Z</time>
      </trkpt>
      <trkpt lat="44.59516" lon="0.81653">
        <ele>104.37291717529</ele>
        <time>2019-04-18T01:39:19.540Z</time>
      </trkpt>
      <trkpt lat="44.59537" lon="0.81576">
        <ele>105.77597045898</ele>
        <time>2019-04-18T01:39:38.715Z</time>
      </trkpt>
      <trkpt lat="44.59556" lon="0.8152">
        <ele>108.3684387207</ele>
        <time>2019-04-18T01:39:57.899Z</time>
      </trkpt>
      <trkpt lat="44.5956" lon="0.81452">
        <ele>111.77869415283</ele>
        <time>2019-04-18T01:40:17.093Z</time>
      </trkpt>
      <trkpt lat="44.59581" lon="0.81398">
        <ele>113.32643890381</ele>
        <time>2019-04-18T01:40:36.295Z</time>
      </trkpt>
      <trkpt lat="44.59593" lon="0.81314">
        <ele>119.33750152588</ele>
        <time>2019-04-18T01:40:55.510Z</time>
      </trkpt>
      <trkpt lat="44.59622" lon="0.8124">
        <ele>125.77936553955</ele>
        <time>2019-04-18T01:41:14.737Z</time>
      </trkpt>
      <trkpt lat="44.59658" lon="0.81176">
        <ele>129.70526123047</ele>
        <time>2019-04-18T01:41:33.975Z</time>
      </trkpt>
      <trkpt lat="44.59757" lon="0.81186">
        <ele>127.21011352539</ele>
        <time>2019-04-18T01:41:53.233Z</time>
      </trkpt>
      <trkpt lat="44.59779" lon="0.81214">
        <ele>123.92266082764</ele>
        <time>2019-04-18T01:42:12.497Z</time>
      </trkpt>
      <trkpt lat="44.59813" lon="0.81223">
        <ele>124.69420623779</ele>
        <time>2019-04-18T01:42:31.768Z</time>
      </trkpt>
      <trkpt lat="44.59843" lon="0.81243">
        <ele>126.73386383057</ele>
        <time>2019-04-18T01:42:51.046Z</time>
      </trkpt>
      <trkpt lat="44.5986" lon="0.81196">
        <ele>129.03146362305</ele>
        <time>2019-04-18T01:43:10.331Z</time>
      </trkpt>
      <trkpt lat="44.59887" lon="0.81201">
        <ele>130.99160766602</ele>
        <time>2019-04-18T01:43:29.622Z</time>
      </trkpt>
      <trkpt lat="44.59915" lon="0.81221">
        <ele>133.63116455078</ele>
        <time>2019-04-18T01:43:48.919Z</time>
      </trkpt>
      <trkpt lat="44.59978" lon="0.81114">
        <ele>141.74691772461</ele>
        <time>2019-04-18T01:44:08.236Z</time>
      </trkpt>
      <trkpt lat="44.60051" lon="0.80996">
        <ele>148.28514099121</ele>
        <time>2019-04-18T01:44:27.575Z</time>
      </trkpt>
      <trkpt lat="44.60075" lon="0.80932">
        <ele>148.47633361816</ele>
        <time>2019-04-18T01:44:46.924Z</time>
      </trkpt>
      <trkpt lat="44.60088" lon="0.80871">
        <ele>149.15454101562</ele>
        <time>2019-04-18T01:45:06.283Z</time>
      </trkpt>
      <trkpt lat="44.60165" lon="0.80785">
        <ele>152.68612670898</ele>
        <time>2019-04-18T01:45:25.661Z</time>
      </trkpt>
      <trkpt lat="44.602" lon="0.80753">
        <ele>153.77433776855</ele>
        <time>2019-04-18T01:45:45.048Z</time>
      </trkpt>
      <trkpt lat="44.60217" lon="0.80715">
        <ele>156.04103088379</ele>
        <time>2019-04-18T01:46:04.441Z</time>
      </trkpt>
      <trkpt lat="44.60247" lon="0.80716">
        <ele>155.2611541748</ele>
        <time>2019-04-18T01:46:23.840Z</time>
      </trkpt>
      <trkpt lat="44.60274" lon="0.80622">
        <ele>161.0645904541</ele>
        <time>2019-04-18T01:46:43.254Z</time>
      </trkpt>
      <trkpt lat="44.60324" lon="0.8062">
        <ele>162.15562438965</ele>
        <time>2019-04-18T01:47:02.678Z</time>
      </trkpt>
      <trkpt lat="44.60356" lon="0.80597">
        <ele>163.89619445801</ele>
        <time>2019-04-18T01:47:22.109Z</time>
      </trkpt>
      <trkpt lat="44.60419" lon="0.80488">
        <ele>167.64164733887</ele>
        <time>2019-04-18T01:47:41.560Z</time>
      </trkpt>
      <trkpt lat="44.60455" lon="0.8045">
        <ele>168.73379516602</ele>
        <time>2019-04-18T01:48:01.020Z</time>
      </trkpt>
      <trkpt lat="44.60489" lon="0.8039">
        <ele>167.25311279297</ele>
        <time>2019-04-18T01:48:20.491Z</time>
      </trkpt>
      <trkpt lat="44.60513" lon="0.80306">
        <ele>164.45361328125</ele>
        <time>2019-04-18T01:48:39.975Z</time>
      </trkpt>
      <trkpt lat="44.60572" lon="0.80163">
        <ele>165.68815612793</ele>
        <time>2019-04-18T01:48:59.482Z</time>
      </trkpt>
      <trkpt lat="44.60589" lon="0.80165">
        <ele>167.4998626709</ele>
        <time>2019-04-18T01:49:18.993Z</time>
      </trkpt>
      <trkpt lat="44.60603" lon="0.8015">
        <ele>169.19157409668</ele>
        <time>2019-04-18T01:49:38.507Z</time>
      </trkpt>
      <trkpt lat="44.60622" lon="0.8009">
        <ele>171.36761474609</ele>
        <time>2019-04-18T01:49:58.031Z</time>
      </trkpt>
      <trkpt lat="44.60622" lon="0.80033">
        <ele>171.65074157715</ele>
        <time>2019-04-18T01:50:17.563Z</time>
      </trkpt>
      <trkpt lat="44.60669" lon="0.80028">
        <ele>170.46295166016</ele>
        <time>2019-04-18T01:50:37.104Z</time>
      </trkpt>
      <trkpt lat="44.60672" lon="0.79977">
        <ele>173.25009155273</ele>
        <time>2019-04-18T01:50:56.652Z</time>
      </trkpt>
      <trkpt lat="44.60683" lon="0.79931">
        <ele>173.23211669922</ele>
        <time>2019-04-18T01:51:16.207Z</time>
      </trkpt>
      <trkpt lat="44.60639" lon="0.79925">
        <ele>169.18618774414</ele>
        <time>2019-04-18T01:51:35.771Z</time>
      </trkpt>
      <trkpt lat="44.60609" lon="0.79927">
        <ele>167.41264343262</ele>
        <time>2019-04-18T01:51:55.341Z</time>
      </trkpt>
      <trkpt lat="44.60548" lon="0.79868">
        <ele>158.01821899414</ele>
        <time>2019-04-18T01:52:14.926Z</time>
      </trkpt>
      <trkpt lat="44.60498" lon="0.79819">
        <ele>150.72471618652</ele>
        <time>2019-04-18T01:52:34.523Z</time>
      </trkpt>
      <trkpt lat="44.60522" lon="0.79762">
        <ele>149.36480712891</ele>
        <time>2019-04-18T01:52:54.130Z</time>
      </trkpt>
      <trkpt lat="44.60495" lon="0.79733">
        <ele>144.73356628418</ele>
        <time>2019-04-18T01:53:13.744Z</time>
      </trkpt>
      <trkpt lat="44.60453" lon="0.79728">
        <ele>139.63911437988</ele>
        <time>2019-04-18T01:53:33.366Z</time>
      </trkpt>
      <trkpt lat="44.60421" lon="0.79732">
        <ele>138.39469909668</ele>
        <time>2019-04-18T01:53:52.994Z</time>
      </trkpt>
      <trkpt lat="44.6038" lon="0.79683">
        <ele>138.80044555664</ele>
        <time>2019-04-18T01:54:12.633Z</time>
      </trkpt>
      <trkpt lat="44.6034" lon="0.79669">
        <ele>141.12466430664</ele>
        <time>2019-04-18T01:54:32.280Z</time>
      </trkpt>
      <trkpt lat="44.60295" lon="0.79626">
        <ele>146.99351501465</ele>
        <time>2019-04-18T01:54:51.938Z</time>
      </trkpt>
      <trkpt lat="44.60264" lon="0.79565">
        <ele>150.01148986816</ele>
        <time>2019-04-18T01:55:11.607Z</time>
      </trkpt>
      <trkpt lat="44.60224" lon="0.79521">
        <ele>148.72035217285</ele>
        <time>2019-04-18T01:55:31.286Z</time>
      </trkpt>
      <trkpt lat="44.60204" lon="0.79545">
        <ele>148.81632995605</ele>
        <time>2019-04-18T01:55:50.970Z</time>
      </trkpt>
      <trkpt lat="44.60158" lon="0.79479">
        <ele>145.60424804688</ele>
        <time>2019-04-18T01:56:10.668Z</time>
      </trkpt>
      <trkpt lat="44.60153" lon="0.79417">
        <ele>140.45051574707</ele>
        <time>2019-04-18T01:56:30.375Z</time>
      </trkpt>
      <trkpt lat="44.60089" lon="0.7938">
        <ele>132.47459411621</ele>
        <time>2019-04-18T01:56:50.095Z</time>
      </trkpt>
      <trkpt lat="44.6004" lon="0.7941">
        <ele>127.34248352051</ele>
        <time>2019-04-18T01:57:09.826Z</time>
      </trkpt>
      <trkpt lat="44.59997" lon="0.79448">
        <ele>126.78426361084</ele>
        <time>2019-04-18T01:57:29.567Z</time>
      </trkpt>
      <trkpt lat="44.59966" lon="0.7945">
        <ele>123.85675048828</ele>
        <time>2019-04-18T01:57:49.314Z</time>
      </trkpt>
      <trkpt lat="44.59924" lon="0.79423">
        <ele>121.50200653076</ele>
        <time>2019-04-18T01:58:09.071Z</time>
      </trkpt>
      <trkpt lat="44.59814" lon="0.79208">
        <ele>122.88019561768</ele>
        <time>2019-04-18T01:58:28.866Z</time>
      </trkpt>
      <trkpt lat="44.59722" lon="0.79022">
        <ele>126</ele>
        <time>2019-04-18T01:58:48.693Z</time>
      </trkpt>
      <trkpt lat="44.59666" lon="0.79036">
        <ele>130.52653503418</ele>
        <time>2019-04-18T01:59:08.531Z</time>
      </trkpt>
      <trkpt lat="44.59603" lon="0.79054">
        <ele>136.6815032959</ele>
        <time>2019-04-18T01:59:28.382Z</time>
      </trkpt>
      <trkpt lat="44.59589" lon="0.79019">
        <ele>139.45304870605</ele>
        <time>2019-04-18T01:59:48.239Z</time>
      </trkpt>
      <trkpt lat="44.59545" lon="0.78999">
        <ele>144.92413330078</ele>
        <time>2019-04-18T02:00:08.105Z</time>
      </trkpt>
      <trkpt lat="44.59495" lon="0.79006">
        <ele>146.716796875</ele>
        <time>2019-04-18T02:00:27.981Z</time>
      </trkpt>
      <trkpt lat="44.59421" lon="0.79029">
        <ele>149.46824645996</ele>
        <time>2019-04-18T02:00:47.872Z</time>
      </trkpt>
      <trkpt lat="44.59337" lon="0.79007">
        <ele>152.74978637695</ele>
        <time>2019-04-18T02:01:07.780Z</time>
      </trkpt>
      <trkpt lat="44.59168" lon="0.78956">
        <ele>157.43305969238</ele>
        <time>2019-04-18T02:01:27.723Z</time>
      </trkpt>
      <trkpt lat="44.59138" lon="0.7893">
        <ele>157.52903747559</ele>
        <time>2019-04-18T02:01:47.673Z</time>
      </trkpt>
      <trkpt lat="44.59169" lon="0.78908">
        <ele>157.3713684082</ele>
        <time>2019-04-18T02:02:07.630Z</time>
      </trkpt>
      <trkpt lat="44.59203" lon="0.78873">
        <ele>157.54940795898</ele>
        <time>2019-04-18T02:02:27.595Z</time>
      </trkpt>
      <trkpt lat="44.59231" lon="0.7883">
        <ele>155.04223632812</ele>
        <time>2019-04-18T02:02:47.569Z</time>
      </trkpt>
      <trkpt lat="44.59262" lon="0.78748">
        <ele>154.72525024414</ele>
        <time>2019-04-18T02:03:07.556Z</time>
      </trkpt>
      <trkpt lat="44.59275" lon="0.78668">
        <ele>154.00224304199</ele>
        <time>2019-04-18T02:03:27.555Z</time>
      </trkpt>
      <trkpt lat="44.59284" lon="0.786">
        <ele>153.92448425293</ele>
        <time>2019-04-18T02:03:47.564Z</time>
      </trkpt>
      <trkpt lat="44.59326" lon="0.7851">
        <ele>152.16505432129</ele>
        <time>2019-04-18T02:04:07.588Z</time>
      </trkpt>
      <trkpt lat="44.59392" lon="0.78405">
        <ele>153.94194030762</ele>
        <time>2019-04-18T02:04:27.632Z</time>
      </trkpt>
      <trkpt lat="44.59447" lon="0.78332">
        <ele>151.94488525391</ele>
        <time>2019-04-18T02:04:47.691Z</time>
      </trkpt>
      <trkpt lat="44.59535" lon="0.78214">
        <ele>152.08712768555</ele>
        <time>2019-04-18T02:05:07.774Z</time>
      </trkpt>
      <trkpt lat="44.59544" lon="0.78179">
        <ele>152.29109191895</ele>
        <time>2019-04-18T02:05:27.863Z</time>
      </trkpt>
      <trkpt lat="44.59625" lon="0.78043">
        <ele>158.75840759277</ele>
        <time>2019-04-18T02:05:47.977Z</time>
      </trkpt>
      <trkpt lat="44.5968" lon="0.77969">
        <ele>161.93362426758</ele>
        <time>2019-04-18T02:06:08.106Z</time>
      </trkpt>
      <trkpt lat="44.59724" lon="0.77896">
        <ele>168.40068054199</ele>
        <time>2019-04-18T02:06:28.249Z</time>
      </trkpt>
      <trkpt lat="44.59728" lon="0.77858">
        <ele>169.62512207031</ele>
        <time>2019-04-18T02:06:48.398Z</time>
      </trkpt>
      <trkpt lat="44.59774" lon="0.77758">
        <ele>174.20938110352</ele>
        <time>2019-04-18T02:07:08.564Z</time>
      </trkpt>
      <trkpt lat="44.59797" lon="0.77679">
        <ele>177.38752746582</ele>
        <time>2019-04-18T02:07:28.742Z</time>
      </trkpt>
      <trkpt lat="44.59824" lon="0.77619">
        <ele>182.88182067871</ele>
        <time>2019-04-18T02:07:48.930Z</time>
      </trkpt>
      <trkpt lat="44.59834" lon="0.77586">
        <ele>185.39852905273</ele>
        <time>2019-04-18T02:08:09.123Z</time>
      </trkpt>
      <trkpt lat="44.59824" lon="0.77496">
        <ele>186.16941833496</ele>
        <time>2019-04-18T02:08:29.329Z</time>
      </trkpt>
      <trkpt lat="44.59839" lon="0.77422">
        <ele>185.88861083984</ele>
        <time>2019-04-18T02:08:49.546Z</time>
      </trkpt>
      <trkpt lat="44.59874" lon="0.77346">
        <ele>190.14729309082</ele>
        <time>2019-04-18T02:09:09.776Z</time>
      </trkpt>
      <trkpt lat="44.59888" lon="0.77283">
        <ele>191.78668212891</ele>
        <time>2019-04-18T02:09:30.015Z</time>
      </trkpt>
      <trkpt lat="44.59893" lon="0.77131">
        <ele>185.59197998047</ele>
        <time>2019-04-18T02:09:50.276Z</time>
      </trkpt>
      <trkpt lat="44.59917" lon="0.77099">
        <ele>186.36892700195</ele>
        <time>2019-04-18T02:10:10.544Z</time>
      </trkpt>
      <trkpt lat="44.59989" lon="0.77048">
        <ele>188.91741943359</ele>
        <time>2019-04-18T02:10:30.828Z</time>
      </trkpt>
      <trkpt lat="44.59982" lon="0.76888">
        <ele>181.10409545898</ele>
        <time>2019-04-18T02:10:51.135Z</time>
      </trkpt>
      <trkpt lat="44.60049" lon="0.76888">
        <ele>182.50749206543</ele>
        <time>2019-04-18T02:11:11.455Z</time>
      </trkpt>
      <trkpt lat="44.60106" lon="0.76911">
        <ele>181.83560180664</ele>
        <time>2019-04-18T02:11:31.787Z</time>
      </trkpt>
      <trkpt lat="44.60227" lon="0.76905">
        <ele>174.38612365723</ele>
        <time>2019-04-18T02:11:52.143Z</time>
      </trkpt>
      <trkpt lat="44.60331" lon="0.76906">
        <ele>167.4624786377</ele>
        <time>2019-04-18T02:12:12.520Z</time>
      </trkpt>
      <trkpt lat="44.60424" lon="0.76808">
        <ele>163.21133422852</ele>
        <time>2019-04-18T02:12:32.920Z</time>
      </trkpt>
      <trkpt lat="44.60505" lon="0.76696">
        <ele>160.22959899902</ele>
        <time>2019-04-18T02:12:53.343Z</time>
      </trkpt>
      <trkpt lat="44.60073" lon="0.76365">
        <ele>149.18145751953</ele>
        <time>2019-04-18T02:13:13.865Z</time>
      </trkpt>
      <trkpt lat="44.60046" lon="0.76325">
        <ele>147.74169921875</ele>
        <time>2019-04-18T02:13:34.394Z</time>
      </trkpt>
      <trkpt lat="44.60016" lon="0.76304">
        <ele>148.57887268066</ele>
        <time>2019-04-18T02:13:54.930Z</time>
      </trkpt>
      <trkpt lat="44.59964" lon="0.76274">
        <ele>151.50637817383</ele>
        <time>2019-04-18T02:14:15.477Z</time>
      </trkpt>
      <trkpt lat="44.59932" lon="0.76271">
        <ele>151.21694946289</ele>
        <time>2019-04-18T02:14:36.031Z</time>
      </trkpt>
      <trkpt lat="44.59846" lon="0.76217">
        <ele>144.41561889648</ele>
        <time>2019-04-18T02:14:56.604Z</time>
      </trkpt>
      <trkpt lat="44.59839" lon="0.76173">
        <ele>143.49517822266</ele>
        <time>2019-04-18T02:15:17.183Z</time>
      </trkpt>
      <trkpt lat="44.59854" lon="0.76107">
        <ele>141.89500427246</ele>
        <time>2019-04-18T02:15:37.772Z</time>
      </trkpt>
      <trkpt lat="44.59861" lon="0.76006">
        <ele>139.59576416016</ele>
        <time>2019-04-18T02:15:58.376Z</time>
      </trkpt>
      <trkpt lat="44.59889" lon="0.75911">
        <ele>138.03205871582</ele>
        <time>2019-04-18T02:16:18.994Z</time>
      </trkpt>
      <trkpt lat="44.59901" lon="0.75832">
        <ele>137</ele>
        <time>2019-04-18T02:16:39.624Z</time>
      </trkpt>
      <trkpt lat="44.59921" lon="0.7579">
        <ele>137.34339904785</ele>
        <time>2019-04-18T02:17:00.261Z</time>
      </trkpt>
      <trkpt lat="44.59939" lon="0.75802">
        <ele>137.05543518066</ele>
        <time>2019-04-18T02:17:20.902Z</time>
      </trkpt>
      <trkpt lat="44.60023" lon="0.75831">
        <ele>140.63822937012</ele>
        <time>2019-04-18T02:17:41.560Z</time>
      </trkpt>
      <trkpt lat="44.60258" lon="0.75416">
        <ele>166.36000061035</ele>
        <time>2019-04-18T02:18:02.294Z</time>
      </trkpt>
      <trkpt lat="44.60294" lon="0.75421">
        <ele>167.49176025391</ele>
        <time>2019-04-18T02:18:23.035Z</time>
      </trkpt>
      <trkpt lat="44.60343" lon="0.75438">
        <ele>166.78997802734</ele>
        <time>2019-04-18T02:18:43.786Z</time>
      </trkpt>
      <trkpt lat="44.60382" lon="0.75466">
        <ele>166.2811126709</ele>
        <time>2019-04-18T02:19:04.546Z</time>
      </trkpt>
      <trkpt lat="44.60457" lon="0.75514">
        <ele>165.96629333496</ele>
        <time>2019-04-18T02:19:25.323Z</time>
      </trkpt>
      <trkpt lat="44.6052" lon="0.75522">
        <ele>165.56842041016</ele>
        <time>2019-04-18T02:19:46.112Z</time>
      </trkpt>
      <trkpt lat="44.60818" lon="0.75509">
        <ele>171.49031066895</ele>
        <time>2019-04-18T02:20:06.961Z</time>
      </trkpt>
      <trkpt lat="44.60913" lon="0.75458">
        <ele>172.20562744141</ele>
        <time>2019-04-18T02:20:27.830Z</time>
      </trkpt>
      <trkpt lat="44.61039" lon="0.75385">
        <ele>171.54298400879</ele>
        <time>2019-04-18T02:20:48.726Z</time>
      </trkpt>
      <trkpt lat="44.61118" lon="0.75353">
        <ele>164.10639953613</ele>
        <time>2019-04-18T02:21:09.639Z</time>
      </trkpt>
      <trkpt lat="44.61191" lon="0.75351">
        <ele>157.23890686035</ele>
        <time>2019-04-18T02:21:30.567Z</time>
      </trkpt>
      <trkpt lat="44.61274" lon="0.75337">
        <ele>152.86541748047</ele>
        <time>2019-04-18T02:21:51.511Z</time>
      </trkpt>
      <trkpt lat="44.61312" lon="0.75343">
        <ele>149.88629150391</ele>
        <time>2019-04-18T02:22:12.463Z</time>
      </trkpt>
      <trkpt lat="44.61432" lon="0.75439">
        <ele>139.00506591797</ele>
        <time>2019-04-18T02:22:33.443Z</time>
      </trkpt>
      <trkpt lat="44.61443" lon="0.75438">
        <ele>138.89709472656</ele>
        <time>2019-04-18T02:22:54.425Z</time>
      </trkpt>
      <trkpt lat="44.61483" lon="0.75435">
        <ele>137.37071228027</ele>
        <time>2019-04-18T02:23:15.415Z</time>
      </trkpt>
      <trkpt lat="44.61549" lon="0.75435">
        <ele>131.26345825195</ele>
        <time>2019-04-18T02:23:36.418Z</time>
      </trkpt>
      <trkpt lat="44.61697" lon="0.75432">
        <ele>116.9935760498</ele>
        <time>2019-04-18T02:23:57.451Z</time>
      </trkpt>
      <trkpt lat="44.61795" lon="0.75434">
        <ele>116.21060180664</ele>
        <time>2019-04-18T02:24:18.503Z</time>
      </trkpt>
      <trkpt lat="44.61947" lon="0.75451">
        <ele>111.7624206543</ele>
        <time>2019-04-18T02:24:39.586Z</time>
      </trkpt>
      <trkpt lat="44.62103" lon="0.75445">
        <ele>108.93302154541</ele>
        <time>2019-04-18T02:25:00.700Z</time>
      </trkpt>
      <trkpt lat="44.62156" lon="0.75464">
        <ele>107.80166625977</ele>
        <time>2019-04-18T02:25:21.825Z</time>
      </trkpt>
      <trkpt lat="44.62343" lon="0.75449">
        <ele>106.26301574707</ele>
        <time>2019-04-18T02:25:42.987Z</time>
      </trkpt>
      <trkpt lat="44.62419" lon="0.75424">
        <ele>105.80883026123</ele>
        <time>2019-04-18T02:26:04.165Z</time>
      </trkpt>
      <trkpt lat="44.6244" lon="0.75402">
        <ele>106.56469726562</ele>
        <time>2019-04-18T02:26:25.348Z</time>
      </trkpt>
      <trkpt lat="44.62476" lon="0.7534">
        <ele>105.57444000244</ele>
        <time>2019-04-18T02:26:46.543Z</time>
      </trkpt>
      <trkpt lat="44.62533" lon="0.75259">
        <ele>105.65374755859</ele>
        <time>2019-04-18T02:27:07.754Z</time>
      </trkpt>
      <trkpt lat="44.62595" lon="0.75176">
        <ele>101.24295806885</ele>
        <time>2019-04-18T02:27:28.982Z</time>
      </trkpt>
      <trkpt lat="44.6264" lon="0.75133">
        <ele>100.72808837891</ele>
        <time>2019-04-18T02:27:50.221Z</time>
      </trkpt>
      <trkpt lat="44.6273" lon="0.75079">
        <ele>99.297721862793</ele>
        <time>2019-04-18T02:28:11.479Z</time>
      </trkpt>
      <trkpt lat="44.62853" lon="0.74939">
        <ele>97.858306884766</ele>
        <time>2019-04-18T02:28:32.769Z</time>
      </trkpt>
      <trkpt lat="44.62952" lon="0.74821">
        <ele>95.200119018555</ele>
        <time>2019-04-18T02:28:54.085Z</time>
      </trkpt>
      <trkpt lat="44.63029" lon="0.74726">
        <ele>92</ele>
        <time>2019-04-18T02:29:15.422Z</time>
      </trkpt>
      <trkpt lat="44.63072" lon="0.74655">
        <ele>91</ele>
        <time>2019-04-18T02:29:36.772Z</time>
      </trkpt>
      <trkpt lat="44.63116" lon="0.74624">
        <ele>90.804183959961</ele>
        <time>2019-04-18T02:29:58.132Z</time>
      </trkpt>
      <trkpt lat="44.63154" lon="0.74619">
        <ele>90.778648376465</ele>
        <time>2019-04-18T02:30:19.499Z</time>
      </trkpt>
      <trkpt lat="44.63262" lon="0.74619">
        <ele>96.020797729492</ele>
        <time>2019-04-18T02:30:40.888Z</time>
      </trkpt>
      <trkpt lat="44.63349" lon="0.74607">
        <ele>105.00657653809</ele>
        <time>2019-04-18T02:31:02.295Z</time>
      </trkpt>
      <trkpt lat="44.63719" lon="0.74341">
        <ele>102.88468933105</ele>
        <time>2019-04-18T02:31:23.785Z</time>
      </trkpt>
      <trkpt lat="44.63708" lon="0.74355">
        <ele>103.88052368164</ele>
        <time>2019-04-18T02:31:45.278Z</time>
      </trkpt>
      <trkpt lat="44.63712" lon="0.74329">
        <ele>103.01667022705</ele>
        <time>2019-04-18T02:32:06.775Z</time>
      </trkpt>
      <trkpt lat="44.63595" lon="0.74037">
        <ele>93.562950134277</ele>
        <time>2019-04-18T02:32:28.319Z</time>
      </trkpt>
      <trkpt lat="44.63463" lon="0.73933">
        <ele>93.517402648926</ele>
        <time>2019-04-18T02:32:49.894Z</time>
      </trkpt>
      <trkpt lat="44.63289" lon="0.73847">
        <ele>103.360206604</ele>
        <time>2019-04-18T02:33:11.506Z</time>
      </trkpt>
      <trkpt lat="44.63176" lon="0.73796">
        <ele>106.09571075439</ele>
        <time>2019-04-18T02:33:33.141Z</time>
      </trkpt>
      <trkpt lat="44.62997" lon="0.73745">
        <ele>105.70760345459</ele>
        <time>2019-04-18T02:33:54.813Z</time>
      </trkpt>
      <trkpt lat="44.62878" lon="0.73433">
        <ele>108.22004699707</ele>
        <time>2019-04-18T02:34:16.535Z</time>
      </trkpt>
      <trkpt lat="44.62354" lon="0.73256">
        <ele>88.618476867676</ele>
        <time>2019-04-18T02:34:38.365Z</time>
      </trkpt>
      <trkpt lat="44.62263" lon="0.73202">
        <ele>87.491264343262</ele>
        <time>2019-04-18T02:35:00.215Z</time>
      </trkpt>
      <trkpt lat="44.62181" lon="0.7317">
        <ele>88.606460571289</ele>
        <time>2019-04-18T02:35:22.082Z</time>
      </trkpt>
      <trkpt lat="44.62167" lon="0.73236">
        <ele>88</ele>
        <time>2019-04-18T02:35:43.959Z</time>
      </trkpt>
      <trkpt lat="44.6214" lon="0.73284">
        <ele>88</ele>
        <time>2019-04-18T02:36:05.845Z</time>
      </trkpt>
      <trkpt lat="44.62038" lon="0.73382">
        <ele>90.81135559082</ele>
        <time>2019-04-18T02:36:27.755Z</time>
      </trkpt>
      <trkpt lat="44.61881" lon="0.73411">
        <ele>89.570121765137</ele>
        <time>2019-04-18T02:36:49.697Z</time>
      </trkpt>
      <trkpt lat="44.61834" lon="0.73378">
        <ele>88.38996887207</ele>
        <time>2019-04-18T02:37:11.649Z</time>
      </trkpt>
      <trkpt lat="44.61745" lon="0.73343">
        <ele>88.545318603516</ele>
        <time>2019-04-18T02:37:33.620Z</time>
      </trkpt>
      <trkpt lat="44.61656" lon="0.73368">
        <ele>90.230850219727</ele>
        <time>2019-04-18T02:37:55.609Z</time>
      </trkpt>
      <trkpt lat="44.61578" lon="0.73398">
        <ele>90.61646270752</ele>
        <time>2019-04-18T02:38:17.614Z</time>
      </trkpt>
      <trkpt lat="44.61531" lon="0.73314">
        <ele>92.75749206543</ele>
        <time>2019-04-18T02:38:39.635Z</time>
      </trkpt>
      <trkpt lat="44.61454" lon="0.7338">
        <ele>92.062004089355</ele>
        <time>2019-04-18T02:39:01.674Z</time>
      </trkpt>
      <trkpt lat="44.61405" lon="0.73413">
        <ele>94.50609588623</ele>
        <time>2019-04-18T02:39:23.723Z</time>
      </trkpt>
      <trkpt lat="44.61309" lon="0.73469">
        <ele>97.821243286133</ele>
        <time>2019-04-18T02:39:45.793Z</time>
      </trkpt>
      <trkpt lat="44.61236" lon="0.73556">
        <ele>95.900917053223</ele>
        <time>2019-04-18T02:40:07.882Z</time>
      </trkpt>
      <trkpt lat="44.61087" lon="0.73547">
        <ele>98.347152709961</ele>
        <time>2019-04-18T02:40:30.001Z</time>
      </trkpt>
      <trkpt lat="44.60943" lon="0.73533">
        <ele>99.893890380859</ele>
        <time>2019-04-18T02:40:52.149Z</time>
      </trkpt>
      <trkpt lat="44.6084" lon="0.73529">
        <ele>100.68379974365</ele>
        <time>2019-04-18T02:41:14.318Z</time>
      </trkpt>
      <trkpt lat="44.60813" lon="0.73543">
        <ele>101.33169555664</ele>
        <time>2019-04-18T02:41:36.493Z</time>
      </trkpt>
      <trkpt lat="44.60767" lon="0.73494">
        <ele>102.65325927734</ele>
        <time>2019-04-18T02:41:58.679Z</time>
      </trkpt>
      <trkpt lat="44.60727" lon="0.73495">
        <ele>104.09302520752</ele>
        <time>2019-04-18T02:42:20.873Z</time>
      </trkpt>
      <trkpt lat="44.60704" lon="0.73483">
        <ele>105.16597747803</ele>
        <time>2019-04-18T02:42:43.072Z</time>
      </trkpt>
      <trkpt lat="44.60637" lon="0.73504">
        <ele>105.02425384521</ele>
        <time>2019-04-18T02:43:05.285Z</time>
      </trkpt>
      <trkpt lat="44.60661" lon="0.73629">
        <ele>104.19875335693</ele>
        <time>2019-04-18T02:43:27.516Z</time>
      </trkpt>
      <trkpt lat="44.60663" lon="0.73742">
        <ele>100.5344543457</ele>
        <time>2019-04-18T02:43:49.763Z</time>
      </trkpt>
      <trkpt lat="44.60704" lon="0.73823">
        <ele>100.7717590332</ele>
        <time>2019-04-18T02:44:12.025Z</time>
      </trkpt>
      <trkpt lat="44.60677" lon="0.73817">
        <ele>101.1413269043</ele>
        <time>2019-04-18T02:44:34.292Z</time>
      </trkpt>
      <trkpt lat="44.60655" lon="0.73818">
        <ele>101.3932800293</ele>
        <time>2019-04-18T02:44:56.563Z</time>
      </trkpt>
      <trkpt lat="44.60619" lon="0.73825">
        <ele>101.74122619629</ele>
        <time>2019-04-18T02:45:18.842Z</time>
      </trkpt>
      <trkpt lat="44.60583" lon="0.73839">
        <ele>102.00518035889</ele>
        <time>2019-04-18T02:45:41.128Z</time>
      </trkpt>
      <trkpt lat="44.60538" lon="0.73846">
        <ele>102.93059539795</ele>
        <time>2019-04-18T02:46:03.423Z</time>
      </trkpt>
      <trkpt lat="44.6048" lon="0.7388">
        <ele>104.23448181152</ele>
        <time>2019-04-18T02:46:25.731Z</time>
      </trkpt>
      <trkpt lat="44.60436" lon="0.73919">
        <ele>105.19095611572</ele>
        <time>2019-04-18T02:46:48.049Z</time>
      </trkpt>
      <trkpt lat="44.60405" lon="0.73964">
        <ele>105.35892486572</ele>
        <time>2019-04-18T02:47:10.376Z</time>
      </trkpt>
      <trkpt lat="44.60361" lon="0.73996">
        <ele>105.5188369751</ele>
        <time>2019-04-18T02:47:32.713Z</time>
      </trkpt>
      <trkpt lat="44.60316" lon="0.74023">
        <ele>106.14019775391</ele>
        <time>2019-04-18T02:47:55.060Z</time>
      </trkpt>
      <trkpt lat="44.60271" lon="0.7403">
        <ele>107.18481445312</ele>
        <time>2019-04-18T02:48:17.416Z</time>
      </trkpt>
      <trkpt lat="44.60197" lon="0.74051">
        <ele>107.22645568848</ele>
        <time>2019-04-18T02:48:39.787Z</time>
      </trkpt>
      <trkpt lat="44.60184" lon="0.7403">
        <ele>107.77476501465</ele>
        <time>2019-04-18T02:49:02.162Z</time>
      </trkpt>
      <trkpt lat="44.60096" lon="0.74054">
        <ele>111.80501556396</ele>
        <time>2019-04-18T02:49:24.555Z</time>
      </trkpt>
      <trkpt lat="44.6002" lon="0.74063">
        <ele>114.97380828857</ele>
        <time>2019-04-18T02:49:46.963Z</time>
      </trkpt>
      <trkpt lat="44.5997" lon="0.74077">
        <ele>118.57290649414</ele>
        <time>2019-04-18T02:50:09.381Z</time>
      </trkpt>
      <trkpt lat="44.59881" lon="0.74092">
        <ele>124.78456878662</ele>
        <time>2019-04-18T02:50:31.817Z</time>
      </trkpt>
      <trkpt lat="44.59853" lon="0.74061">
        <ele>128.22352600098</ele>
        <time>2019-04-18T02:50:54.260Z</time>
      </trkpt>
      <trkpt lat="44.59808" lon="0.74031">
        <ele>135.13369750977</ele>
        <time>2019-04-18T02:51:16.713Z</time>
      </trkpt>
      <trkpt lat="44.59727" lon="0.74027">
        <ele>144.56539916992</ele>
        <time>2019-04-18T02:51:39.183Z</time>
      </trkpt>
      <trkpt lat="44.59646" lon="0.74054">
        <ele>145.66474914551</ele>
        <time>2019-04-18T02:52:01.669Z</time>
      </trkpt>
      <trkpt lat="44.59647" lon="0.74111">
        <ele>142.60453796387</ele>
        <time>2019-04-18T02:52:24.163Z</time>
      </trkpt>
      <trkpt lat="44.59442" lon="0.74205">
        <ele>132.80152893066</ele>
        <time>2019-04-18T02:52:46.701Z</time>
      </trkpt>
      <trkpt lat="44.59375" lon="0.74232">
        <ele>129.4328918457</ele>
        <time>2019-04-18T02:53:09.253Z</time>
      </trkpt>
      <trkpt lat="44.59346" lon="0.74138">
        <ele>127.85709381104</ele>
        <time>2019-04-18T02:53:31.819Z</time>
      </trkpt>
      <trkpt lat="44.59292" lon="0.74146">
        <ele>122.65155792236</ele>
        <time>2019-04-18T02:53:54.396Z</time>
      </trkpt>
      <trkpt lat="44.59258" lon="0.74235">
        <ele>125.49414825439</ele>
        <time>2019-04-18T02:54:16.987Z</time>
      </trkpt>
      <trkpt lat="44.59227" lon="0.74293">
        <ele>124.87605285645</ele>
        <time>2019-04-18T02:54:39.589Z</time>
      </trkpt>
      <trkpt lat="44.59179" lon="0.7437">
        <ele>124.33229827881</ele>
        <time>2019-04-18T02:55:02.205Z</time>
      </trkpt>
      <trkpt lat="44.59143" lon="0.74402">
        <ele>125.58009338379</ele>
        <time>2019-04-18T02:55:24.830Z</time>
      </trkpt>
      <trkpt lat="44.59058" lon="0.74449">
        <ele>129.86193847656</ele>
        <time>2019-04-18T02:55:47.473Z</time>
      </trkpt>
      <trkpt lat="44.58966" lon="0.74571">
        <ele>140.12976074219</ele>
        <time>2019-04-18T02:56:10.142Z</time>
      </trkpt>
      <trkpt lat="44.58815" lon="0.74751">
        <ele>151.08784484863</ele>
        <time>2019-04-18T02:56:32.850Z</time>
      </trkpt>
      <trkpt lat="44.5876" lon="0.74652">
        <ele>143.16670227051</ele>
        <time>2019-04-18T02:56:55.576Z</time>
      </trkpt>
      <trkpt lat="44.58709" lon="0.74566">
        <ele>140.24752807617</ele>
        <time>2019-04-18T02:57:18.318Z</time>
      </trkpt>
      <trkpt lat="44.58659" lon="0.74536">
        <ele>142.98207092285</ele>
        <time>2019-04-18T02:57:41.071Z</time>
      </trkpt>
      <trkpt lat="44.58568" lon="0.74456">
        <ele>148.80407714844</ele>
        <time>2019-04-18T02:58:03.846Z</time>
      </trkpt>
      <trkpt lat="44.58495" lon="0.74358">
        <ele>150.85034179688</ele>
        <time>2019-04-18T02:58:26.641Z</time>
      </trkpt>
      <trkpt lat="44.58453" lon="0.7429">
        <ele>149.89344787598</ele>
        <time>2019-04-18T02:58:49.449Z</time>
      </trkpt>
      <trkpt lat="44.58417" lon="0.74259">
        <ele>150.23452758789</ele>
        <time>2019-04-18T02:59:12.265Z</time>
      </trkpt>
      <trkpt lat="44.58353" lon="0.74217">
        <ele>151.40640258789</ele>
        <time>2019-04-18T02:59:35.095Z</time>
      </trkpt>
      <trkpt lat="44.58258" lon="0.74157">
        <ele>152.16075134277</ele>
        <time>2019-04-18T02:59:57.946Z</time>
      </trkpt>
      <trkpt lat="44.58185" lon="0.74102">
        <ele>153.80184936523</ele>
        <time>2019-04-18T03:00:20.814Z</time>
      </trkpt>
      <trkpt lat="44.58095" lon="0.74054">
        <ele>163.55303955078</ele>
        <time>2019-04-18T03:00:43.701Z</time>
      </trkpt>
      <trkpt lat="44.58027" lon="0.74012">
        <ele>165.78096008301</ele>
        <time>2019-04-18T03:01:06.603Z</time>
      </trkpt>
      <trkpt lat="44.57962" lon="0.73932">
        <ele>168.61643981934</ele>
        <time>2019-04-18T03:01:29.522Z</time>
      </trkpt>
      <trkpt lat="44.57881" lon="0.73891">
        <ele>170.68797302246</ele>
        <time>2019-04-18T03:01:52.458Z</time>
      </trkpt>
      <trkpt lat="44.57885" lon="0.73834">
        <ele>169.31240844727</ele>
        <time>2019-04-18T03:02:15.403Z</time>
      </trkpt>
      <trkpt lat="44.57883" lon="0.7374">
        <ele>170.89521789551</ele>
        <time>2019-04-18T03:02:38.361Z</time>
      </trkpt>
      <trkpt lat="44.57869" lon="0.73683">
        <ele>171.92704772949</ele>
        <time>2019-04-18T03:03:01.328Z</time>
      </trkpt>
      <trkpt lat="44.57855" lon="0.73627">
        <ele>172.25289916992</ele>
        <time>2019-04-18T03:03:24.303Z</time>
      </trkpt>
      <trkpt lat="44.57827" lon="0.73559">
        <ele>170.54061889648</ele>
        <time>2019-04-18T03:03:47.289Z</time>
      </trkpt>
      <trkpt lat="44.57803" lon="0.73452">
        <ele>169.54690551758</ele>
        <time>2019-04-18T03:04:10.291Z</time>
      </trkpt>
      <trkpt lat="44.57774" lon="0.73371">
        <ele>169.61669921875</ele>
        <time>2019-04-18T03:04:33.306Z</time>
      </trkpt>
      <trkpt lat="44.57773" lon="0.7329">
        <ele>169.41400146484</ele>
        <time>2019-04-18T03:04:56.333Z</time>
      </trkpt>
      <trkpt lat="44.57767" lon="0.73164">
        <ele>168.40791320801</ele>
        <time>2019-04-18T03:05:19.378Z</time>
      </trkpt>
      <trkpt lat="44.57761" lon="0.73089">
        <ele>169.45413208008</ele>
        <time>2019-04-18T03:05:42.434Z</time>
      </trkpt>
      <trkpt lat="44.57736" lon="0.72959">
        <ele>172.6923828125</ele>
        <time>2019-04-18T03:06:05.509Z</time>
      </trkpt>
      <trkpt lat="44.57681" lon="0.72928">
        <ele>171.3148651123</ele>
        <time>2019-04-18T03:06:28.596Z</time>
      </trkpt>
      <trkpt lat="44.57602" lon="0.72924">
        <ele>165.15879821777</ele>
        <time>2019-04-18T03:06:51.699Z</time>
      </trkpt>
      <trkpt lat="44.57492" lon="0.72964">
        <ele>159.87713623047</ele>
        <time>2019-04-18T03:07:14.824Z</time>
      </trkpt>
      <trkpt lat="44.57427" lon="0.7296">
        <ele>156.1275177002</ele>
        <time>2019-04-18T03:07:37.962Z</time>
      </trkpt>
      <trkpt lat="44.57333" lon="0.72893">
        <ele>148.97566223145</ele>
        <time>2019-04-18T03:08:01.121Z</time>
      </trkpt>
      <trkpt lat="44.57213" lon="0.72808">
        <ele>147.13189697266</ele>
        <time>2019-04-18T03:08:24.307Z</time>
      </trkpt>
      <trkpt lat="44.5718" lon="0.72761">
        <ele>147</ele>
        <time>2019-04-18T03:08:47.503Z</time>
      </trkpt>
      <trkpt lat="44.57087" lon="0.72844">
        <ele>142.96003723145</ele>
        <time>2019-04-18T03:09:10.721Z</time>
      </trkpt>
      <trkpt lat="44.57002" lon="0.72919">
        <ele>136.6831817627</ele>
        <time>2019-04-18T03:09:33.959Z</time>
      </trkpt>
      <trkpt lat="44.56876" lon="0.73007">
        <ele>132.92820739746</ele>
        <time>2019-04-18T03:09:57.225Z</time>
      </trkpt>
      <trkpt lat="44.56731" lon="0.73123">
        <ele>126.54627227783</ele>
        <time>2019-04-18T03:10:20.525Z</time>
      </trkpt>
      <trkpt lat="44.56658" lon="0.7317">
        <ele>121.83814239502</ele>
        <time>2019-04-18T03:10:43.841Z</time>
      </trkpt>
      <trkpt lat="44.56632" lon="0.73221">
        <ele>121.16506958008</ele>
        <time>2019-04-18T03:11:07.166Z</time>
      </trkpt>
      <trkpt lat="44.5661" lon="0.73269">
        <ele>118.88220214844</ele>
        <time>2019-04-18T03:11:30.499Z</time>
      </trkpt>
      <trkpt lat="44.56576" lon="0.73415">
        <ele>118.67350769043</ele>
        <time>2019-04-18T03:11:53.854Z</time>
      </trkpt>
      <trkpt lat="44.56542" lon="0.7351">
        <ele>123.9457244873</ele>
        <time>2019-04-18T03:12:17.224Z</time>
      </trkpt>
      <trkpt lat="44.56498" lon="0.73612">
        <ele>127.40163421631</ele>
        <time>2019-04-18T03:12:40.611Z</time>
      </trkpt>
      <trkpt lat="44.56457" lon="0.73727">
        <ele>134.01112365723</ele>
        <time>2019-04-18T03:13:04.016Z</time>
      </trkpt>
      <trkpt lat="44.56402" lon="0.73816">
        <ele>136.2884979248</ele>
        <time>2019-04-18T03:13:27.438Z</time>
      </trkpt>
      <trkpt lat="44.56402" lon="0.73816">
        <ele>136.28869628906</ele>
        <time>2019-04-18T03:13:50.860Z</time>
      </trkpt>
      <trkpt lat="44.56359" lon="0.73896">
        <ele>136.99830627441</ele>
        <time>2019-04-18T03:14:14.296Z</time>
      </trkpt>
      <trkpt lat="44.56324" lon="0.73976">
        <ele>138.60299682617</ele>
        <time>2019-04-18T03:14:37.746Z</time>
      </trkpt>
      <trkpt lat="44.56246" lon="0.74063">
        <ele>139.6470489502</ele>
        <time>2019-04-18T03:15:01.216Z</time>
      </trkpt>
      <trkpt lat="44.56155" lon="0.74154">
        <ele>139.69535827637</ele>
        <time>2019-04-18T03:15:24.708Z</time>
      </trkpt>
      <trkpt lat="44.5606" lon="0.74225">
        <ele>140.64091491699</ele>
        <time>2019-04-18T03:15:48.222Z</time>
      </trkpt>
      <trkpt lat="44.5599" lon="0.74246">
        <ele>137.73220825195</ele>
        <time>2019-04-18T03:16:11.750Z</time>
      </trkpt>
      <trkpt lat="44.5593" lon="0.74301">
        <ele>134.17526245117</ele>
        <time>2019-04-18T03:16:35.292Z</time>
      </trkpt>
      <trkpt lat="44.55826" lon="0.74414">
        <ele>129.31956481934</ele>
        <time>2019-04-18T03:16:58.861Z</time>
      </trkpt>
      <trkpt lat="44.5575" lon="0.74549">
        <ele>114.73009490967</ele>
        <time>2019-04-18T03:17:22.454Z</time>
      </trkpt>
      <trkpt lat="44.55682" lon="0.74698">
        <ele>115.17961120605</ele>
        <time>2019-04-18T03:17:46.073Z</time>
      </trkpt>
      <trkpt lat="44.55654" lon="0.74778">
        <ele>125.88515472412</ele>
        <time>2019-04-18T03:18:09.704Z</time>
      </trkpt>
      <trkpt lat="44.55646" lon="0.74876">
        <ele>129.11640930176</ele>
        <time>2019-04-18T03:18:33.349Z</time>
      </trkpt>
      <trkpt lat="44.55596" lon="0.74956">
        <ele>130</ele>
        <time>2019-04-18T03:18:57.010Z</time>
      </trkpt>
      <trkpt lat="44.55543" lon="0.75045">
        <ele>131.67489624023</ele>
        <time>2019-04-18T03:19:20.687Z</time>
      </trkpt>
      <trkpt lat="44.55504" lon="0.75156">
        <ele>131.36323547363</ele>
        <time>2019-04-18T03:19:44.382Z</time>
      </trkpt>
      <trkpt lat="44.55454" lon="0.75255">
        <ele>129.84561157227</ele>
        <time>2019-04-18T03:20:08.094Z</time>
      </trkpt>
      <trkpt lat="44.55376" lon="0.75311">
        <ele>126.93849945068</ele>
        <time>2019-04-18T03:20:31.824Z</time>
      </trkpt>
      <trkpt lat="44.55303" lon="0.7536">
        <ele>127.67665863037</ele>
        <time>2019-04-18T03:20:55.570Z</time>
      </trkpt>
      <trkpt lat="44.55191" lon="0.75414">
        <ele>125.15969848633</ele>
        <time>2019-04-18T03:21:19.340Z</time>
      </trkpt>
      <trkpt lat="44.55147" lon="0.75456">
        <ele>124.05587768555</ele>
        <time>2019-04-18T03:21:43.120Z</time>
      </trkpt>
      <trkpt lat="44.55107" lon="0.7552">
        <ele>116.60581970215</ele>
        <time>2019-04-18T03:22:06.912Z</time>
      </trkpt>
      <trkpt lat="44.5504" lon="0.75572">
        <ele>112.17068481445</ele>
        <time>2019-04-18T03:22:30.720Z</time>
      </trkpt>
      <trkpt lat="44.54969" lon="0.75631">
        <ele>97.932243347168</ele>
        <time>2019-04-18T03:22:54.544Z</time>
      </trkpt>
      <trkpt lat="44.5492" lon="0.75667">
        <ele>92.31177520752</ele>
        <time>2019-04-18T03:23:18.379Z</time>
      </trkpt>
      <trkpt lat="44.54888" lon="0.75743">
        <ele>89.678009033203</ele>
        <time>2019-04-18T03:23:42.227Z</time>
      </trkpt>
      <trkpt lat="44.54823" lon="0.75763">
        <ele>85.42790222168</ele>
        <time>2019-04-18T03:24:06.088Z</time>
      </trkpt>
      <trkpt lat="44.54778" lon="0.7579">
        <ele>83.802803039551</ele>
        <time>2019-04-18T03:24:29.959Z</time>
      </trkpt>
      <trkpt lat="44.54754" lon="0.75866">
        <ele>83.53638458252</ele>
        <time>2019-04-18T03:24:53.842Z</time>
      </trkpt>
      <trkpt lat="44.54692" lon="0.75906">
        <ele>81.779930114746</ele>
        <time>2019-04-18T03:25:17.739Z</time>
      </trkpt>
      <trkpt lat="44.54614" lon="0.75971">
        <ele>81.999938964844</ele>
        <time>2019-04-18T03:25:41.654Z</time>
      </trkpt>
      <trkpt lat="44.54558" lon="0.75998">
        <ele>82.323890686035</ele>
        <time>2019-04-18T03:26:05.581Z</time>
      </trkpt>
      <trkpt lat="44.54453" lon="0.76023">
        <ele>87.268676757812</ele>
        <time>2019-04-18T03:26:29.529Z</time>
      </trkpt>
      <trkpt lat="44.54392" lon="0.76018">
        <ele>93.715469360352</ele>
        <time>2019-04-18T03:26:53.489Z</time>
      </trkpt>
      <trkpt lat="44.54338" lon="0.76001">
        <ele>98.556915283203</ele>
        <time>2019-04-18T03:27:17.460Z</time>
      </trkpt>
      <trkpt lat="44.54291" lon="0.76008">
        <ele>101.55495452881</ele>
        <time>2019-04-18T03:27:41.441Z</time>
      </trkpt>
      <trkpt lat="44.54229" lon="0.76089">
        <ele>110.92361450195</ele>
        <time>2019-04-18T03:28:05.439Z</time>
      </trkpt>
      <trkpt lat="44.54167" lon="0.76184">
        <ele>113.68933105469</ele>
        <time>2019-04-18T03:28:29.455Z</time>
      </trkpt>
      <trkpt lat="44.5411" lon="0.76265">
        <ele>114.75894927979</ele>
        <time>2019-04-18T03:28:53.487Z</time>
      </trkpt>
      <trkpt lat="44.54048" lon="0.76339">
        <ele>116.24752807617</ele>
        <time>2019-04-18T03:29:17.536Z</time>
      </trkpt>
      <trkpt lat="44.54043" lon="0.76402">
        <ele>116.80370330811</ele>
        <time>2019-04-18T03:29:41.594Z</time>
      </trkpt>
      <trkpt lat="44.54005" lon="0.76463">
        <ele>119.50238037109</ele>
        <time>2019-04-18T03:30:05.663Z</time>
      </trkpt>
      <trkpt lat="44.53938" lon="0.76515">
        <ele>121.30419921875</ele>
        <time>2019-04-18T03:30:29.748Z</time>
      </trkpt>
      <trkpt lat="44.53953" lon="0.76606">
        <ele>118.33020782471</ele>
        <time>2019-04-18T03:30:53.846Z</time>
      </trkpt>
      <trkpt lat="44.53971" lon="0.7674">
        <ele>114.93027496338</ele>
        <time>2019-04-18T03:31:17.963Z</time>
      </trkpt>
      <trkpt lat="44.53988" lon="0.76847">
        <ele>116.16678619385</ele>
        <time>2019-04-18T03:31:42.096Z</time>
      </trkpt>
      <trkpt lat="44.53866" lon="0.76892">
        <ele>121.02967071533</ele>
        <time>2019-04-18T03:32:06.254Z</time>
      </trkpt>
      <trkpt lat="44.53771" lon="0.76901">
        <ele>126.31153106689</ele>
        <time>2019-04-18T03:32:30.431Z</time>
      </trkpt>
      <trkpt lat="44.53712" lon="0.77039">
        <ele>126.91349029541</ele>
        <time>2019-04-18T03:32:54.631Z</time>
      </trkpt>
      <trkpt lat="44.53649" lon="0.77178">
        <ele>128.7205657959</ele>
        <time>2019-04-18T03:33:18.855Z</time>
      </trkpt>
      <trkpt lat="44.53609" lon="0.77191">
        <ele>130.4330291748</ele>
        <time>2019-04-18T03:33:43.087Z</time>
      </trkpt>
      <trkpt lat="44.53597" lon="0.77259">
        <ele>130.06694030762</ele>
        <time>2019-04-18T03:34:07.329Z</time>
      </trkpt>
      <trkpt lat="44.53556" lon="0.77282">
        <ele>131.4826965332</ele>
        <time>2019-04-18T03:34:31.580Z</time>
      </trkpt>
      <trkpt lat="44.53507" lon="0.77197">
        <ele>136.35681152344</ele>
        <time>2019-04-18T03:34:55.847Z</time>
      </trkpt>
      <trkpt lat="44.5348" lon="0.77138">
        <ele>140.23109436035</ele>
        <time>2019-04-18T03:35:20.124Z</time>
      </trkpt>
      <trkpt lat="44.5342" lon="0.7708">
        <ele>144.73725891113</ele>
        <time>2019-04-18T03:35:44.415Z</time>
      </trkpt>
      <trkpt lat="44.53359" lon="0.77022">
        <ele>150.28115844727</ele>
        <time>2019-04-18T03:36:08.721Z</time>
      </trkpt>
      <trkpt lat="44.53307" lon="0.76986">
        <ele>161.27133178711</ele>
        <time>2019-04-18T03:36:33.039Z</time>
      </trkpt>
      <trkpt lat="44.53225" lon="0.76958">
        <ele>167.34773254395</ele>
        <time>2019-04-18T03:36:57.373Z</time>
      </trkpt>
      <trkpt lat="44.5329" lon="0.76931">
        <ele>173.9436340332</ele>
        <time>2019-04-18T03:37:21.721Z</time>
      </trkpt>
      <trkpt lat="44.53335" lon="0.76903">
        <ele>176.31562805176</ele>
        <time>2019-04-18T03:37:46.079Z</time>
      </trkpt>
      <trkpt lat="44.5337" lon="0.76886">
        <ele>177.8558807373</ele>
        <time>2019-04-18T03:38:10.444Z</time>
      </trkpt>
      <trkpt lat="44.53397" lon="0.76854">
        <ele>177.62791442871</ele>
        <time>2019-04-18T03:38:34.816Z</time>
      </trkpt>
      <trkpt lat="44.53403" lon="0.76793">
        <ele>182.01306152344</ele>
        <time>2019-04-18T03:38:59.197Z</time>
      </trkpt>
      <trkpt lat="44.5336" lon="0.76731">
        <ele>182.00749206543</ele>
        <time>2019-04-18T03:39:23.591Z</time>
      </trkpt>
      <trkpt lat="44.53302" lon="0.76686">
        <ele>174.65380859375</ele>
        <time>2019-04-18T03:39:47.998Z</time>
      </trkpt>
      <trkpt lat="44.5325" lon="0.76654">
        <ele>165.06509399414</ele>
        <time>2019-04-18T03:40:12.416Z</time>
      </trkpt>
      <trkpt lat="44.53198" lon="0.76659">
        <ele>158.71798706055</ele>
        <time>2019-04-18T03:40:36.845Z</time>
      </trkpt>
      <trkpt lat="44.53137" lon="0.76716">
        <ele>158.87396240234</ele>
        <time>2019-04-18T03:41:01.288Z</time>
      </trkpt>
      <trkpt lat="44.53114" lon="0.76723">
        <ele>156.60591125488</ele>
        <time>2019-04-18T03:41:25.736Z</time>
      </trkpt>
      <trkpt lat="44.53072" lon="0.76762">
        <ele>151.92994689941</ele>
        <time>2019-04-18T03:41:50.194Z</time>
      </trkpt>
      <trkpt lat="44.53044" lon="0.76861">
        <ele>146.91253662109</ele>
        <time>2019-04-18T03:42:14.667Z</time>
      </trkpt>
      <trkpt lat="44.5302" lon="0.76905">
        <ele>142.13832092285</ele>
        <time>2019-04-18T03:42:39.148Z</time>
      </trkpt>
      <trkpt lat="44.53018" lon="0.76962">
        <ele>138.35824584961</ele>
        <time>2019-04-18T03:43:03.637Z</time>
      </trkpt>
      <trkpt lat="44.53031" lon="0.77043">
        <ele>135.27853393555</ele>
        <time>2019-04-18T03:43:28.138Z</time>
      </trkpt>
      <trkpt lat="44.52986" lon="0.7706">
        <ele>129.37190246582</ele>
        <time>2019-04-18T03:43:52.649Z</time>
      </trkpt>
      <trkpt lat="44.52946" lon="0.77136">
        <ele>121.83202362061</ele>
        <time>2019-04-18T03:44:17.173Z</time>
      </trkpt>
      <trkpt lat="44.52915" lon="0.77208">
        <ele>116.65175628662</ele>
        <time>2019-04-18T03:44:41.709Z</time>
      </trkpt>
      <trkpt lat="44.52908" lon="0.77289">
        <ele>115.753074646</ele>
        <time>2019-04-18T03:45:06.257Z</time>
      </trkpt>
      <trkpt lat="44.5288" lon="0.77346">
        <ele>115.56969451904</ele>
        <time>2019-04-18T03:45:30.815Z</time>
      </trkpt>
      <trkpt lat="44.52803" lon="0.77385">
        <ele>112.04619598389</ele>
        <time>2019-04-18T03:45:55.389Z</time>
      </trkpt>
      <trkpt lat="44.52777" lon="0.7745">
        <ele>110.75466918945</ele>
        <time>2019-04-18T03:46:19.974Z</time>
      </trkpt>
      <trkpt lat="44.52724" lon="0.77493">
        <ele>107.47666931152</ele>
        <time>2019-04-18T03:46:44.571Z</time>
      </trkpt>
      <trkpt lat="44.52714" lon="0.77527">
        <ele>105.9546585083</ele>
        <time>2019-04-18T03:47:09.173Z</time>
      </trkpt>
      <trkpt lat="44.52687" lon="0.77556">
        <ele>103.7271270752</ele>
        <time>2019-04-18T03:47:33.782Z</time>
      </trkpt>
      <trkpt lat="44.52589" lon="0.77571">
        <ele>102.36499786377</ele>
        <time>2019-04-18T03:47:58.411Z</time>
      </trkpt>
      <trkpt lat="44.52456" lon="0.77568">
        <ele>99.200592041016</ele>
        <time>2019-04-18T03:48:23.066Z</time>
      </trkpt>
      <trkpt lat="44.52211" lon="0.77575">
        <ele>101.63677215576</ele>
        <time>2019-04-18T03:48:47.770Z</time>
      </trkpt>
      <trkpt lat="44.52078" lon="0.77588">
        <ele>98.06324005127</ele>
        <time>2019-04-18T03:49:12.501Z</time>
      </trkpt>
      <trkpt lat="44.52071" lon="0.77662">
        <ele>97.342903137207</ele>
        <time>2019-04-18T03:49:37.243Z</time>
      </trkpt>
      <trkpt lat="44.5198" lon="0.77663">
        <ele>95.613311767578</ele>
        <time>2019-04-18T03:50:02.003Z</time>
      </trkpt>
      <trkpt lat="44.51948" lon="0.77614">
        <ele>94.028121948242</ele>
        <time>2019-04-18T03:50:26.772Z</time>
      </trkpt>
      <trkpt lat="44.51895" lon="0.77619">
        <ele>95.10066986084</ele>
        <time>2019-04-18T03:50:51.552Z</time>
      </trkpt>
      <trkpt lat="44.51894" lon="0.77547">
        <ele>94.676010131836</ele>
        <time>2019-04-18T03:51:16.342Z</time>
      </trkpt>
      <trkpt lat="44.51868" lon="0.77455">
        <ele>94.366760253906</ele>
        <time>2019-04-18T03:51:41.147Z</time>
      </trkpt>
      <trkpt lat="44.51851" lon="0.77405">
        <ele>93.382926940918</ele>
        <time>2019-04-18T03:52:05.959Z</time>
      </trkpt>
      <trkpt lat="44.51788" lon="0.77556">
        <ele>95.01676940918</ele>
        <time>2019-04-18T03:52:30.796Z</time>
      </trkpt>
      <trkpt lat="44.51717" lon="0.77633">
        <ele>98.599311828613</ele>
        <time>2019-04-18T03:52:55.651Z</time>
      </trkpt>
      <trkpt lat="44.51622" lon="0.77724">
        <ele>98.092971801758</ele>
        <time>2019-04-18T03:53:20.529Z</time>
      </trkpt>
      <trkpt lat="44.51498" lon="0.77771">
        <ele>103.08897399902</ele>
        <time>2019-04-18T03:53:45.433Z</time>
      </trkpt>
      <trkpt lat="44.51378" lon="0.77803">
        <ele>105.71424102783</ele>
        <time>2019-04-18T03:54:10.362Z</time>
      </trkpt>
      <trkpt lat="44.51333" lon="0.77659">
        <ele>103.43878936768</ele>
        <time>2019-04-18T03:54:35.313Z</time>
      </trkpt>
      <trkpt lat="44.51275" lon="0.77439">
        <ele>102.97953033447</ele>
        <time>2019-04-18T03:55:00.298Z</time>
      </trkpt>
      <trkpt lat="44.51298" lon="0.77443">
        <ele>102.67800140381</ele>
        <time>2019-04-18T03:55:25.287Z</time>
      </trkpt>
      <trkpt lat="44.5131" lon="0.77352">
        <ele>102.82120513916</ele>
        <time>2019-04-18T03:55:50.290Z</time>
      </trkpt>
      <trkpt lat="44.51333" lon="0.77191">
        <ele>100.40689086914</ele>
        <time>2019-04-18T03:56:15.316Z</time>
      </trkpt>
      <trkpt lat="44.51375" lon="0.76946">
        <ele>95.600967407227</ele>
        <time>2019-04-18T03:56:40.378Z</time>
      </trkpt>
      <trkpt lat="44.51411" lon="0.76883">
        <ele>93.297370910645</ele>
        <time>2019-04-18T03:57:05.452Z</time>
      </trkpt>
      <trkpt lat="44.51455" lon="0.76766">
        <ele>83.173248291016</ele>
        <time>2019-04-18T03:57:30.545Z</time>
      </trkpt>
      <trkpt lat="44.51439" lon="0.76757">
        <ele>83.39282989502</ele>
        <time>2019-04-18T03:57:55.641Z</time>
      </trkpt>
      <trkpt lat="44.51335" lon="0.76713">
        <ele>88.853515625</ele>
        <time>2019-04-18T03:58:20.759Z</time>
      </trkpt>
      <trkpt lat="44.51258" lon="0.76656">
        <ele>88.492462158203</ele>
        <time>2019-04-18T03:58:45.894Z</time>
      </trkpt>
      <trkpt lat="44.51194" lon="0.76629">
        <ele>86.784660339355</ele>
        <time>2019-04-18T03:59:11.043Z</time>
      </trkpt>
      <trkpt lat="44.51156" lon="0.76602">
        <ele>87.809722900391</ele>
        <time>2019-04-18T03:59:36.200Z</time>
      </trkpt>
      <trkpt lat="44.51087" lon="0.76535">
        <ele>83.592948913574</ele>
        <time>2019-04-18T04:00:01.374Z</time>
      </trkpt>
      <trkpt lat="44.51017" lon="0.76496">
        <ele>77.385437011719</ele>
        <time>2019-04-18T04:00:26.563Z</time>
      </trkpt>
      <trkpt lat="44.50882" lon="0.76456">
        <ele>76.27490234375</ele>
        <time>2019-04-18T04:00:51.780Z</time>
      </trkpt>
      <trkpt lat="44.50814" lon="0.76429">
        <ele>75.356201171875</ele>
        <time>2019-04-18T04:01:17.011Z</time>
      </trkpt>
      <trkpt lat="44.50758" lon="0.76469">
        <ele>75.057723999023</ele>
        <time>2019-04-18T04:01:42.254Z</time>
      </trkpt>
      <trkpt lat="44.50667" lon="0.76575">
        <ele>75.191818237305</ele>
        <time>2019-04-18T04:02:07.521Z</time>
      </trkpt>
      <trkpt lat="44.5059" lon="0.76674">
        <ele>75.773933410645</ele>
        <time>2019-04-18T04:02:32.809Z</time>
      </trkpt>
      <trkpt lat="44.50537" lon="0.76742">
        <ele>78.302116394043</ele>
        <time>2019-04-18T04:02:58.111Z</time>
      </trkpt>
      <trkpt lat="44.5049" lon="0.76765">
        <ele>79.073310852051</ele>
        <time>2019-04-18T04:03:23.423Z</time>
      </trkpt>
      <trkpt lat="44.50411" lon="0.76807">
        <ele>79.77311706543</ele>
        <time>2019-04-18T04:03:48.752Z</time>
      </trkpt>
      <trkpt lat="44.50361" lon="0.76838">
        <ele>80.827133178711</ele>
        <time>2019-04-18T04:04:14.092Z</time>
      </trkpt>
      <trkpt lat="44.50329" lon="0.76804">
        <ele>83.030143737793</ele>
        <time>2019-04-18T04:04:39.440Z</time>
      </trkpt>
      <trkpt lat="44.50312" lon="0.76771">
        <ele>81.698364257812</ele>
        <time>2019-04-18T04:05:04.794Z</time>
      </trkpt>
      <trkpt lat="44.50268" lon="0.76736">
        <ele>83.090133666992</ele>
        <time>2019-04-18T04:05:30.158Z</time>
      </trkpt>
      <trkpt lat="44.50186" lon="0.76699">
        <ele>85.548316955566</ele>
        <time>2019-04-18T04:05:55.539Z</time>
      </trkpt>
      <trkpt lat="44.50082" lon="0.76661">
        <ele>84.063751220703</ele>
        <time>2019-04-18T04:06:20.942Z</time>
      </trkpt>
      <trkpt lat="44.50039" lon="0.76626">
        <ele>83.767974853516</ele>
        <time>2019-04-18T04:06:46.355Z</time>
      </trkpt>
      <trkpt lat="44.499" lon="0.76562">
        <ele>77.689147949219</ele>
        <time>2019-04-18T04:07:11.797Z</time>
      </trkpt>
      <trkpt lat="44.49803" lon="0.76502">
        <ele>81.852401733398</ele>
        <time>2019-04-18T04:07:37.260Z</time>
      </trkpt>
      <trkpt lat="44.49741" lon="0.76453">
        <ele>86.91828918457</ele>
        <time>2019-04-18T04:08:02.737Z</time>
      </trkpt>
      <trkpt lat="44.49661" lon="0.76364">
        <ele>88.897857666016</ele>
        <time>2019-04-18T04:08:28.235Z</time>
      </trkpt>
      <trkpt lat="44.49591" lon="0.76294">
        <ele>87.060363769531</ele>
        <time>2019-04-18T04:08:53.750Z</time>
      </trkpt>
      <trkpt lat="44.49523" lon="0.76274">
        <ele>84.860282897949</ele>
        <time>2019-04-18T04:09:19.279Z</time>
      </trkpt>
      <trkpt lat="44.49447" lon="0.76311">
        <ele>83.299980163574</ele>
        <time>2019-04-18T04:09:44.824Z</time>
      </trkpt>
      <trkpt lat="44.4938" lon="0.76352">
        <ele>83.052490234375</ele>
        <time>2019-04-18T04:10:10.384Z</time>
      </trkpt>
      <trkpt lat="44.49423" lon="0.76405">
        <ele>88.652015686035</ele>
        <time>2019-04-18T04:10:35.955Z</time>
      </trkpt>
      <trkpt lat="44.49443" lon="0.76516">
        <ele>92.455741882324</ele>
        <time>2019-04-18T04:11:01.543Z</time>
      </trkpt>
      <trkpt lat="44.49454" lon="0.76668">
        <ele>95.087646484375</ele>
        <time>2019-04-18T04:11:27.153Z</time>
      </trkpt>
      <trkpt lat="44.49456" lon="0.76782">
        <ele>97.145729064941</ele>
        <time>2019-04-18T04:11:52.779Z</time>
      </trkpt>
      <trkpt lat="44.49439" lon="0.76872">
        <ele>97</ele>
        <time>2019-04-18T04:12:18.418Z</time>
      </trkpt>
      <trkpt lat="44.49442" lon="0.76951">
        <ele>98.611068725586</ele>
        <time>2019-04-18T04:12:44.069Z</time>
      </trkpt>
      <trkpt lat="44.49444" lon="0.77004">
        <ele>99.787750244141</ele>
        <time>2019-04-18T04:13:09.727Z</time>
      </trkpt>
      <trkpt lat="44.49351" lon="0.76986">
        <ele>99.551765441895</ele>
        <time>2019-04-18T04:13:35.404Z</time>
      </trkpt>
      <trkpt lat="44.49251" lon="0.7698">
        <ele>100.61327362061</ele>
        <time>2019-04-18T04:14:01.101Z</time>
      </trkpt>
      <trkpt lat="44.49179" lon="0.76969">
        <ele>99.222198486328</ele>
        <time>2019-04-18T04:14:26.812Z</time>
      </trkpt>
      <trkpt lat="44.49131" lon="0.76948">
        <ele>97.242530822754</ele>
        <time>2019-04-18T04:14:52.533Z</time>
      </trkpt>
      <trkpt lat="44.48997" lon="0.76845">
        <ele>90.342712402344</ele>
        <time>2019-04-18T04:15:18.285Z</time>
      </trkpt>
      <trkpt lat="44.48958" lon="0.76843">
        <ele>86.205406188965</ele>
        <time>2019-04-18T04:15:44.045Z</time>
      </trkpt>
      <trkpt lat="44.48906" lon="0.76875">
        <ele>78.09944152832</ele>
        <time>2019-04-18T04:16:09.816Z</time>
      </trkpt>
      <trkpt lat="44.48821" lon="0.76887">
        <ele>72.898376464844</ele>
        <time>2019-04-18T04:16:35.604Z</time>
      </trkpt>
      <trkpt lat="44.48774" lon="0.76901">
        <ele>71.732147216797</ele>
        <time>2019-04-18T04:17:01.402Z</time>
      </trkpt>
      <trkpt lat="44.48725" lon="0.76956">
        <ele>71.515647888184</ele>
        <time>2019-04-18T04:17:27.212Z</time>
      </trkpt>
      <trkpt lat="44.48679" lon="0.77032">
        <ele>73.977729797363</ele>
        <time>2019-04-18T04:17:53.037Z</time>
      </trkpt>
      <trkpt lat="44.48644" lon="0.77065">
        <ele>78.104591369629</ele>
        <time>2019-04-18T04:18:18.870Z</time>
      </trkpt>
      <trkpt lat="44.4859" lon="0.77085">
        <ele>86.906517028809</ele>
        <time>2019-04-18T04:18:44.714Z</time>
      </trkpt>
      <trkpt lat="44.48528" lon="0.77122">
        <ele>95.183837890625</ele>
        <time>2019-04-18T04:19:10.572Z</time>
      </trkpt>
      <trkpt lat="44.4849" lon="0.77126">
        <ele>96.176773071289</ele>
        <time>2019-04-18T04:19:36.437Z</time>
      </trkpt>
      <trkpt lat="44.48433" lon="0.7713">
        <ele>95.723762512207</ele>
        <time>2019-04-18T04:20:02.314Z</time>
      </trkpt>
      <trkpt lat="44.48394" lon="0.77139">
        <ele>94.310340881348</ele>
        <time>2019-04-18T04:20:28.199Z</time>
      </trkpt>
      <trkpt lat="44.48364" lon="0.7716">
        <ele>93.622978210449</ele>
        <time>2019-04-18T04:20:54.091Z</time>
      </trkpt>
      <trkpt lat="44.48342" lon="0.77178">
        <ele>92.687133789062</ele>
        <time>2019-04-18T04:21:19.988Z</time>
      </trkpt>
      <trkpt lat="44.48313" lon="0.77136">
        <ele>89.042961120605</ele>
        <time>2019-04-18T04:21:45.893Z</time>
      </trkpt>
      <trkpt lat="44.4831" lon="0.77092">
        <ele>86.187438964844</ele>
        <time>2019-04-18T04:22:11.804Z</time>
      </trkpt>
      <trkpt lat="44.48267" lon="0.77037">
        <ele>84.172637939453</ele>
        <time>2019-04-18T04:22:37.727Z</time>
      </trkpt>
      <trkpt lat="44.48288" lon="0.76967">
        <ele>85.122695922852</ele>
        <time>2019-04-18T04:23:03.661Z</time>
      </trkpt>
      <trkpt lat="44.48347" lon="0.76998">
        <ele>84.630081176758</ele>
        <time>2019-04-18T04:23:29.607Z</time>
      </trkpt>
      <trkpt lat="44.48383" lon="0.76928">
        <ele>81.719200134277</ele>
        <time>2019-04-18T04:23:55.566Z</time>
      </trkpt>
      <trkpt lat="44.48422" lon="0.76907">
        <ele>81.427772521973</ele>
        <time>2019-04-18T04:24:21.533Z</time>
      </trkpt>
      <trkpt lat="44.48462" lon="0.76881">
        <ele>77.986297607422</ele>
        <time>2019-04-18T04:24:47.509Z</time>
      </trkpt>
      <trkpt lat="44.48477" lon="0.76819">
        <ele>72.696983337402</ele>
        <time>2019-04-18T04:25:13.494Z</time>
      </trkpt>
      <trkpt lat="44.48509" lon="0.76746">
        <ele>72</ele>
        <time>2019-04-18T04:25:39.492Z</time>
      </trkpt>
      <trkpt lat="44.48516" lon="0.767">
        <ele>71.95174407959</ele>
        <time>2019-04-18T04:26:05.496Z</time>
      </trkpt>
      <trkpt lat="44.48505" lon="0.76628">
        <ele>71.219863891602</ele>
        <time>2019-04-18T04:26:31.511Z</time>
      </trkpt>
      <trkpt lat="44.48501" lon="0.76561">
        <ele>71</ele>
        <time>2019-04-18T04:26:57.535Z</time>
      </trkpt>
      <trkpt lat="44.48517" lon="0.76506">
        <ele>71</ele>
        <time>2019-04-18T04:27:23.568Z</time>
      </trkpt>
      <trkpt lat="44.48527" lon="0.76434">
        <ele>70.628295898438</ele>
        <time>2019-04-18T04:27:49.611Z</time>
      </trkpt>
      <trkpt lat="44.48513" lon="0.76342">
        <ele>70.548797607422</ele>
        <time>2019-04-18T04:28:15.668Z</time>
      </trkpt>
      <trkpt lat="44.48518" lon="0.76285">
        <ele>70.404792785645</ele>
        <time>2019-04-18T04:28:41.733Z</time>
      </trkpt>
      <trkpt lat="44.48537" lon="0.76222">
        <ele>70.093406677246</ele>
        <time>2019-04-18T04:29:07.808Z</time>
      </trkpt>
      <trkpt lat="44.48496" lon="0.76174">
        <ele>69.554786682129</ele>
        <time>2019-04-18T04:29:33.894Z</time>
      </trkpt>
      <trkpt lat="44.48485" lon="0.76131">
        <ele>69.583564758301</ele>
        <time>2019-04-18T04:29:59.986Z</time>
      </trkpt>
      <trkpt lat="44.48411" lon="0.76167">
        <ele>72.36882019043</ele>
        <time>2019-04-18T04:30:26.094Z</time>
      </trkpt>
      <trkpt lat="44.48353" lon="0.76203">
        <ele>78.630477905273</ele>
        <time>2019-04-18T04:30:52.215Z</time>
      </trkpt>
      <trkpt lat="44.4831" lon="0.76239">
        <ele>86.860137939453</ele>
        <time>2019-04-18T04:31:18.346Z</time>
      </trkpt>
      <trkpt lat="44.48297" lon="0.76085">
        <ele>83.801704406738</ele>
        <time>2019-04-18T04:31:44.499Z</time>
      </trkpt>
      <trkpt lat="44.48298" lon="0.75966">
        <ele>75.043090820312</ele>
        <time>2019-04-18T04:32:10.669Z</time>
      </trkpt>
      <trkpt lat="44.48303" lon="0.75849">
        <ele>75.471343994141</ele>
        <time>2019-04-18T04:32:36.856Z</time>
      </trkpt>
      <trkpt lat="44.48294" lon="0.75824">
        <ele>77.978927612305</ele>
        <time>2019-04-18T04:33:03.047Z</time>
      </trkpt>
      <trkpt lat="44.48217" lon="0.7582">
        <ele>82.457344055176</ele>
        <time>2019-04-18T04:33:29.253Z</time>
      </trkpt>
      <trkpt lat="44.48154" lon="0.75843">
        <ele>82.628532409668</ele>
        <time>2019-04-18T04:33:55.472Z</time>
      </trkpt>
      <trkpt lat="44.48061" lon="0.75821">
        <ele>90.192070007324</ele>
        <time>2019-04-18T04:34:21.710Z</time>
      </trkpt>
      <trkpt lat="44.48076" lon="0.7578">
        <ele>90.16145324707</ele>
        <time>2019-04-18T04:34:47.955Z</time>
      </trkpt>
      <trkpt lat="44.47984" lon="0.75745">
        <ele>93.05297088623</ele>
        <time>2019-04-18T04:35:14.219Z</time>
      </trkpt>
      <trkpt lat="44.47907" lon="0.75718">
        <ele>94.917419433594</ele>
        <time>2019-04-18T04:35:40.498Z</time>
      </trkpt>
      <trkpt lat="44.47884" lon="0.75727">
        <ele>95.503555297852</ele>
        <time>2019-04-18T04:36:06.782Z</time>
      </trkpt>
      <trkpt lat="44.47867" lon="0.75761">
        <ele>96.448196411133</ele>
        <time>2019-04-18T04:36:33.072Z</time>
      </trkpt>
      <trkpt lat="44.47774" lon="0.75685">
        <ele>99.137023925781</ele>
        <time>2019-04-18T04:36:59.384Z</time>
      </trkpt>
      <trkpt lat="44.47671" lon="0.75584">
        <ele>99.973701477051</ele>
        <time>2019-04-18T04:37:25.721Z</time>
      </trkpt>
      <trkpt lat="44.47633" lon="0.75545">
        <ele>101.37657165527</ele>
        <time>2019-04-18T04:37:52.067Z</time>
      </trkpt>
      <trkpt lat="44.47582" lon="0.75509">
        <ele>102.14789581299</ele>
        <time>2019-04-18T04:38:18.425Z</time>
      </trkpt>
      <trkpt lat="44.47475" lon="0.75508">
        <ele>103.02977752686</ele>
        <time>2019-04-18T04:38:44.804Z</time>
      </trkpt>
      <trkpt lat="44.47412" lon="0.75508">
        <ele>101.07936096191</ele>
        <time>2019-04-18T04:39:11.196Z</time>
      </trkpt>
      <trkpt lat="44.47402" lon="0.75539">
        <ele>100.81960296631</ele>
        <time>2019-04-18T04:39:37.593Z</time>
      </trkpt>
      <trkpt lat="44.47368" lon="0.75518">
        <ele>97.712120056152</ele>
        <time>2019-04-18T04:40:03.997Z</time>
      </trkpt>
      <trkpt lat="44.47334" lon="0.75544">
        <ele>98.791069030762</ele>
        <time>2019-04-18T04:40:30.409Z</time>
      </trkpt>
      <trkpt lat="44.47273" lon="0.75583">
        <ele>101.93856811523</ele>
        <time>2019-04-18T04:40:56.834Z</time>
      </trkpt>
      <trkpt lat="44.47213" lon="0.75606">
        <ele>105.81392669678</ele>
        <time>2019-04-18T04:41:23.272Z</time>
      </trkpt>
      <trkpt lat="44.47128" lon="0.75609">
        <ele>105.45484924316</ele>
        <time>2019-04-18T04:41:49.727Z</time>
      </trkpt>
      <trkpt lat="44.47073" lon="0.75573">
        <ele>101.85762023926</ele>
        <time>2019-04-18T04:42:16.194Z</time>
      </trkpt>
      <trkpt lat="44.47006" lon="0.75547">
        <ele>97.711051940918</ele>
        <time>2019-04-18T04:42:42.675Z</time>
      </trkpt>
      <trkpt lat="44.46993" lon="0.75621">
        <ele>97.644859313965</ele>
        <time>2019-04-18T04:43:09.167Z</time>
      </trkpt>
      <trkpt lat="44.46965" lon="0.75695">
        <ele>96.311508178711</ele>
        <time>2019-04-18T04:43:35.671Z</time>
      </trkpt>
      <trkpt lat="44.4689" lon="0.75685">
        <ele>96.714004516602</ele>
        <time>2019-04-18T04:44:02.190Z</time>
      </trkpt>
      <trkpt lat="44.46815" lon="0.75754">
        <ele>95.406608581543</ele>
        <time>2019-04-18T04:44:28.727Z</time>
      </trkpt>
      <trkpt lat="44.46758" lon="0.75843">
        <ele>96.273231506348</ele>
        <time>2019-04-18T04:44:55.281Z</time>
      </trkpt>
      <trkpt lat="44.46708" lon="0.75979">
        <ele>96.39656829834</ele>
        <time>2019-04-18T04:45:21.857Z</time>
      </trkpt>
      <trkpt lat="44.46667" lon="0.76093">
        <ele>98.758720397949</ele>
        <time>2019-04-18T04:45:48.451Z</time>
      </trkpt>
      <trkpt lat="44.46666" lon="0.76216">
        <ele>101.07579040527</ele>
        <time>2019-04-18T04:46:15.063Z</time>
      </trkpt>
      <trkpt lat="44.46679" lon="0.76243">
        <ele>101.77223205566</ele>
        <time>2019-04-18T04:46:41.679Z</time>
      </trkpt>
      <trkpt lat="44.46693" lon="0.76446">
        <ele>108.18451690674</ele>
        <time>2019-04-18T04:47:08.324Z</time>
      </trkpt>
      <trkpt lat="44.46717" lon="0.76658">
        <ele>114.70572662354</ele>
        <time>2019-04-18T04:47:35.000Z</time>
      </trkpt>
      <trkpt lat="44.46635" lon="0.76719">
        <ele>114.94889068604</ele>
        <time>2019-04-18T04:48:01.695Z</time>
      </trkpt>
      <trkpt lat="44.46526" lon="0.768">
        <ele>114.10884094238</ele>
        <time>2019-04-18T04:48:28.414Z</time>
      </trkpt>
      <trkpt lat="44.46282" lon="0.76832">
        <ele>118.678565979</ele>
        <time>2019-04-18T04:48:55.183Z</time>
      </trkpt>
      <trkpt lat="44.46125" lon="0.76859">
        <ele>123.33158874512</ele>
        <time>2019-04-18T04:49:21.983Z</time>
      </trkpt>
      <trkpt lat="44.45949" lon="0.76873">
        <ele>130.02061462402</ele>
        <time>2019-04-18T04:49:48.818Z</time>
      </trkpt>
      <trkpt lat="44.45849" lon="0.76892">
        <ele>137.15734863281</ele>
        <time>2019-04-18T04:50:15.674Z</time>
      </trkpt>
      <trkpt lat="44.45796" lon="0.7693">
        <ele>136.84120178223</ele>
        <time>2019-04-18T04:50:42.542Z</time>
      </trkpt>
      <trkpt lat="44.45746" lon="0.76959">
        <ele>136.87944030762</ele>
        <time>2019-04-18T04:51:09.420Z</time>
      </trkpt>
      <trkpt lat="44.45646" lon="0.76942">
        <ele>139.56855773926</ele>
        <time>2019-04-18T04:51:36.318Z</time>
      </trkpt>
      <trkpt lat="44.45576" lon="0.76852">
        <ele>138.33027648926</ele>
        <time>2019-04-18T04:52:03.236Z</time>
      </trkpt>
      <trkpt lat="44.45505" lon="0.76766">
        <ele>136.14082336426</ele>
        <time>2019-04-18T04:52:30.172Z</time>
      </trkpt>
      <trkpt lat="44.45445" lon="0.76689">
        <ele>137.35893249512</ele>
        <time>2019-04-18T04:52:57.125Z</time>
      </trkpt>
      <trkpt lat="44.45381" lon="0.76625">
        <ele>132.44496154785</ele>
        <time>2019-04-18T04:53:24.093Z</time>
      </trkpt>
      <trkpt lat="44.45389" lon="0.76531">
        <ele>131.50132751465</ele>
        <time>2019-04-18T04:53:51.075Z</time>
      </trkpt>
      <trkpt lat="44.45403" lon="0.7643">
        <ele>133.27285766602</ele>
        <time>2019-04-18T04:54:18.072Z</time>
      </trkpt>
      <trkpt lat="44.45458" lon="0.7635">
        <ele>137.57006835938</ele>
        <time>2019-04-18T04:54:45.085Z</time>
      </trkpt>
      <trkpt lat="44.45498" lon="0.76261">
        <ele>136.81848144531</ele>
        <time>2019-04-18T04:55:12.113Z</time>
      </trkpt>
      <trkpt lat="44.45499" lon="0.76229">
        <ele>136.48252868652</ele>
        <time>2019-04-18T04:55:39.145Z</time>
      </trkpt>
      <trkpt lat="44.45447" lon="0.76177">
        <ele>131.80476379395</ele>
        <time>2019-04-18T04:56:06.190Z</time>
      </trkpt>
      <trkpt lat="44.45432" lon="0.76068">
        <ele>126.02582550049</ele>
        <time>2019-04-18T04:56:33.251Z</time>
      </trkpt>
      <trkpt lat="44.45415" lon="0.75955">
        <ele>120.84784698486</ele>
        <time>2019-04-18T04:57:00.328Z</time>
      </trkpt>
      <trkpt lat="44.45375" lon="0.75834">
        <ele>114.07901000977</ele>
        <time>2019-04-18T04:57:27.425Z</time>
      </trkpt>
      <trkpt lat="44.4533" lon="0.75744">
        <ele>108.41474914551</ele>
        <time>2019-04-18T04:57:54.537Z</time>
      </trkpt>
      <trkpt lat="44.45255" lon="0.75659">
        <ele>101.92295074463</ele>
        <time>2019-04-18T04:58:21.669Z</time>
      </trkpt>
      <trkpt lat="44.45279" lon="0.75575">
        <ele>105.57216644287</ele>
        <time>2019-04-18T04:58:48.814Z</time>
      </trkpt>
      <trkpt lat="44.45242" lon="0.75527">
        <ele>101.46007537842</ele>
        <time>2019-04-18T04:59:15.969Z</time>
      </trkpt>
      <trkpt lat="44.45239" lon="0.755">
        <ele>101.03884124756</ele>
        <time>2019-04-18T04:59:43.128Z</time>
      </trkpt>
      <trkpt lat="44.45171" lon="0.75451">
        <ele>95.50626373291</ele>
        <time>2019-04-18T05:00:10.302Z</time>
      </trkpt>
      <trkpt lat="44.45042" lon="0.75344">
        <ele>94.818229675293</ele>
        <time>2019-04-18T05:00:37.506Z</time>
      </trkpt>
      <trkpt lat="44.4498" lon="0.75347">
        <ele>99.641662597656</ele>
        <time>2019-04-18T05:01:04.722Z</time>
      </trkpt>
      <trkpt lat="44.449" lon="0.75343">
        <ele>106.06822967529</ele>
        <time>2019-04-18T05:01:31.954Z</time>
      </trkpt>
      <trkpt lat="44.44778" lon="0.75331">
        <ele>116.05669403076</ele>
        <time>2019-04-18T05:01:59.211Z</time>
      </trkpt>
      <trkpt lat="44.44656" lon="0.75325">
        <ele>121.73782348633</ele>
        <time>2019-04-18T05:02:26.492Z</time>
      </trkpt>
      <trkpt lat="44.44507" lon="0.7531">
        <ele>127.56939697266</ele>
        <time>2019-04-18T05:02:53.803Z</time>
      </trkpt>
      <trkpt lat="44.44369" lon="0.75243">
        <ele>139.83599853516</ele>
        <time>2019-04-18T05:03:21.143Z</time>
      </trkpt>
      <trkpt lat="44.44284" lon="0.75197">
        <ele>141.38856506348</ele>
        <time>2019-04-18T05:03:48.502Z</time>
      </trkpt>
      <trkpt lat="44.44232" lon="0.75211">
        <ele>142.36761474609</ele>
        <time>2019-04-18T05:04:15.871Z</time>
      </trkpt>
      <trkpt lat="44.44177" lon="0.75187">
        <ele>142.45159912109</ele>
        <time>2019-04-18T05:04:43.252Z</time>
      </trkpt>
      <trkpt lat="44.44058" lon="0.75082">
        <ele>136.56550598145</ele>
        <time>2019-04-18T05:05:10.661Z</time>
      </trkpt>
      <trkpt lat="44.43998" lon="0.75042">
        <ele>135.35649108887</ele>
        <time>2019-04-18T05:05:38.083Z</time>
      </trkpt>
      <trkpt lat="44.43894" lon="0.74959">
        <ele>138.6400604248</ele>
        <time>2019-04-18T05:06:05.529Z</time>
      </trkpt>
      <trkpt lat="44.43862" lon="0.74935">
        <ele>139.69235229492</ele>
        <time>2019-04-18T05:06:32.982Z</time>
      </trkpt>
      <trkpt lat="44.4386" lon="0.74954">
        <ele>139.52438354492</ele>
        <time>2019-04-18T05:07:00.438Z</time>
      </trkpt>
      <trkpt lat="44.43819" lon="0.74935">
        <ele>136.08094787598</ele>
        <time>2019-04-18T05:07:27.903Z</time>
      </trkpt>
      <trkpt lat="44.43751" lon="0.74859">
        <ele>127.80759429932</ele>
        <time>2019-04-18T05:07:55.385Z</time>
      </trkpt>
      <trkpt lat="44.43763" lon="0.74821">
        <ele>128.05744934082</ele>
        <time>2019-04-18T05:08:22.873Z</time>
      </trkpt>
      <trkpt lat="44.43695" lon="0.74729">
        <ele>117.00638580322</ele>
        <time>2019-04-18T05:08:50.380Z</time>
      </trkpt>
      <trkpt lat="44.43626" lon="0.7465">
        <ele>108.40158843994</ele>
        <time>2019-04-18T05:09:17.905Z</time>
      </trkpt>
      <trkpt lat="44.43594" lon="0.74631">
        <ele>105.88496398926</ele>
        <time>2019-04-18T05:09:45.437Z</time>
      </trkpt>
      <trkpt lat="44.43576" lon="0.74786">
        <ele>109.72159576416</ele>
        <time>2019-04-18T05:10:12.991Z</time>
      </trkpt>
      <trkpt lat="44.4356" lon="0.74847">
        <ele>107.66123199463</ele>
        <time>2019-04-18T05:10:40.555Z</time>
      </trkpt>
      <trkpt lat="44.43505" lon="0.74896">
        <ele>103.24076843262</ele>
        <time>2019-04-18T05:11:08.132Z</time>
      </trkpt>
      <trkpt lat="44.43371" lon="0.75027">
        <ele>100.47772216797</ele>
        <time>2019-04-18T05:11:35.741Z</time>
      </trkpt>
      <trkpt lat="44.43282" lon="0.7524">
        <ele>112.60861968994</ele>
        <time>2019-04-18T05:12:03.386Z</time>
      </trkpt>
      <trkpt lat="44.43246" lon="0.75429">
        <ele>123.80856323242</ele>
        <time>2019-04-18T05:12:31.059Z</time>
      </trkpt>
      <trkpt lat="44.43214" lon="0.75512">
        <ele>128.92860412598</ele>
        <time>2019-04-18T05:12:58.745Z</time>
      </trkpt>
      <trkpt lat="44.4316" lon="0.75526">
        <ele>129.75964355469</ele>
        <time>2019-04-18T05:13:26.442Z</time>
      </trkpt>
      <trkpt lat="44.4297" lon="0.75529">
        <ele>131.68148803711</ele>
        <time>2019-04-18T05:13:54.177Z</time>
      </trkpt>
      <trkpt lat="44.42912" lon="0.75551">
        <ele>129.98408508301</ele>
        <time>2019-04-18T05:14:21.924Z</time>
      </trkpt>
      <trkpt lat="44.42725" lon="0.75639">
        <ele>120.1566619873</ele>
        <time>2019-04-18T05:14:49.711Z</time>
      </trkpt>
      <trkpt lat="44.4263" lon="0.75672">
        <ele>122.95129394531</ele>
        <time>2019-04-18T05:15:17.517Z</time>
      </trkpt>
      <trkpt lat="44.42565" lon="0.7566">
        <ele>118.51637268066</ele>
        <time>2019-04-18T05:15:45.336Z</time>
      </trkpt>
      <trkpt lat="44.42503" lon="0.75661">
        <ele>111.62992095947</ele>
        <time>2019-04-18T05:16:13.168Z</time>
      </trkpt>
      <trkpt lat="44.42359" lon="0.75673">
        <ele>97.92601776123</ele>
        <time>2019-04-18T05:16:41.029Z</time>
      </trkpt>
      <trkpt lat="44.42368" lon="0.75607">
        <ele>98.31925201416</ele>
        <time>2019-04-18T05:17:08.899Z</time>
      </trkpt>
      <trkpt lat="44.42344" lon="0.75545">
        <ele>99.96549987793</ele>
        <time>2019-04-18T05:17:36.779Z</time>
      </trkpt>
      <trkpt lat="44.42334" lon="0.75468">
        <ele>100.92989349365</ele>
        <time>2019-04-18T05:18:04.671Z</time>
      </trkpt>
      <trkpt lat="44.42341" lon="0.75351">
        <ele>98.097724914551</ele>
        <time>2019-04-18T05:18:32.580Z</time>
      </trkpt>
      <trkpt lat="44.42347" lon="0.7527">
        <ele>94.946716308594</ele>
        <time>2019-04-18T05:19:00.500Z</time>
      </trkpt>
      <trkpt lat="44.42227" lon="0.7527">
        <ele>97.89274597168</ele>
        <time>2019-04-18T05:19:28.444Z</time>
      </trkpt>
      <trkpt lat="44.42131" lon="0.75291">
        <ele>106.99500274658</ele>
        <time>2019-04-18T05:19:56.408Z</time>
      </trkpt>
      <trkpt lat="44.42055" lon="0.75337">
        <ele>115.09186553955</ele>
        <time>2019-04-18T05:20:24.388Z</time>
      </trkpt>
      <trkpt lat="44.42005" lon="0.75439">
        <ele>120.90977478027</ele>
        <time>2019-04-18T05:20:52.386Z</time>
      </trkpt>
      <trkpt lat="44.41996" lon="0.75471">
        <ele>122.43315887451</ele>
        <time>2019-04-18T05:21:20.389Z</time>
      </trkpt>
      <trkpt lat="44.41942" lon="0.75468">
        <ele>122.12879180908</ele>
        <time>2019-04-18T05:21:48.403Z</time>
      </trkpt>
      <trkpt lat="44.41943" lon="0.75558">
        <ele>124.50751495361</ele>
        <time>2019-04-18T05:22:16.430Z</time>
      </trkpt>
    </trkseg>
  </trk>
</gpx>